[[{"header":{"parameterUnit":"m.s-1","parameterCategory":1,"la1":30.6,"la2":28.766,"lo1":-90.7593,"lo2":-88.6598,"dy":0.0162,"dx":0.0183,"nx":116,"ny":114,"refTime":"2024-07-04T06:00:00:Z","depth":0,"parameterNumber":2,"parameterNumberName":"U-component_of_WINDS"},"data":[0.0,0.0,0.0,0.0,0.0,0.0,0.0,0.0,0.0,0.0,0.0,0.0,0.0,0.0,0.0,0.0,0.0,0.0,0.0,0.0,0.0,0.0,0.0,0.0,0.0,0.0,0.0,0.0,0.0,0.0,0.0,0.0,0.0,0.0,0.0,0.0,0.0,0.0,0.0,0.0,0.0,0.0,0.0,0.0,0.0,0.0,0.0,0.0,0.0,0.0,0.0,0.0,0.0,0.0,0.0,0.0,0.0,0.0,0.0,0.0,0.0,0.0,0.0,0.0,0.0,0.0,0.0,0.0,0.0,0.0,0.0,0.0,0.0,0.0,0.0,0.0,0.0,0.0,0.0,0.0,0.0,0.0,0.0,0.0,0.0,0.0,0.0,0.0,0.0,0.0,0.0,0.0,0.0,0.0,0.0,0.0,0.0,0.0,0.0,0.0,0.0,0.0,0.0,0.0,0.0,0.0,0.0,0.0,0.0,0.0,0.0,0.0,0.0,0.0,0.0,0.0,0.0,0.0,0.0,0.0,0.0,0.0,0.0,0.0,0.0,0.0,0.0,0.0,0.0,0.0,0.0,0.0,0.0,0.0,0.0,0.0,0.0,0.0,0.0,0.0,0.0,0.0,0.0,0.0,0.0,0.0,0.0,0.0,0.0,0.0,0.0,0.0,0.0,0.0,0.0,0.0,0.0,0.0,0.0,0.0,0.0,0.0,0.0,0.0,0.0,0.0,0.0,0.0,0.0,0.0,0.0,0.0,0.0,0.0,0.0,0.0,0.0,0.0,0.0,0.0,0.0,0.0,0.0,0.0,0.0,0.0,0.0,0.0,0.0,0.0,0.0,0.0,0.0,0.0,0.0,0.0,0.0,0.0,0.0,0.0,0.0,0.0,0.0,0.0,0.0,0.0,0.0,0.0,0.0,0.0,0.0,0.0,0.0,0.0,0.0,0.0,0.0,0.0,0.0,0.0,0.0,0.0,0.0,0.0,0.0,0.0,0.0,0.0,0.0,0.0,0.0,0.0,0.0,0.0,0.0,0.0,0.0,0.0,0.0,0.0,0.0,0.0,0.0,0.0,0.0,0.0,0.0,0.0,0.0,0.0,0.0,0.0,0.0,0.0,0.0,0.0,0.0,0.0,0.0,0.0,0.0,0.0,0.0,0.0,0.0,0.0,0.0,0.0,0.0,0.0,0.0,0.0,0.0,0.0,0.0,0.0,0.0,0.0,0.0,0.0,0.0,0.0,0.0,0.0,0.0,0.0,0.0,0.0,0.0,0.0,0.0,0.0,0.0,0.0,0.0,0.0,0.0,0.0,0.0,0.0,0.0,0.0,0.0,0.0,0.0,0.0,0.0,0.0,0.0,0.0,0.0,0.0,0.0,0.0,0.0,0.0,0.0,0.0,0.0,0.0,0.0,0.0,0.0,0.0,0.0,0.0,0.0,0.0,0.0,0.0,0.0,0.0,0.0,0.0,0.0,0.0,0.0,0.0,0.0,0.0,0.0,0.0,0.0,0.0,0.0,0.0,0.0,0.0,0.0,0.0,0.0,0.0,0.0,0.0,0.0,0.0,0.0,0.0,0.0,0.0,0.0,0.0,0.0,0.0,0.0,0.0,0.0,0.0,0.0,0.0,0.0,0.0,0.0,0.0,0.0,0.0,0.0,0.0,0.0,0.0,0.0,0.0,0.0,0.0,0.0,0.0,0.0,0.0,0.0,0.0,0.0,0.0,0.0,0.0,0.0,0.0,0.0,0.0,0.0,0.0,0.0,0.0,0.0,0.0,0.0,0.0,0.0,0.0,0.0,0.0,0.0,0.0,0.0,0.0,0.0,0.0,0.0,0.0,0.0,0.0,0.0,0.0,0.0,0.0,0.0,0.0,0.0,0.0,0.0,0.0,0.0,0.0,0.0,0.0,0.0,0.0,0.0,0.0,0.0,0.0,0.0,0.0,0.0,0.0,0.0,0.0,0.0,0.0,0.0,0.0,0.0,0.0,0.0,0.0,0.0,0.0,0.0,0.0,0.0,0.0,0.0,0.0,0.0,0.0,0.0,0.0,0.0,0.0,0.0,0.0,0.0,0.0,0.0,0.0,0.0,0.0,0.0,0.0,0.0,0.0,0.0,0.0,0.0,0.0,0.0,0.0,0.0,0.0,0.0,0.0,0.0,0.0,0.0,0.0,0.0,0.0,0.0,0.0,0.0,0.0,0.0,0.0,0.0,0.0,0.0,0.0,0.0,0.0,0.0,0.0,0.0,0.0,0.0,0.0,0.0,0.0,0.0,0.0,0.0,0.0,0.0,0.0,0.0,0.0,0.0,0.0,0.0,0.0,0.0,0.0,0.0,0.0,0.0,0.0,0.0,0.0,0.0,0.0,0.0,0.0,0.0,0.0,0.0,0.0,0.0,0.0,0.0,0.0,0.0,0.0,0.0,0.0,0.0,0.0,0.0,0.0,0.0,0.0,0.0,0.0,0.0,0.0,0.0,0.0,0.0,0.0,0.0,0.0,0.0,0.0,0.0,0.0,0.0,0.0,0.0,0.0,0.0,0.0,0.0,0.0,0.0,0.0,0.0,0.0,0.0,0.0,0.0,0.0,0.0,0.0,0.0,0.0,0.0,0.0,0.0,0.0,0.0,0.0,0.0,0.0,0.0,0.0,0.0,0.0,0.0,0.0,0.0,0.0,0.0,0.0,0.0,0.0,0.0,0.0,0.0,0.0,0.0,0.0,0.0,0.0,0.0,0.0,0.0,0.0,0.0,0.0,0.0,0.0,0.0,0.0,0.0,0.0,0.0,0.0,0.0,0.0,0.0,0.0,0.0,0.0,0.0,0.0,0.0,0.0,0.0,0.0,0.0,0.0,0.0,0.0,0.0,0.0,0.0,0.0,0.0,0.0,0.0,0.0,0.0,0.0,0.0,0.0,0.0,0.0,0.0,0.0,0.0,0.0,0.0,0.0,0.0,0.0,0.0,0.0,0.0,0.0,0.0,0.0,0.0,0.0,0.0,0.0,0.0,0.0,0.0,0.0,0.0,0.0,0.0,0.0,0.0,0.0,0.0,0.0,0.0,0.0,0.0,0.0,0.0,0.0,0.0,0.0,0.0,0.0,0.0,0.0,0.0,0.0,0.0,0.0,0.0,0.0,0.0,0.0,0.0,0.0,0.0,0.0,0.0,0.0,0.0,0.0,0.0,0.0,0.0,0.0,0.0,0.0,0.0,0.0,0.0,0.0,0.0,0.0,0.0,0.0,0.0,0.0,0.0,0.0,0.0,0.0,0.0,0.0,0.0,0.0,0.0,0.0,0.0,0.0,0.0,0.0,0.0,0.0,0.0,0.0,0.0,0.0,0.0,0.0,0.0,0.0,0.0,0.0,0.0,0.0,0.0,0.0,0.0,0.0,0.0,0.0,0.0,0.0,0.0,0.0,0.0,0.0,0.0,0.0,0.0,0.0,0.0,0.0,0.0,0.0,0.0,0.0,0.0,0.0,0.0,0.0,0.0,0.0,0.0,0.0,0.0,0.0,0.0,0.0,0.0,0.0,0.0,0.0,0.0,0.0,0.0,0.0,0.0,0.0,0.0,0.0,0.0,0.0,0.0,0.0,0.0,0.0,0.0,0.0,0.0,0.0,0.0,0.0,0.0,0.0,0.0,0.0,0.0,0.0,0.0,0.0,0.0,0.0,0.0,0.0,0.0,0.0,0.0,0.0,0.0,0.0,0.0,0.0,0.0,0.0,0.0,0.0,0.0,0.0,0.0,0.0,0.0,0.0,0.0,0.0,0.0,0.0,0.0,0.0,0.0,0.0,0.0,0.0,0.0,0.0,0.0,0.0,0.0,0.0,0.0,0.0,0.0,0.0,0.0,0.0,0.0,0.0,0.0,0.0,0.0,0.0,0.0,0.0,0.0,0.0,0.0,0.0,0.0,0.0,0.0,0.0,0.0,0.0,0.0,0.0,0.0,0.0,0.0,0.0,0.0,0.0,0.0,0.0,0.0,0.0,0.0,0.0,0.0,0.0,0.0,0.0,0.0,0.0,0.0,0.0,0.0,0.0,0.0,0.0,0.0,0.0,0.0,0.0,0.0,0.0,0.0,0.0,0.0,0.0,0.0,0.0,0.0,0.0,0.0,0.0,0.0,0.0,0.0,0.0,0.0,0.0,0.0,0.0,0.0,0.0,0.0,0.0,0.0,0.0,0.0,0.0,0.0,0.0,0.0,0.0,0.0,0.0,0.0,0.0,0.0,0.0,0.0,0.0,0.0,0.0,0.0,0.0,0.0,0.0,0.0,0.0,0.0,0.0,0.0,0.0,0.0,0.0,0.0,0.0,0.0,0.0,0.0,0.0,0.0,0.0,0.0,0.0,0.0,0.0,0.0,0.0,0.0,0.0,0.0,0.0,0.0,0.0,0.0,0.0,0.0,0.0,0.0,0.0,0.0,0.0,0.0,0.0,0.0,0.0,0.0,0.0,0.0,0.0,0.0,0.0,0.0,0.0,0.0,0.0,0.0,0.0,0.0,0.0,0.0,0.0,0.0,0.0,0.0,0.0,0.0,0.0,0.0,0.0,0.0,0.0,0.0,0.0,0.0,0.0,0.0,0.0,0.0,0.0,0.0,0.0,0.0,0.0,0.0,0.0,0.0,0.0,0.0,0.0,0.0,0.0,0.0,0.0,0.0,0.0,0.0,0.0,0.0,0.0,0.0,0.0,0.0,0.0,0.0,0.0,0.0,0.0,0.0,0.0,0.0,0.0,0.0,0.0,0.0,0.0,0.0,0.0,0.0,0.0,0.0,0.0,0.0,0.0,0.0,0.0,0.0,0.0,0.0,0.0,0.0,0.0,0.0,0.0,0.0,0.0,0.0,0.0,0.0,0.0,0.0,0.0,0.0,0.0,0.0,0.0,0.0,0.0,0.0,0.0,0.0,0.0,0.0,0.0,0.0,0.0,0.0,0.0,0.0,0.0,0.0,0.0,0.0,0.0,0.0,0.0,0.0,0.0,0.0,0.0,0.0,0.0,0.0,0.0,0.0,0.0,0.0,0.0,0.0,0.0,0.0,0.0,0.0,0.0,0.0,0.0,0.0,0.0,0.0,0.0,0.0,0.0,0.0,0.0,0.0,0.0,0.0,0.0,0.0,0.0,0.0,0.0,0.0,0.0,0.0,0.0,0.0,0.0,0.0,0.0,0.0,0.0,0.0,0.0,0.0,0.0,0.0,0.0,0.0,0.0,0.0,0.0,0.0,0.0,0.0,0.0,0.0,0.0,0.0,0.0,0.0,0.0,0.0,0.0,0.0,0.0,0.0,0.0,0.0,0.0,0.0,0.0,0.0,0.0,0.0,0.0,0.0,0.0,0.0,0.0,0.0,0.0,0.0,0.0,0.0,0.0,0.0,0.0,0.0,0.0,0.0,0.0,0.0,0.0,0.0,0.0,0.0,0.0,0.0,0.0,0.0,0.0,0.0,0.0,0.0,0.0,0.0,0.0,0.0,0.0,0.0,0.0,0.0,0.0,0.0,0.0,0.0,0.0,0.0,0.0,0.0,0.0,0.0,0.0,0.0,0.0,0.0,0.0,0.0,0.0,0.0,0.0,0.0,0.0,0.0,0.0,0.0,0.0,0.0,0.0,0.0,0.0,0.0,0.0,0.0,0.0,0.0,0.0,0.0,0.0,0.0,0.0,0.0,0.0,0.0,0.0,0.0,0.0,0.0,0.0,0.0,0.0,0.0,0.0,0.0,0.0,0.0,0.0,0.0,0.0,0.0,0.0,0.0,0.0,0.0,0.0,0.0,0.0,0.0,0.0,0.0,0.0,0.0,0.0,0.0,0.0,0.0,0.0,0.0,0.0,0.0,0.0,0.0,0.0,0.0,0.0,0.0,0.0,0.0,0.0,0.0,0.0,0.0,0.0,0.0,0.0,0.0,0.0,0.0,0.0,0.0,0.0,0.0,0.0,0.0,0.0,0.0,0.0,0.0,0.0,0.0,0.0,0.0,0.0,0.0,0.0,0.0,0.0,0.0,0.0,0.0,0.0,0.0,0.0,0.0,0.0,0.0,0.0,0.0,0.0,0.0,0.0,0.0,0.0,0.0,0.0,-3.6442,0.0,0.0,0.0,0.0,0.0,0.0,0.0,0.0,0.0,0.0,0.0,0.0,0.0,0.0,0.0,0.0,0.0,0.0,0.0,0.0,0.0,0.0,0.0,0.0,-2.1457,-2.2112,-2.3017,-2.3212,-2.3337,-2.3457,0.0,0.0,0.0,0.0,0.0,-2.2782,-2.2738,-2.2918,-2.336,-2.4054,-2.4921,-2.5924,-2.5369,-2.4273,-2.2776,0.0,0.0,0.0,0.0,0.0,0.0,0.0,0.0,0.0,0.0,0.0,0.0,0.0,0.0,0.0,0.0,0.0,0.0,0.0,0.0,0.0,0.0,0.0,0.0,0.0,0.0,0.0,0.0,0.0,0.0,0.0,0.0,0.0,0.0,0.0,0.0,0.0,0.0,0.0,0.0,0.0,0.0,0.0,0.0,0.0,0.0,0.0,0.0,0.0,0.0,0.0,0.0,0.0,0.0,0.0,0.0,0.0,0.0,0.0,0.0,0.0,0.0,0.0,0.0,0.0,0.0,0.0,0.0,0.0,0.0,0.0,-3.9296,0.0,0.0,0.0,0.0,0.0,0.0,0.0,0.0,0.0,0.0,0.0,0.0,0.0,0.0,0.0,0.0,0.0,0.0,0.0,0.0,0.0,-2.0756,-2.1614,-2.2638,-2.3639,-2.4559,-2.4884,-2.5086,-2.5139,-2.5073,0.0,0.0,0.0,-2.4474,-2.3967,-2.39,-2.4369,-2.5374,-2.6403,-2.7968,-3.0009,-2.9848,-2.8354,-2.574,-2.5121,0.0,0.0,0.0,0.0,0.0,0.0,0.0,0.0,0.0,0.0,0.0,0.0,0.0,0.0,0.0,0.0,0.0,0.0,0.0,0.0,0.0,0.0,0.0,0.0,0.0,0.0,0.0,0.0,0.0,0.0,0.0,0.0,0.0,0.0,0.0,0.0,0.0,0.0,0.0,0.0,0.0,0.0,0.0,0.0,0.0,0.0,0.0,0.0,0.0,0.0,0.0,0.0,0.0,0.0,0.0,0.0,0.0,0.0,0.0,0.0,0.0,0.0,0.0,-4.7817,-4.8567,-4.9221,-4.9356,-4.9817,-5.0298,-4.6663,-4.3855,-4.1766,0.0,0.0,0.0,0.0,0.0,0.0,0.0,0.0,0.0,0.0,0.0,0.0,0.0,0.0,0.0,0.0,0.0,0.0,0.0,0.0,-2.0872,-2.1698,-2.3293,-2.4667,-2.5536,-2.6378,-2.6885,-2.6954,-2.6298,0.0,0.0,-2.5201,-2.5081,-2.5737,-2.5748,-2.651,-2.8091,-3.0218,-3.2072,-3.3608,-3.342,-3.3002,-3.2308,-2.9436,-2.7362,-2.5964,0.0,0.0,0.0,0.0,0.0,0.0,0.0,0.0,0.0,0.0,0.0,0.0,0.0,0.0,0.0,0.0,0.0,0.0,0.0,0.0,0.0,0.0,0.0,0.0,0.0,0.0,0.0,0.0,0.0,0.0,0.0,0.0,0.0,0.0,0.0,0.0,0.0,0.0,0.0,0.0,0.0,-3.1023,-3.2054,0.0,0.0,0.0,0.0,0.0,0.0,0.0,0.0,0.0,0.0,0.0,0.0,0.0,0.0,-4.9327,-4.9577,-5.0529,-5.2202,-5.3087,-5.3549,-5.3683,-5.4376,-5.4761,-5.4799,-5.353,0.0,-4.7048,-4.624,0.0,0.0,0.0,0.0,0.0,0.0,0.0,0.0,0.0,0.0,0.0,0.0,0.0,0.0,0.0,0.0,0.0,0.0,0.0,0.0,0.0,-2.4428,-2.5725,-2.7083,-2.7129,-2.7315,-2.7837,-2.6645,-2.593,-2.593,-2.5158,-2.5136,-2.5963,-2.65,-2.8274,-3.1355,-3.3293,-3.4772,-3.5757,-3.5506,-3.528,-3.4979,-3.3463,-3.1432,-2.9083,-2.8298,0.0,0.0,0.0,0.0,0.0,0.0,0.0,0.0,0.0,0.0,0.0,0.0,0.0,0.0,0.0,0.0,0.0,0.0,0.0,0.0,0.0,0.0,0.0,0.0,0.0,0.0,0.0,0.0,0.0,0.0,0.0,0.0,0.0,0.0,0.0,0.0,0.0,0.0,0.0,-3.1886,-3.4609,-3.542,-3.5515,-3.5706,0.0,0.0,0.0,0.0,0.0,0.0,0.0,0.0,0.0,-4.7594,-4.8524,-5.0185,-5.2713,-5.3686,-5.4553,-5.5284,-5.6201,-5.6646,-5.6646,-5.6992,-5.7165,-5.7146,-5.6799,-5.528,-5.2895,-5.0164,-4.7586,-4.5182,0.0,0.0,0.0,0.0,0.0,-4.1604,0.0,0.0,0.0,0.0,0.0,0.0,0.0,0.0,0.0,0.0,0.0,0.0,-2.463,-2.5912,-2.727,-2.8782,-2.852,-2.8464,0.0,-2.7559,-2.6644,-2.6439,-2.5689,-2.577,-2.6827,-2.8386,-3.1045,-3.4809,-3.6198,-3.734,-3.8209,-3.7958,-3.7681,-3.7399,-3.7234,-3.5263,-3.2038,-3.1071,-2.9034,0.0,0.0,0.0,0.0,0.0,0.0,0.0,0.0,0.0,0.0,0.0,0.0,0.0,0.0,0.0,0.0,0.0,0.0,0.0,0.0,0.0,0.0,0.0,0.0,0.0,0.0,0.0,0.0,0.0,0.0,0.0,0.0,0.0,0.0,0.0,0.0,0.0,0.0,-3.4975,-3.7589,-3.8858,-3.9183,-3.9565,0.0,0.0,0.0,0.0,0.0,0.0,-4.6787,-4.7895,-4.9553,-5.1966,-5.2675,-5.384,-5.5616,-5.691,-5.7693,-5.7905,-5.8604,-5.8934,-5.8934,-5.8934,-5.8934,-5.8934,-5.8704,-5.8242,-5.7368,-5.379,-5.1164,-4.9279,-4.8029,-4.6894,-4.5855,-4.5259,-4.5547,-4.624,0.0,0.0,0.0,0.0,0.0,0.0,0.0,0.0,0.0,0.0,0.0,-2.3853,-2.5466,-2.7839,-2.965,-3.0507,-3.1302,-3.1424,0.0,0.0,-2.8969,-2.8213,-2.7354,-2.768,-2.9373,-3.2642,-3.5654,-3.8337,-3.912,-4.0306,-4.1832,-4.1567,-4.1252,-4.0933,-4.0672,-3.8316,-3.4436,-3.2841,-3.1286,-2.9576,0.0,0.0,0.0,0.0,0.0,0.0,0.0,0.0,0.0,0.0,0.0,0.0,0.0,0.0,0.0,0.0,0.0,0.0,0.0,0.0,0.0,0.0,0.0,0.0,0.0,0.0,0.0,0.0,0.0,0.0,0.0,0.0,0.0,0.0,0.0,0.0,0.0,0.0,0.0,-4.2259,-4.3223,0.0,0.0,0.0,0.0,-4.4972,-4.7333,-4.9461,-5.1188,-5.2824,-5.4567,-5.6424,-5.652,-5.7404,-5.9212,-5.9327,-5.9781,-6.0608,-6.0646,-6.0666,-6.0666,-6.0666,-6.0666,-6.0627,-5.98,-5.9415,-5.9223,-5.7426,-5.5203,-5.2953,-5.2856,-5.1818,-5.0366,-5.0327,-5.0837,-5.1519,0.0,0.0,0.0,-1.8461,-1.8866,-1.9226,-1.9778,-2.0258,-2.0809,-2.1548,-2.3092,-2.4957,0.0,-2.8584,-3.0197,-3.2087,-3.2028,-3.1738,-3.1421,0.0,-2.9057,-2.8219,-2.7913,-2.909,-3.1919,-3.4789,-3.7254,-3.9312,-4.0614,-4.1494,-4.1959,-4.1745,-4.1452,-4.1123,-4.0892,-3.9904,-3.8298,-3.6261,-3.3891,-3.1364,-2.9745,-2.7989,0.0,0.0,0.0,0.0,0.0,0.0,0.0,0.0,0.0,0.0,0.0,0.0,0.0,0.0,0.0,0.0,0.0,0.0,0.0,0.0,0.0,0.0,0.0,0.0,0.0,0.0,0.0,0.0,0.0,0.0,0.0,0.0,0.0,0.0,0.0,0.0,0.0,-4.5793,-4.6768,0.0,-4.8009,-4.8048,-4.864,-5.0015,-5.2002,-5.3645,-5.4753,-5.5919,-5.7091,-5.8239,-5.8278,-5.8859,-6.0073,-6.015,-6.036,-6.068,-6.0765,-6.08,-6.08,-6.08,-6.08,-6.0781,-6.0473,-6.0339,-6.0281,-5.9685,-5.8261,-5.6434,-5.5857,-5.5291,-5.4694,-5.4117,-5.376,-5.3568,-1.5479,-1.5873,0.0,-1.8005,-1.8456,-1.8892,-1.9741,-2.0515,-2.1354,-2.2369,-2.3956,-2.6029,-2.8722,-2.9746,-3.1105,-3.3278,-3.2939,-3.2388,-3.1849,-3.105,-3.0103,-2.8988,-2.9802,-3.1699,-3.4808,-3.6878,-3.8901,-4.0898,-4.2014,-4.2621,-4.2762,-4.2537,-4.2267,-4.1932,-4.1714,-4.1359,-4.08,-3.9277,-3.6808,-3.3826,-3.2797,-3.0919,-2.8622,0.0,0.0,0.0,0.0,0.0,0.0,0.0,0.0,0.0,0.0,0.0,0.0,0.0,0.0,0.0,0.0,0.0,0.0,0.0,0.0,0.0,0.0,0.0,0.0,0.0,0.0,0.0,0.0,0.0,0.0,0.0,0.0,0.0,0.0,0.0,-4.6978,-4.9232,-5.0264,-5.1104,-5.1945,-5.227,-5.2881,-5.3989,-5.5689,-5.6893,-5.7409,-5.8268,-5.9008,-5.9538,-5.9557,-5.9857,-6.0472,-6.0552,-6.0617,-6.0623,-6.071,-6.0788,-6.08,-6.08,-6.08,-6.08,-6.08,-6.08,-6.08,-6.08,-6.0146,-5.9069,-5.8184,-5.7684,-5.7357,-5.678,-5.6242,-5.578,-1.4794,-1.5474,-1.6335,-1.7209,-1.8033,-1.8832,-1.9649,-2.0495,-2.1578,-2.3108,-2.4769,-2.7056,-3.0243,-3.1392,-3.2527,-3.4079,-3.4179,-3.3491,-3.1942,-3.2537,-3.2295,-3.0772,-3.3059,-3.5522,-3.7968,-3.9044,-4.0789,-4.3294,-4.3393,-4.3794,-4.4487,-4.4214,-4.3921,-4.3597,-4.3322,-4.2668,-4.1741,-4.1741,-4.0002,-3.7094,-3.5462,-3.3375,-3.1066,0.0,0.0,0.0,0.0,0.0,0.0,0.0,0.0,0.0,0.0,0.0,0.0,0.0,0.0,0.0,0.0,0.0,0.0,0.0,0.0,0.0,0.0,0.0,0.0,0.0,0.0,0.0,0.0,0.0,0.0,0.0,0.0,0.0,-4.2966,-4.587,-4.9213,-5.248,-5.3664,-5.4543,-5.5403,-5.6205,-5.6683,-5.6683,-5.8211,-5.9133,-5.9133,-5.9931,-6.0431,-6.0499,-6.0499,-6.0525,-6.0591,-6.0591,-6.0629,-6.0685,-6.0697,-6.0722,-6.08,-6.08,-6.08,-6.08,-6.08,-6.08,-6.08,-6.08,-6.08,-6.0723,-5.9877,-5.9069,-5.8377,-5.8377,-5.8357,-5.8338,-1.4794,-1.5038,-1.5499,-1.6371,-1.7158,-1.7931,-1.8736,-2.057,-2.2219,-2.3162,-2.5267,-2.768,-3.0318,-3.134,-3.2474,-3.4048,-3.3658,-3.3138,-3.2704,-3.2332,-3.2462,-3.3187,-3.5039,-3.6924,-3.8824,-4.0332,-4.1796,-4.3231,-4.3821,-4.4186,-4.4358,-4.4128,-4.3844,-4.3513,-4.3286,-4.2978,-4.2574,-4.2574,-4.1723,-4.0256,-3.8117,-3.6141,-3.4277,0.0,0.0,0.0,0.0,0.0,0.0,0.0,0.0,0.0,0.0,0.0,0.0,0.0,0.0,0.0,0.0,0.0,0.0,0.0,0.0,0.0,0.0,0.0,0.0,0.0,0.0,0.0,0.0,0.0,0.0,0.0,-4.3281,-4.6432,-4.6432,-4.9862,-5.2938,-5.4505,-5.5976,-5.695,-5.7199,-5.7944,-5.8421,-5.8421,-5.9434,-6.0045,-6.0045,-6.0255,-6.0403,-6.0431,-6.0431,-6.0431,-6.0458,-6.0499,-6.0539,-6.0565,-6.0648,-6.0697,-6.0722,-6.0788,-6.08,-6.08,-6.08,-6.08,-6.08,-6.08,-6.08,-6.0781,-6.0531,-6.03,-6.0108,-6.0108,-5.9704,-5.9088,-1.4799,-1.4823,-1.5245,-1.6498,-1.7029,-1.7678,-1.8838,-2.0799,-2.2432,-2.3202,-2.5446,-2.7753,-2.9872,-3.0827,-3.1812,-3.3083,-3.3083,-3.2871,-3.2518,-3.2704,-3.3689,-3.5646,-3.7002,-3.8645,-4.0663,-4.1692,-4.2677,-4.3608,-4.4144,-4.434,-4.424,-4.4097,-4.386,-4.3548,-4.3392,-4.3214,-4.2994,-4.2994,-4.2684,-4.2049,-4.0347,-3.8717,-3.7087,-3.5005,-3.3701,-3.2795,-3.1202,-3.0084,-2.93,-2.8485,0.0,0.0,0.0,0.0,0.0,0.0,0.0,0.0,0.0,0.0,0.0,0.0,0.0,0.0,0.0,0.0,0.0,0.0,0.0,0.0,0.0,0.0,0.0,0.0,-4.7073,-5.0149,-5.0882,-5.311,-5.5231,-5.6778,-5.781,-5.8555,-5.8899,-5.9376,-5.9644,-5.9644,-6.0102,-6.0403,-6.0403,-6.0403,-6.0403,-6.0403,-6.0403,-6.0403,-6.0403,-6.0431,-6.0472,-6.0499,-6.0591,-6.0655,-6.0697,-6.0734,-6.0757,0.0,-6.08,-6.08,-6.08,-6.08,-6.08,0.0,0.0,0.0,0.0,0.0,-6.0473,-5.9973,-1.4799,-1.4883,-1.5424,-1.6983,-1.7361,-1.7918,-1.9332,-2.0989,-2.2383,-2.3175,-2.5326,-2.7445,-2.9221,-3.0028,-3.0827,-3.1719,-3.2358,-3.2488,-3.1968,-3.3603,-3.5646,-3.7931,-3.899,-4.055,-4.2742,-4.2947,-4.3401,-4.4199,-4.4314,-4.4314,-4.4199,-4.4128,-4.3921,-4.3614,-4.3531,-4.3358,-4.3105,-4.3104,-4.303,-4.2847,-4.214,-4.0963,-3.9478,-3.7883,-3.6761,-3.5858,-3.4353,-3.3284,-3.2484,-3.1701,0.0,0.0,0.0,0.0,0.0,0.0,0.0,0.0,0.0,0.0,0.0,0.0,0.0,0.0,0.0,0.0,0.0,0.0,0.0,0.0,0.0,0.0,0.0,0.0,-5.1104,-5.3836,-5.5575,-5.5823,-5.6631,-5.8842,-5.9205,-5.9548,-6.0313,-6.0403,-6.0403,-6.0403,-6.0403,-6.0441,-6.0537,0.0,0.0,0.0,0.0,-6.0676,-6.0676,-6.0676,-6.0717,-6.0772,-6.0786,-6.0833,-6.0961,-6.0973,-6.101,-6.1058,-6.0973,-6.0954,-6.0935,-6.0839,-6.08,-6.08,-6.08,-6.08,-6.08,-6.08,-6.08,0.0,-1.4906,-1.5362,-1.5951,-1.6295,-1.7468,-1.8416,-1.8615,-2.0613,-2.2376,-2.3116,-2.4807,-2.6823,-2.9147,-2.9527,-3.0214,-3.1663,-3.1303,-3.1473,0.0,0.0,-3.7689,-3.8822,-4.0921,-4.2314,-4.2797,-4.3444,-4.3918,-4.4199,-4.4229,-4.4229,-4.4199,-4.4085,-4.3945,-4.3753,-4.3583,-4.341,-4.325,-4.3142,-4.3086,-4.3049,-4.2775,-4.2103,-4.1089,-3.9532,-3.8427,-3.7611,-3.6651,-3.5828,-3.5057,-3.4255,-3.3463,-3.2527,-3.0863,0.0,0.0,0.0,0.0,0.0,0.0,0.0,0.0,0.0,0.0,0.0,0.0,0.0,0.0,0.0,0.0,0.0,0.0,0.0,0.0,-5.1372,-5.4104,-5.6454,-5.8154,-5.8369,-5.8574,-5.9038,-5.972,-6.0198,-6.037,-6.0403,-6.0403,-6.0403,-6.0403,-6.0676,-6.1325,-6.1363,0.0,-6.2395,-6.2414,-6.2414,-6.2414,-6.2414,-6.2414,-6.2429,0.0,0.0,-6.2563,-6.2669,-6.2714,-6.2708,-6.2115,-6.1851,-6.1793,-6.1089,-6.08,-6.08,-6.08,-6.08,-6.08,-6.08,-6.08,-6.08,-1.5932,-1.6375,-1.6874,-1.7274,-1.8047,-1.8704,-1.9008,-2.076,-2.217,-2.251,-2.4364,-2.6117,-2.7359,-2.789,-2.8635,-2.9842,-3.0683,0.0,0.0,-3.6283,-3.8451,-3.9695,-4.1702,-4.2983,-4.3392,-4.3782,-4.402,-4.4104,-4.4169,-4.4169,-4.4104,-4.4131,-4.4055,-4.3897,-4.383,-4.3697,-4.3494,-4.3392,-4.3269,-4.3142,-4.3031,-4.2758,-4.2268,-4.1035,-4.0057,-3.9242,-3.8514,-3.7766,-3.6994,-3.6279,-3.5901,-3.5368,-3.3375,-3.1676,-3.005,0.0,0.0,0.0,0.0,0.0,0.0,0.0,0.0,0.0,0.0,0.0,0.0,0.0,0.0,-4.3787,-4.7177,0.0,-5.227,-5.4352,-5.6473,-5.8135,-5.8994,-5.9491,-5.9759,-5.9759,-6.0122,-6.0403,-6.0403,-6.0403,-6.0403,-6.0403,-6.0771,-6.1172,-6.1573,-6.2013,-6.2452,-6.2892,-6.2911,-6.2911,-6.2911,-6.2911,-6.2911,-6.2911,-6.2921,-6.2978,-6.2987,-6.3069,-6.3136,-6.3182,-6.2816,-6.243,-6.2043,-6.1146,-6.08,-6.08,-6.08,-6.08,-6.08,-6.08,-6.08,-6.08,-1.7331,-1.7694,-1.7978,-1.8497,-1.8721,-1.9023,-1.9612,-2.0877,-2.1804,-2.1885,-2.3783,-2.5245,-2.5569,-2.6228,-2.7036,0.0,0.0,0.0,0.0,-3.6668,-3.8878,-4.0564,-4.2166,-4.3336,-4.3986,-4.4005,-4.4005,-4.4005,-4.4119,-4.4119,-4.4036,-4.4192,-4.4192,-4.4051,-4.4094,-4.3983,-4.3761,-4.3662,-4.3495,-4.3268,-4.3178,-4.3142,-4.3032,-4.2123,-4.127,-4.0454,-3.958,-3.8794,-3.8022,-3.7414,-3.7397,-3.7299,-3.5144,-3.4046,-3.3075,-3.0648,-2.9464,0.0,0.0,0.0,0.0,0.0,0.0,0.0,0.0,0.0,-4.2353,-4.4732,-4.6557,-4.8678,-5.1773,-5.3722,-5.5326,-5.6836,-5.8364,-5.9357,-5.9357,-5.995,-6.0403,-6.0403,-6.0403,-6.0403,-6.0403,-6.0403,-6.0403,-6.0403,-6.1153,-6.1669,-6.1841,-6.2682,-6.3216,-6.3388,-6.3388,-6.3388,-6.3388,-6.3388,-6.3388,-6.3388,-6.3388,-6.3418,-6.347,-6.3484,-6.3535,-6.3642,-6.3514,-6.2931,-6.2062,-6.1351,-6.0954,-6.08,-6.08,-6.08,-6.08,-6.08,-6.08,-6.08,-1.8823,-1.9265,-1.9169,-1.8614,-1.9149,-1.9675,-1.9706,-2.0399,-2.1172,-2.1829,-2.2767,-2.3951,-2.544,-2.569,-2.6357,-2.7875,0.0,0.0,-3.4049,-3.7198,-3.9714,-4.1386,-4.3002,-4.3912,-4.4005,-4.4005,-4.4005,-4.4005,-4.402,-4.407,-4.4184,-4.4199,-4.4244,-4.427,-4.414,-4.4075,-4.403,-4.3793,-4.3647,-4.3546,-4.3338,-4.3286,-4.3194,-4.2372,-4.1535,-4.0573,-3.9061,-3.8081,-3.7396,-3.6673,-3.7119,-3.7662,-3.5957,-3.5462,-3.5001,-3.252,-3.1723,-3.1688,-3.175,-3.4121,-3.6982,-3.8763,-4.049,-4.2191,0.0,0.0,-4.7444,-4.9232,-5.0932,-5.269,-5.4619,-5.6339,-5.7772,-5.867,-5.9625,-6.0236,-6.0236,-6.0346,-6.0403,-6.0403,-6.0403,-6.0403,-6.0403,-6.0403,-6.0403,-6.0403,-6.1153,-6.1936,-6.272,-6.3579,-6.4382,-6.5108,-6.5127,-6.5127,-6.5127,-6.5127,-6.5127,-6.5127,-6.5127,-6.5108,-6.5123,-6.5197,-6.5221,-6.5212,-6.4607,-6.3508,-6.2101,-6.1985,-6.1493,-6.08,-6.08,-6.08,-6.08,-6.08,-6.08,-6.08,-1.8419,-1.9096,-1.9385,-1.9077,-1.9419,-1.9713,-1.9658,-2.0277,-2.0822,-2.106,-2.2186,-2.3272,-2.4017,-2.4986,-2.6088,-2.7258,-2.9349,-3.1615,-3.4031,-3.684,-3.9361,-4.1497,-4.2686,-4.3522,-4.3986,-4.4005,-4.4005,-4.4005,-4.407,-4.4153,-4.4199,-4.427,-4.4358,-4.4416,-4.4393,-4.4378,-4.4321,-4.4091,-4.3905,-4.3765,-4.3563,-4.3218,-4.2737,-4.1977,-4.0922,-3.9709,-3.8872,-3.7793,0.0,0.0,-3.6935,-3.7194,-3.6152,-3.5874,-3.5636,-3.4153,-3.371,-3.4001,-3.5507,-3.8066,-4.0707,-4.2393,-4.4167,-4.5951,-4.7627,-4.9044,-5.0493,-5.2174,-5.3473,-5.483,-5.6549,-5.781,-5.888,0.0,-6.016,-6.0403,-6.0403,-6.0403,-6.0403,-6.0403,-6.0403,-6.0403,-6.0403,-6.0403,-6.0403,-6.0403,-6.1612,-6.2529,-6.2892,-6.4172,-6.505,-6.5394,-6.5394,-6.5394,-6.5394,-6.5394,-6.5394,-6.5394,-6.5394,-6.5394,-6.5394,-6.5425,-6.545,-6.547,-6.4786,-6.3828,-6.2713,-6.2269,-6.1601,-6.08,-6.08,-6.08,-6.08,-6.08,-6.08,-6.08,-1.821,-1.891,-1.9341,-1.9368,-1.9499,-1.9594,-1.9564,-2.0019,-2.0452,-2.0769,-2.1807,-2.2722,-2.3244,-2.4441,-2.5653,-2.6785,-2.8726,-3.1028,-3.3696,-3.6185,-3.8562,-4.081,-4.211,-4.3076,-4.3652,-4.3893,-4.402,-4.4055,-4.4135,-4.4214,-4.4259,-4.434,-4.444,-4.4542,-4.4551,-4.4556,-4.4487,-4.4273,-4.4064,-4.3862,-4.3457,-4.2998,-4.2432,-4.123,-3.9997,-3.877,-3.8062,-3.6939,0.0,0.0,-3.5681,-3.5892,-3.545,-3.5486,-3.5639,-3.5312,-3.585,-3.7095,-3.9626,-4.2018,-4.4175,-4.5862,-4.7472,-4.9092,-5.0767,-5.1745,-5.2709,-5.4161,-5.5135,-5.611,-5.7313,-5.8402,-5.9319,-5.9931,-6.0236,-6.0403,-6.0403,-6.0403,-6.0403,-6.0403,-6.0403,-6.0403,-6.0403,-6.0403,-6.0499,-6.0714,-6.2089,-6.3006,-6.3255,-6.463,-6.5394,-6.5394,-6.5394,-6.5394,-6.5394,-6.5394,-6.5394,-6.5394,-6.5394,-6.5394,-6.5394,-6.5394,-6.544,-6.547,-6.4994,-6.4314,-6.3489,-6.2726,-6.1904,-6.1127,-6.0877,-6.08,-6.08,-6.08,-6.08,-6.08,-1.8899,-1.914,-1.9235,-1.9282,-1.9316,-1.936,-1.9471,-1.9475,-1.9947,-2.1378,-2.1562,-2.219,-2.3883,-2.4172,-2.493,-2.6652,-2.7635,-2.9556,-3.2823,-3.5349,-3.7466,-3.9101,-4.1497,-4.2816,-4.2835,-4.3596,-4.407,-4.4184,-4.4199,-4.4274,-4.4397,-4.4397,-4.4468,-4.4592,-4.4542,-4.4501,-4.4487,-4.4214,-4.4017,-4.3807,-4.2897,-4.2599,-4.2434,-4.0137,-3.8835,-3.8004,-3.6218,0.0,0.0,-3.2568,-3.2737,-3.3595,-3.358,-3.4205,0.0,-3.5843,-3.8358,-4.146,-4.3938,-4.59,-4.7643,-4.9343,-5.0512,-5.1719,-5.3394,-5.3919,-5.4276,-5.5193,-5.5995,-5.6568,-5.6625,-5.7982,-5.9095,-5.9133,-5.9854,-6.0403,-6.0403,-6.0403,-6.0403,-6.0403,-6.0403,-6.0403,0.0,-6.0403,-6.0714,-6.1497,-6.2395,-6.3274,-6.4129,-6.4955,-6.5394,-6.5394,-6.5394,-6.5394,-6.5394,-6.5394,-6.5394,-6.5394,-6.5394,-6.5394,-6.5394,-6.5394,-6.544,-6.5494,-6.5489,-6.5082,-6.4392,-6.3508,-6.2732,-6.1985,-6.1127,-6.08,-6.08,-6.08,-6.08,-6.08,-1.825,-1.8754,-1.915,-1.9166,-1.9166,-1.919,-1.9227,-1.9224,-1.9542,-2.0535,-2.1586,0.0,0.0,0.0,0.0,0.0,-2.7241,-2.9026,-3.121,-3.3665,-3.5776,-3.7429,-3.9324,-4.0624,-4.1181,-4.2043,-4.25,-4.253,-4.2627,-4.2707,-4.2822,-4.3439,-4.3809,-4.3964,-4.4414,-4.4605,-4.45,-4.366,-4.3233,-4.3008,-4.2034,-4.1086,-4.0166,-3.9518,-3.7804,-3.56,0.0,0.0,0.0,-3.2439,-3.2718,-3.3505,-3.3554,0.0,0.0,-3.806,-4.0995,-4.3942,-4.5344,-4.7346,-4.9343,-5.0486,-5.1917,-5.3204,-5.3775,-5.3995,-5.418,-5.4486,-5.4753,-5.4944,-5.4944,-5.6301,-5.7638,-5.8211,-5.8994,-5.9739,-6.0313,-6.0403,-6.0403,-6.0403,-6.0403,0.0,0.0,0.0,0.0,-6.1535,-6.2414,-6.3274,-6.4148,-6.4955,-6.5394,-6.5394,-6.5394,-6.5394,-6.5394,-6.5394,-6.5394,-6.5394,-6.5394,-6.5394,-6.5394,-6.5394,-6.5409,-6.544,-6.5479,-6.5092,-6.4402,-6.4173,-6.3297,-6.2082,-6.1793,-6.13,-6.08,-6.08,-6.08,-6.08,-1.8334,-1.8758,-1.9101,-1.9101,-1.9084,0.0,0.0,0.0,0.0,0.0,0.0,0.0,0.0,0.0,0.0,0.0,0.0,-2.8005,-2.9986,-3.1898,-3.3699,-3.5374,-3.729,-3.8593,-3.9151,-4.0253,-4.084,-4.0882,-4.0985,-4.1246,-4.163,-4.2253,-4.2737,-4.3157,-4.3554,-4.3689,-4.3589,-4.27,-4.2072,-4.1604,-4.0633,-3.954,-3.846,-3.8059,-3.6484,0.0,0.0,0.0,-3.2842,-3.2042,-3.2345,-3.3176,-3.3828,-3.5645,0.0,-4.0506,-4.3417,-4.6051,-4.7207,-4.9349,-5.1395,-5.1945,-5.3214,-5.4251,-5.3971,-5.4001,-5.3932,-5.3339,-5.3206,-5.311,-5.2805,-5.4104,-5.5517,-5.6396,-5.7734,-5.8975,-5.9816,-6.0198,-6.0403,-6.0403,-6.0403,-6.0504,0.0,0.0,0.0,-6.1994,-6.2586,-6.3408,-6.4573,-6.5127,-6.5394,-6.5394,-6.5394,-6.5394,-6.5394,-6.5394,-6.5394,-6.5394,-6.5394,-6.5394,-6.5394,-6.5394,-6.5394,-6.5394,-6.5454,-6.5207,-6.4775,-6.4556,-6.3681,-6.2469,-6.2204,-6.1581,-6.08,-6.08,-6.08,-6.08,-1.9095,-1.9095,-1.9095,0.0,0.0,0.0,0.0,0.0,0.0,0.0,0.0,0.0,0.0,0.0,0.0,0.0,0.0,0.0,-2.9033,-3.0075,0.0,-3.2881,-3.5315,-3.6628,-3.6628,-3.8226,-3.9106,-3.9201,-3.9227,-3.9733,-4.0641,-4.0714,-4.1208,-4.203,-4.1883,-4.179,-4.1734,-4.1293,-4.059,-3.9693,-3.8687,-3.7943,-3.7251,-3.5816,0.0,0.0,0.0,0.0,-3.2202,-3.1365,-3.1761,-3.2921,-3.4658,-3.7478,0.0,-4.3152,-4.5615,-4.7889,-4.9627,-5.1888,-5.3764,-5.3821,-5.4468,-5.4884,-5.4071,-5.3906,-5.3454,-5.1868,-5.1429,-5.1104,-5.0321,-5.1505,-5.2919,-5.3874,-5.6167,-5.8135,-5.8994,-5.9854,-6.0422,0.0,0.0,0.0,0.0,0.0,0.0,-6.2911,0.0,-6.3675,-6.5318,-6.5394,-6.5394,-6.5394,-6.5394,-6.5394,-6.5394,-6.5394,-6.5394,-6.5394,-6.5394,-6.5394,-6.5394,-6.5394,-6.5394,-6.5394,-6.5394,-6.544,-6.5451,-6.4737,-6.398,-6.3194,-6.2449,-6.1627,-6.0858,-6.0819,-6.08,-6.08,0.0,0.0,0.0,0.0,0.0,0.0,0.0,0.0,0.0,0.0,0.0,0.0,0.0,0.0,0.0,0.0,0.0,0.0,-2.6515,-2.8043,0.0,0.0,0.0,-3.3164,-3.3164,-3.4846,-3.6033,-3.6637,-3.616,-3.6359,-3.7182,-3.7238,-3.7713,-3.852,-3.8982,-3.9464,-3.9906,-3.8898,-3.8312,-3.7897,0.0,-3.5243,-3.4535,0.0,0.0,0.0,0.0,0.0,-3.1431,-3.1891,-3.4283,-3.7473,-3.9735,-4.1916,-4.4004,-4.5899,-4.7776,-4.9779,-5.2096,-5.365,-5.475,-5.5394,-5.5341,-5.4889,-5.4071,-5.2552,-5.1142,-5.0722,-4.9117,-4.7933,-4.8361,-4.9328,0.0,-5.2785,-5.5269,0.0,-5.8899,-5.9854,0.0,-6.1211,0.0,-6.1631,-6.249,-6.2567,0.0,0.0,-6.3866,-6.4325,-6.5356,-6.5394,-6.5394,-6.5394,-6.5394,-6.5394,-6.5394,-6.5394,-6.5394,-6.5394,-6.5394,-6.5394,-6.5394,-6.5394,-6.5394,-6.5394,-6.5394,-6.544,-6.5475,-6.5293,-6.4803,-6.4084,-6.3265,-6.2456,-6.1697,-6.1031,-6.08,-6.08,0.0,0.0,0.0,0.0,0.0,0.0,0.0,0.0,0.0,0.0,0.0,0.0,0.0,0.0,0.0,0.0,0.0,0.0,0.0,-2.6655,-2.7409,-2.781,-2.9485,-3.0581,-3.0918,-3.2262,-3.3362,-3.4218,0.0,0.0,-3.4842,-3.4902,-3.5315,-3.608,-3.6391,-3.6715,-3.6959,-3.6173,0.0,0.0,0.0,0.0,0.0,0.0,0.0,0.0,0.0,0.0,-3.3535,-3.5173,-3.7781,-4.0767,-4.33,-4.5,-4.6366,-4.8055,0.0,-5.1964,-5.3745,-5.5091,-5.6053,-5.6197,-5.566,-5.4699,-5.3179,-5.1261,-4.9461,-4.8334,-4.6672,-4.5439,-4.5583,-4.6901,-4.8659,0.0,0.0,0.0,-5.8345,-5.9931,-6.1096,0.0,-6.1936,0.0,-6.3388,-6.3465,-6.3828,0.0,-6.4416,-6.4707,-6.591,-6.5967,-6.6139,-6.6483,-6.6159,-6.5796,-6.5394,-6.5394,-6.5394,-6.5394,-6.5394,-6.5394,-6.5394,-6.5394,-6.5394,-6.5394,0.0,-6.5425,-6.5469,-6.5479,-6.5073,-6.4337,-6.3521,-6.2727,-6.1957,-6.1096,-6.08,-6.08,0.0,0.0,0.0,0.0,0.0,0.0,0.0,0.0,0.0,-2.3786,-2.3783,-2.3711,-2.37,-2.3754,0.0,0.0,0.0,0.0,0.0,0.0,-2.6066,-2.6856,-2.7725,-2.856,-2.9359,-3.0244,-3.1167,-3.2138,0.0,0.0,0.0,0.0,0.0,0.0,0.0,0.0,0.0,0.0,0.0,0.0,0.0,0.0,0.0,0.0,0.0,0.0,0.0,-3.3972,-3.6899,-3.9226,-4.1239,-4.3183,-4.5687,-4.7168,-4.8308,-4.9885,-5.2028,-5.4097,-5.5007,-5.6315,-5.726,-5.6633,-5.5608,-5.4175,-5.1872,-4.9911,-4.7906,-4.5479,-4.4188,-4.3319,-4.2737,-4.4475,-4.6653,-4.8602,0.0,-5.5689,-5.7485,-5.9873,-6.1516,-6.1745,-6.2548,-6.3408,-6.4267,-6.4359,-6.4688,-6.5509,-6.4917,-6.5165,-6.6617,-6.6808,-6.7133,-6.7706,-6.6942,-6.6159,-6.5413,-6.5394,-6.5394,-6.5394,-6.5394,-6.5394,-6.5394,-6.5394,-6.5394,-6.5394,0.0,0.0,-6.5394,-6.545,-6.5078,-6.4398,-6.3641,-6.2862,-6.2049,-6.1245,-6.0896,-6.08,0.0,0.0,0.0,0.0,0.0,0.0,0.0,0.0,0.0,0.0,0.0,0.0,0.0,0.0,0.0,0.0,0.0,0.0,0.0,0.0,0.0,-2.5197,-2.6053,-2.6895,-2.7706,-2.8573,-2.9742,0.0,0.0,0.0,0.0,0.0,0.0,0.0,0.0,0.0,0.0,0.0,0.0,0.0,0.0,0.0,0.0,0.0,0.0,0.0,-3.14,-3.474,-3.8435,-3.9606,-4.2061,-4.4947,-4.6792,-4.8915,-5.0907,-5.1864,-5.343,-5.5199,-5.6706,-5.7334,-5.7524,-5.7405,-5.5236,-5.2647,-5.0843,-4.8117,0.0,-4.3615,-4.2011,-4.1103,-4.1628,-4.266,-4.4456,-4.7521,-5.0971,-5.4085,-5.6492,-5.8994,-6.1115,0.0,-6.3446,-6.4286,-6.5108,-6.5184,0.0,0.0,0.0,-6.6388,-6.6693,-6.7324,-6.7458,-6.6923,-6.6063,-6.5547,-6.5394,-6.5394,-6.5394,-6.5394,-6.5394,-6.5394,-6.5394,-6.5394,-6.5394,-6.5394,0.0,0.0,-6.5394,-6.5409,-6.5378,-6.5207,-6.4412,-6.3652,-6.2894,-6.21,-6.1368,-6.08,0.0,0.0,0.0,0.0,0.0,0.0,0.0,0.0,0.0,0.0,0.0,0.0,0.0,0.0,0.0,0.0,0.0,0.0,0.0,0.0,0.0,0.0,0.0,-2.6065,-2.7311,-2.7807,0.0,0.0,0.0,0.0,0.0,0.0,0.0,0.0,0.0,0.0,0.0,0.0,0.0,0.0,0.0,0.0,0.0,0.0,0.0,0.0,0.0,-3.4079,-3.7011,-3.882,-4.1108,-4.3743,-4.6721,-4.9091,-5.1015,-5.2272,-5.3807,-5.5474,-5.7149,-5.7606,-5.7511,-5.7116,-5.4857,-5.2044,-4.9525,0.0,0.0,-4.1839,-4.0138,-3.9202,-4.0043,-4.1628,-4.3615,-4.6099,-5.0034,-5.3531,-5.567,-5.888,-6.1497,-6.2758,-6.4038,-6.4974,0.0,-6.5815,0.0,0.0,0.0,-6.7993,-6.7993,-6.8375,-6.7993,-6.6751,-6.6292,-6.5853,-6.5394,-6.5394,-6.5394,-6.5394,-6.5394,-6.5394,-6.5394,-6.5394,-6.5394,-6.5394,-6.5394,0.0,-6.5394,-6.5394,-6.5425,-6.5359,-6.4599,-6.3841,-6.3053,-6.2286,-6.149,-6.08,0.0,0.0,0.0,0.0,0.0,0.0,0.0,0.0,0.0,0.0,0.0,0.0,0.0,0.0,0.0,0.0,0.0,0.0,0.0,0.0,0.0,0.0,0.0,0.0,0.0,0.0,0.0,0.0,0.0,0.0,0.0,0.0,0.0,0.0,0.0,0.0,0.0,0.0,0.0,0.0,0.0,0.0,0.0,0.0,0.0,0.0,0.0,-3.3558,-3.5485,-3.7633,-3.9509,-4.16,-4.5243,-4.7892,-5.0028,-5.1687,-5.3479,-5.5197,-5.6716,-5.7249,-5.7211,-5.6461,-5.4211,-5.1363,-4.8235,-4.4934,-4.1991,-4.0138,-3.8514,-3.7655,-3.8343,-4.0387,-4.2603,-4.4456,-4.8678,-5.2461,-5.4562,-5.8288,-6.1268,0.0,-6.4114,0.0,-6.5593,-6.6261,0.0,0.0,0.0,0.0,-6.9196,-6.8852,-6.8069,-6.6751,-6.6522,-6.6101,-6.5413,-6.5394,-6.5394,-6.5394,-6.5394,-6.5394,-6.5394,-6.5394,-6.5394,-6.5394,-6.5394,0.0,0.0,-6.5394,-6.5394,-6.5337,-6.4747,-6.3939,-6.3006,-6.2439,-6.1632,-6.0788,0.0,0.0,0.0,0.0,0.0,0.0,0.0,0.0,0.0,0.0,0.0,0.0,0.0,0.0,0.0,0.0,0.0,0.0,0.0,0.0,0.0,0.0,0.0,0.0,0.0,0.0,0.0,0.0,0.0,0.0,0.0,0.0,0.0,0.0,0.0,0.0,0.0,0.0,0.0,0.0,0.0,0.0,0.0,0.0,0.0,0.0,0.0,0.0,-3.6052,-3.6416,-3.7746,-3.9565,-4.1476,-4.4809,-4.835,-5.0023,0.0,0.0,-5.5339,-5.6141,-5.6498,-5.5695,-5.2983,-4.9832,-4.7226,0.0,-4.0922,-3.8457,-3.7234,-3.6634,-3.671,-3.8171,-4.0157,-4.2622,-4.5965,-4.9385,-5.2594,-5.6033,-5.9109,-6.144,0.0,0.0,-6.6259,0.0,0.0,0.0,0.0,0.0,0.0,-6.7763,-6.6865,-6.6713,-6.5929,-6.5471,-6.5394,-6.5394,-6.5394,-6.5394,-6.5394,-6.5394,-6.5394,-6.5394,-6.5394,-6.5394,0.0,0.0,0.0,-6.5394,-6.5394,-6.5394,-6.5318,-6.4364,-6.3015,-6.2993,-6.2036,-6.071,0.0,0.0,0.0,0.0,0.0,0.0,0.0,0.0,0.0,0.0,0.0,0.0,0.0,0.0,0.0,0.0,0.0,0.0,0.0,0.0,0.0,0.0,0.0,0.0,0.0,0.0,0.0,0.0,0.0,0.0,0.0,0.0,0.0,0.0,0.0,0.0,0.0,0.0,0.0,0.0,0.0,0.0,0.0,0.0,0.0,0.0,0.0,0.0,0.0,-3.5894,-3.6831,-3.778,-3.947,-4.1514,-4.4006,-4.7712,-5.0225,-5.2231,-5.4104,-5.4849,-5.5021,-5.4696,-5.2442,-4.9519,-4.6462,-4.3176,-4.0196,-3.8132,-3.6642,-3.587,-3.6405,-3.7875,-3.9661,-4.1686,-4.5277,-4.8621,-5.0971,-5.4658,-5.7867,-5.9854,-6.2027,0.0,0.0,0.0,0.0,0.0,0.0,0.0,0.0,-6.7025,-6.6464,-6.5929,-6.5585,-6.5394,-6.5394,-6.5394,-6.5394,-6.5394,-6.5394,-6.5394,-6.5394,-6.5394,-6.5394,-6.5394,0.0,0.0,0.0,-6.5394,-6.5394,-6.5394,-6.5394,-6.4407,-6.3001,-6.3015,-6.2055,-6.0697,0.0,0.0,0.0,0.0,0.0,0.0,0.0,0.0,0.0,0.0,0.0,0.0,0.0,0.0,0.0,0.0,0.0,0.0,0.0,0.0,0.0,0.0,0.0,0.0,0.0,0.0,0.0,0.0,0.0,0.0,0.0,0.0,0.0,0.0,0.0,0.0,0.0,0.0,0.0,0.0,0.0,0.0,0.0,0.0,0.0,0.0,0.0,0.0,0.0,0.0,0.0,-3.6042,-3.7731,-3.8677,-4.0167,-4.5191,-4.7857,-4.9691,-5.1983,-5.2785,-5.2919,-5.2671,-5.0882,-4.8426,-4.5543,-4.2287,-3.9442,-3.7973,-3.6332,-3.5359,-3.6006,-3.7484,-3.9165,-4.0864,-4.4475,-4.7731,-4.9648,-5.3334,-5.6528,0.0,0.0,0.0,0.0,0.0,0.0,0.0,0.0,0.0,0.0,-6.6199,-6.6013,-6.5413,-6.5394,-6.5394,-6.5394,-6.5394,-6.5394,-6.5394,-6.5394,-6.5394,-6.5394,-6.5394,-6.5394,-6.5394,0.0,0.0,0.0,-6.5394,-6.5394,-6.5394,-6.5394,-6.4545,-6.3322,-6.3102,-6.2155,-6.0962,0.0,0.0,0.0,0.0,0.0,0.0,0.0,0.0,0.0,0.0,0.0,0.0,0.0,0.0,0.0,0.0,0.0,0.0,0.0,0.0,0.0,0.0,0.0,0.0,0.0,0.0,0.0,-3.0797,0.0,0.0,0.0,0.0,0.0,0.0,0.0,0.0,0.0,0.0,0.0,0.0,0.0,0.0,0.0,0.0,0.0,0.0,0.0,0.0,0.0,0.0,0.0,0.0,0.0,-3.6538,-3.7531,-4.2555,-4.5229,-4.692,-4.8678,-4.9729,-5.0149,-4.9358,-4.7842,-4.6091,-4.4325,-4.1272,-3.8585,-3.7776,-3.6272,-3.5129,-3.5191,-3.6582,-3.8278,-4.0034,-4.3138,-4.6192,-4.8662,-5.1923,-5.4928,0.0,0.0,0.0,0.0,0.0,0.0,0.0,0.0,0.0,0.0,-6.5213,-6.534,-6.5394,-6.5394,-6.5394,-6.5394,-6.5394,-6.5394,-6.5394,-6.5394,-6.5394,-6.5394,-6.5394,-6.5394,0.0,0.0,0.0,0.0,-6.5394,-6.5394,-6.5394,-6.5394,-6.4898,-6.4091,-6.3284,-6.2432,-6.159,0.0,0.0,0.0,0.0,0.0,0.0,0.0,0.0,0.0,0.0,0.0,0.0,0.0,0.0,0.0,0.0,0.0,0.0,0.0,0.0,0.0,0.0,0.0,0.0,0.0,0.0,0.0,-3.23,-3.3708,-3.4611,0.0,0.0,0.0,0.0,0.0,0.0,0.0,0.0,0.0,0.0,0.0,0.0,0.0,0.0,0.0,0.0,0.0,0.0,0.0,0.0,0.0,0.0,0.0,0.0,0.0,-3.9069,-4.1724,-4.4331,-4.5998,-4.7067,-4.7629,-4.7327,-4.639,-4.509,-4.3352,-4.075,-3.8476,-3.7571,-3.6064,-3.5088,-3.5752,-3.6796,-3.8318,-4.0604,-4.3329,-4.6012,-4.8441,0.0,0.0,-5.6288,-5.9479,0.0,0.0,0.0,0.0,0.0,0.0,0.0,0.0,-6.4991,-6.5191,-6.5394,-6.5394,-6.5394,-6.5394,-6.5394,-6.5394,-6.5394,-6.5394,-6.5394,-6.5394,-6.5394,0.0,0.0,0.0,0.0,0.0,-6.5274,-6.5258,-6.5258,-6.5258,-6.4727,-6.3889,-6.3043,-6.2216,-6.1454,0.0,0.0,0.0,0.0,0.0,0.0,0.0,0.0,0.0,0.0,0.0,0.0,0.0,0.0,0.0,0.0,0.0,0.0,0.0,0.0,0.0,0.0,0.0,0.0,0.0,-3.081,-3.2317,-3.3418,-3.4698,-3.5721,-3.6399,-3.5239,0.0,0.0,0.0,0.0,0.0,0.0,0.0,0.0,0.0,0.0,-3.2577,0.0,0.0,0.0,0.0,0.0,0.0,0.0,0.0,0.0,0.0,0.0,0.0,0.0,-3.8486,-4.0807,-4.278,-4.3715,-4.4105,-4.4032,-4.3371,-4.2425,-4.1285,-3.9275,-3.7459,-3.6834,-3.5859,-3.5334,-3.5983,-3.732,-3.8974,-4.0908,-4.3593,-4.6164,0.0,0.0,0.0,-5.7182,0.0,0.0,0.0,0.0,0.0,0.0,0.0,0.0,0.0,0.0,-6.4919,-6.5191,-6.5271,-6.5321,-6.5321,-6.5352,-6.5368,-6.5368,-6.5398,-6.5394,-6.5394,-6.5364,0.0,0.0,0.0,0.0,0.0,-6.5061,-6.5008,-6.501,-6.4957,-6.4598,-6.3991,-6.2867,-6.2173,-6.1663,0.0,0.0,0.0,0.0,0.0,0.0,0.0,0.0,0.0,0.0,0.0,0.0,0.0,0.0,0.0,0.0,0.0,0.0,0.0,0.0,0.0,0.0,0.0,0.0,0.0,-3.1167,-3.2428,-3.416,-3.4842,-3.5639,-3.654,-3.6215,-3.526,-3.3709,0.0,0.0,0.0,0.0,0.0,0.0,-3.0552,-3.1182,0.0,0.0,0.0,0.0,0.0,0.0,0.0,0.0,0.0,0.0,0.0,0.0,0.0,0.0,0.0,0.0,0.0,-3.9862,-3.9976,-3.9907,-3.9286,-3.8664,-3.8521,-3.7136,0.0,-3.5705,-3.5659,-3.5719,-3.5919,-3.7981,-4.0002,-4.1056,-4.3882,0.0,0.0,-5.1147,0.0,0.0,0.0,0.0,0.0,0.0,0.0,0.0,0.0,0.0,0.0,0.0,-6.4558,-6.4817,-6.501,-6.513,-6.5163,-6.5245,-6.5293,-6.5293,-6.5352,-6.5398,-6.5379,-6.5305,0.0,0.0,0.0,0.0,0.0,-6.4724,-6.4651,-6.4633,-6.4521,-6.4464,-6.4275,-6.2726,-6.2192,-6.2033,0.0,0.0,0.0,0.0,0.0,0.0,0.0,0.0,0.0,0.0,0.0,0.0,0.0,0.0,0.0,0.0,0.0,0.0,0.0,0.0,0.0,0.0,0.0,0.0,0.0,-3.1048,-3.2537,-3.4798,-3.5504,-3.6878,-3.8809,-3.746,-3.6633,-3.6163,-3.4113,0.0,0.0,0.0,0.0,0.0,-3.1182,-3.1372,0.0,0.0,0.0,0.0,-3.1205,-3.1814,0.0,0.0,0.0,0.0,0.0,0.0,0.0,0.0,-3.3382,-3.3762,-3.4904,0.0,-3.8038,-3.7974,-3.781,-3.7605,0.0,-3.6454,-3.5564,-3.5416,-3.5314,-3.5499,-3.629,-3.7968,-3.9968,-4.2192,0.0,0.0,-4.9195,0.0,0.0,-5.9187,0.0,0.0,0.0,0.0,0.0,0.0,0.0,0.0,0.0,0.0,-6.3944,-6.4126,-6.4169,-6.4444,-6.4977,-6.5044,-6.5076,-6.5076,-6.5194,-6.5245,-6.5245,-6.5109,0.0,0.0,0.0,0.0,-6.4521,-6.4326,-6.4167,-6.4087,-6.4046,-6.4046,-6.384,-6.2193,-6.1653,-6.1544,0.0,0.0,0.0,0.0,0.0,0.0,0.0,0.0,0.0,0.0,0.0,0.0,0.0,0.0,0.0,0.0,0.0,0.0,0.0,0.0,0.0,0.0,0.0,0.0,0.0,-3.1157,-3.2708,-3.5498,-3.5835,-3.7221,-3.9537,-3.8251,-3.7453,-3.6962,-3.3872,0.0,0.0,0.0,0.0,0.0,-3.1146,0.0,0.0,0.0,0.0,0.0,-3.0467,-3.0905,0.0,-3.1482,-3.1787,-3.2145,0.0,0.0,0.0,0.0,-3.258,-3.3097,-3.307,-3.4339,-3.5864,-3.6505,-3.664,-3.6656,-3.6789,-3.636,-3.5871,-3.5699,-3.5909,-3.6405,-3.7344,-3.9206,-4.1329,-4.3512,-4.55,0.0,0.0,0.0,-5.6937,0.0,0.0,0.0,0.0,0.0,0.0,0.0,0.0,0.0,0.0,0.0,-6.3613,-6.3764,-6.3764,-6.4021,-6.452,-6.4596,-6.467,-6.4725,-6.4833,-6.4886,-6.4868,-6.4779,0.0,0.0,0.0,0.0,-6.4067,-6.3873,-6.3742,-6.3658,-6.3591,-6.3349,-6.2866,-6.1664,-6.1041,-6.0662,0.0,0.0,0.0,0.0,0.0,0.0,0.0,0.0,0.0,0.0,0.0,0.0,0.0,0.0,0.0,0.0,0.0,0.0,0.0,0.0,0.0,0.0,0.0,-2.9053,-3.1335,-3.1437,-3.2976,-3.6069,-3.6191,-3.7366,-3.9489,-3.8799,-3.7942,-3.6773,-3.3004,0.0,0.0,0.0,0.0,0.0,-3.098,0.0,0.0,0.0,0.0,0.0,0.0,0.0,0.0,-3.0133,-3.0682,-3.1293,-3.1293,0.0,0.0,0.0,0.0,0.0,-3.2477,-3.3034,-3.4177,-3.5652,-3.5964,-3.6041,-3.6604,-3.6537,-3.6297,-3.6117,-3.6787,-3.7677,-3.8413,-4.0818,-4.3198,0.0,0.0,0.0,-5.3814,-5.5486,0.0,0.0,0.0,0.0,0.0,0.0,0.0,0.0,0.0,0.0,0.0,0.0,0.0,-6.3488,-6.3488,-6.3628,-6.3915,-6.4046,-6.4169,-6.4288,-6.4367,-6.4407,-6.4407,-6.4327,-6.4228,0.0,0.0,0.0,-6.3595,-6.3428,-6.3238,-6.3104,-6.3005,-6.2464,-6.1675,-6.0991,-6.0344,-5.9751,0.0,0.0,0.0,0.0,0.0,0.0,0.0,0.0,0.0,0.0,0.0,0.0,0.0,0.0,0.0,0.0,0.0,0.0,0.0,0.0,0.0,0.0,-2.8822,-2.9605,-3.1278,-3.1913,-3.3449,-3.5924,-3.7225,-3.8405,-3.9489,-3.9362,-3.8227,-3.612,-3.2837,-3.1757,-3.2349,0.0,0.0,-3.2509,0.0,0.0,0.0,0.0,0.0,0.0,0.0,0.0,0.0,-2.9935,-3.0287,-3.0395,-3.0395,0.0,0.0,0.0,0.0,0.0,-3.2175,-3.332,-3.4731,-3.6217,-3.6483,-3.6576,-3.721,-3.6721,-3.6102,-3.5954,-3.7057,-3.8112,-3.8303,-4.1466,-4.4345,-4.5331,0.0,-5.264,0.0,0.0,0.0,0.0,0.0,0.0,0.0,0.0,0.0,0.0,0.0,0.0,0.0,0.0,0.0,-6.2904,-6.2904,-6.3002,-6.3152,-6.3572,-6.3792,-6.3814,-6.3942,-6.3984,-6.3984,-6.3857,-6.3792,0.0,0.0,-6.3405,-6.3284,-6.3123,-6.2597,-6.1875,-6.1851,-6.1354,-6.0564,-5.9774,-5.9481,-5.9401,0.0,0.0,0.0,0.0,0.0,0.0,0.0,0.0,0.0,0.0,0.0,0.0,0.0,0.0,0.0,0.0,0.0,0.0,0.0,0.0,0.0,0.0,-2.9647,-3.0375,-3.1924,-3.2666,-3.42,-3.6562,-3.7693,-3.8673,-3.9471,-3.868,-3.757,-3.6094,-3.3298,-3.2504,-3.3201,-3.2394,-3.2504,-3.3146,0.0,0.0,0.0,0.0,0.0,0.0,0.0,0.0,0.0,0.0,-2.9803,-3.0211,-3.0211,0.0,0.0,0.0,0.0,0.0,-3.2137,-3.3907,-3.6025,-3.7438,-3.7733,-3.7978,-3.9048,-3.9252,-3.921,-3.9057,-3.993,-4.0872,-4.1343,-4.3665,-4.6313,-4.8914,0.0,-5.4689,0.0,0.0,0.0,0.0,0.0,0.0,0.0,0.0,0.0,0.0,0.0,0.0,0.0,0.0,0.0,0.0,-6.278,-6.283,-6.288,-6.3104,-6.3294,-6.3432,-6.3478,-6.3523,-6.3523,-6.3455,-6.3387,-6.328,0.0,-6.2454,-6.2297,-6.1807,-6.133,-6.0951,-6.0951,-6.0456,-5.9643,-5.8859,-5.8635,-5.8717,0.0,0.0,0.0,0.0,0.0,0.0,0.0,0.0,0.0,0.0,0.0,0.0,0.0,0.0,0.0,0.0,0.0,0.0,0.0,0.0,-2.9354,-3.0173,-3.0375,-3.12,-3.2752,-3.3533,-3.5049,-3.7394,-3.8211,-3.8829,-3.923,-3.7752,-3.667,-3.5899,-3.361,-3.3041,-3.3752,-3.2931,-3.2949,-3.3385,0.0,0.0,0.0,0.0,0.0,0.0,0.0,0.0,0.0,0.0,0.0,0.0,0.0,0.0,0.0,-3.0117,-3.1094,-3.217,-3.2117,-3.4199,-3.6785,-3.8313,-3.8796,-3.9342,-4.0972,-4.1759,-4.2159,-4.223,-4.29,-4.3643,-4.4258,-4.5997,0.0,-5.2444,-5.4707,0.0,0.0,0.0,0.0,0.0,0.0,0.0,0.0,0.0,0.0,0.0,0.0,0.0,0.0,0.0,0.0,0.0,-6.278,-6.2713,-6.253,-6.253,-6.272,-6.3117,-6.3117,-6.3117,-6.3099,-6.2915,-6.2774,-6.2622,-6.1813,-6.1415,-6.1263,-6.0658,-6.0291,-6.0126,-6.0126,-5.963,-5.8859,-5.8235,-5.8065,-5.8152,0.0,0.0,0.0,0.0,0.0,0.0,0.0,0.0,0.0,0.0,0.0,0.0,0.0,0.0,0.0,0.0,0.0,0.0,0.0,0.0,-2.9354,-3.0173,-3.0907,-3.2038,-3.357,-3.4398,-3.5962,-3.831,-3.9112,-3.9183,-3.8535,-3.7051,-3.5903,-3.5023,-3.3353,-3.3041,-3.3752,-3.2931,-3.2619,-3.2601,-3.1751,0.0,0.0,0.0,0.0,0.0,0.0,0.0,0.0,0.0,0.0,0.0,0.0,0.0,-3.0197,-3.0117,-3.0657,-3.1412,-3.1938,-3.3807,-3.6072,-3.8092,-3.9061,-4.0133,-4.2396,-4.2885,-4.3046,-4.3769,-4.4566,-4.5146,-4.52,-4.7735,-5.0904,-5.42,-5.5432,0.0,0.0,0.0,0.0,0.0,0.0,0.0,0.0,0.0,0.0,0.0,0.0,0.0,0.0,0.0,0.0,0.0,0.0,-6.2456,-6.1686,-6.1686,-6.2071,-6.2848,-6.2848,-6.2848,-6.2812,-6.2059,-6.171,-6.1673,-6.0865,-6.0493,-6.0493,-6.0419,-5.996,-5.9276,-5.9276,-5.8804,-5.807,-5.8015,-5.7997,-5.802,0.0,0.0,0.0,0.0,0.0,0.0,0.0,0.0,0.0,0.0,0.0,0.0,0.0,0.0,0.0,0.0,0.0,0.0,0.0,0.0,-2.8833,-3.0136,-3.0485,-3.1629,-3.3711,-3.4993,-3.6544,-3.8399,-3.8757,-3.8823,-3.859,-3.7041,-3.5844,-3.4949,-3.383,-3.3532,-3.377,-3.3476,-3.3073,-3.2528,-3.1715,-3.0956,0.0,0.0,0.0,0.0,0.0,0.0,0.0,0.0,-2.8457,-2.9043,-2.993,-3.0211,-3.0285,-3.0719,-3.139,-3.2237,-3.3287,-3.4885,-3.674,-3.8784,-4.0201,-4.1685,-4.3956,-4.5202,-4.6269,-4.7554,-4.8082,-4.8442,-4.8931,0.0,-5.2896,-5.4617,0.0,0.0,0.0,0.0,0.0,0.0,0.0,0.0,0.0,0.0,0.0,0.0,0.0,0.0,0.0,0.0,0.0,0.0,0.0,-6.1172,-6.086,-6.086,-6.1006,-6.1318,-6.1318,-6.1318,-6.13,-6.0988,-6.086,-6.0805,-6.0015,-5.9643,-5.9606,-5.9116,-5.8731,-5.8455,-5.8455,-5.8272,-5.7997,-5.7997,-5.7997,-5.7997,0.0,0.0,0.0,0.0,0.0,0.0,0.0,0.0,0.0,0.0,0.0,0.0,0.0,0.0,0.0,0.0,0.0,0.0,0.0,-2.72,-2.8393,-2.9769,-3.0063,-3.1219,-3.3366,-3.4706,-3.6274,-3.8112,-3.8159,-3.7949,-3.7499,-3.6413,-3.544,-3.4601,-3.4045,-3.3807,-3.3807,-3.3807,-3.3183,-3.2173,-3.1623,-3.0797,0.0,0.0,0.0,0.0,0.0,0.0,0.0,0.0,-2.7716,-2.862,-2.9508,-3.0152,-3.0672,-3.1126,-3.184,-3.274,-3.4056,-3.5473,-3.716,-3.9459,-4.1574,-4.365,-4.5908,-4.7482,-4.8912,-5.0524,-5.085,-5.1013,-5.1574,-5.2788,0.0,0.0,0.0,0.0,0.0,0.0,0.0,0.0,0.0,0.0,0.0,0.0,0.0,0.0,0.0,0.0,0.0,0.0,0.0,0.0,0.0,-6.0243,-6.0034,-6.0034,-5.9905,-5.9648,-5.9648,-5.9924,-6.0401,-6.0144,-6.0034,-5.9997,-5.9189,-5.8822,-5.8786,-5.8235,-5.7997,-5.7997,-5.7997,-5.7997,-5.7997,-5.7997,-5.7997,-5.7997,0.0,0.0,0.0,0.0,0.0,0.0,0.0,0.0,0.0,0.0,0.0,0.0,0.0,0.0,0.0,0.0,0.0,0.0,0.0,-2.6898,-2.8136,-2.895,-2.9739,-3.0925,-3.2546,-3.3366,-3.5,-3.7492,-3.7492,-3.6633,-3.5004,-3.5004,-3.4564,-3.3807,-3.3807,-3.3807,-3.3788,-3.3788,-3.2852,-3.1397,-3.1397,-3.043,-2.9005,0.0,0.0,0.0,0.0,0.0,0.0,0.0,-2.6721,-2.7647,-2.8601,-3.004,-3.136,-3.1249,-3.1798,-3.2694,-3.3903,-3.531,-3.7145,-4.0092,-4.3141,-4.6043,-4.8369,-4.9546,-5.0583,-5.219,-5.2516,-5.2516,-5.2516,-5.3186,0.0,0.0,0.0,0.0,0.0,0.0,0.0,0.0,0.0,0.0,0.0,0.0,0.0,0.0,0.0,0.0,0.0,0.0,0.0,0.0,0.0,0.0,-5.9184,-5.9184,-5.8804,-5.7997,-5.7997,-5.8822,-6.0346,-5.9533,-5.9184,-5.9129,-5.8345,-5.7997,-5.7997,-5.7997,-5.7997,-5.7997,-5.7997,-5.7997,-5.7997,-5.7997,-5.7997,-5.7997,0.0,0.0,0.0,0.0,0.0,0.0,0.0,0.0,0.0,0.0,0.0,0.0,0.0,0.0,0.0,0.0,0.0,0.0,0.0,-2.5852,-2.6715,-2.8099,-2.8374,-2.9274,-3.0889,-3.2252,-3.4174,-3.6666,-3.6666,-3.6083,-3.5004,-3.5004,-3.4564,-3.3807,-3.3807,-3.3495,-3.2949,-3.2949,-3.2027,-3.0558,-3.0558,-2.9934,-2.9005,0.0,0.0,0.0,0.0,0.0,0.0,0.0,0.0,0.0,-2.8329,-2.9584,-3.0677,-3.1686,-3.2912,-3.4333,-3.6179,-3.7747,-3.9417,-4.1812,-4.4339,-4.686,-4.9206,-5.0796,-5.2226,-5.3856,-5.4599,-5.4798,-5.4291,-5.4816,0.0,0.0,0.0,0.0,0.0,0.0,0.0,0.0,0.0,0.0,0.0,0.0,0.0,0.0,0.0,0.0,0.0,0.0,0.0,0.0,0.0,0.0,-5.8364,-5.8364,-5.8235,-5.7997,-5.7997,-5.8253,-5.8694,-5.8455,-5.8364,-5.8345,-5.8107,-5.7997,-5.7997,-5.7997,-5.7997,-5.7997,-5.7997,-5.7997,-5.7997,-5.7997,-5.7997,-5.7997,0.0,0.0,0.0,0.0,0.0,0.0,0.0,0.0,0.0,0.0,-2.4084,-2.4141,0.0,0.0,0.0,0.0,0.0,0.0,0.0,0.0,-2.63,-2.7273,-2.7934,-2.8888,-3.0173,-3.1152,-3.254,-3.4353,-3.4981,-3.4871,-3.405,-3.4362,-3.4266,-3.3788,-3.3476,-3.3041,-3.2583,-3.2265,-3.1384,-3.021,-3.021,-2.9721,-2.9005,0.0,0.0,0.0,0.0,0.0,0.0,0.0,0.0,0.0,-2.8324,-2.9509,-3.0734,-3.191,-3.334,-3.5015,-3.7059,-3.8931,-4.0886,-4.3359,-4.5769,-4.8306,-5.1325,-5.2969,-5.4255,-5.5558,-5.5903,-5.5848,-5.5414,-5.5703,0.0,0.0,0.0,0.0,0.0,0.0,0.0,0.0,0.0,0.0,0.0,0.0,0.0,0.0,0.0,0.0,0.0,0.0,0.0,0.0,0.0,0.0,-5.7927,-5.7973,-5.7997,-5.7997,-5.7997,-5.7997,-5.7997,-5.7997,-5.7997,-5.7997,-5.7997,-5.7997,-5.7997,-5.7997,-5.7997,-5.7997,-5.7997,-5.7997,-5.7997,-5.7997,-5.7997,-5.7997,0.0,0.0,-2.2624,-2.3424,0.0,0.0,0.0,0.0,0.0,-2.3876,-2.3927,-2.3996,0.0,0.0,0.0,-2.418,0.0,0.0,0.0,0.0,-2.6521,-2.6602,-2.8143,-2.9335,-3.0081,-3.0173,-3.0522,-3.1182,-3.2871,-3.333,-3.2619,-3.3421,-3.3807,-3.3752,-3.2949,-3.2564,-3.2417,-3.1549,-3.076,-3.0081,-3.0008,-2.9537,-2.8895,-2.8895,0.0,0.0,0.0,0.0,0.0,0.0,0.0,0.0,-2.8344,-2.9571,-3.1108,-3.1835,-3.3254,-3.5018,-3.7034,-3.931,-4.1775,-4.4698,-4.7337,-5.0212,-5.4037,-5.5468,-5.6228,-5.7025,-5.6609,-5.6102,-5.6102,-5.6102,0.0,0.0,0.0,0.0,0.0,0.0,0.0,0.0,0.0,0.0,0.0,0.0,0.0,0.0,0.0,0.0,0.0,0.0,0.0,0.0,0.0,0.0,-5.7792,-5.7927,-5.7997,0.0,-5.7997,-5.7997,-5.7997,-5.7997,-5.7997,-5.7997,-5.7997,-5.7997,-5.7997,-5.7997,-5.7997,-5.7997,-5.7997,-5.7997,-5.7997,-5.7997,-5.7997,-5.7997,0.0,0.0,-2.3005,-2.3242,0.0,0.0,0.0,0.0,-2.3616,-2.3743,-2.3761,-2.3806,-2.3927,-2.3996,0.0,-2.4132,-2.417,0.0,0.0,0.0,-2.5944,-2.6565,-2.8143,-2.9078,-2.9244,-2.9879,-2.9989,-2.9519,-3.1757,-3.2766,-3.2619,-3.3421,-3.3807,-3.3752,-3.2949,-3.2247,-3.1549,-3.0136,-2.9427,-2.9207,-2.8576,-2.8209,-2.8062,-2.8062,-2.7174,0.0,0.0,0.0,0.0,0.0,0.0,0.0,-2.7431,-2.8603,-3.0058,-3.0735,-3.2883,-3.552,-3.7704,-4.0405,-4.3195,-4.5657,-4.9003,-5.2281,-5.4418,-5.5468,-5.6228,-5.7025,-5.7062,-5.6935,-5.6935,0.0,0.0,0.0,0.0,0.0,0.0,0.0,0.0,0.0,0.0,0.0,0.0,0.0,0.0,0.0,0.0,0.0,0.0,0.0,0.0,0.0,0.0,-5.7673,-5.7792,-5.7927,-5.7997,0.0,-5.7997,-5.7997,-5.7997,-5.7997,-5.7997,-5.7997,-5.7997,-5.7997,-5.7997,-5.7997,-5.7997,-5.7997,-5.7997,-5.7997,-5.7997,-5.7997,-5.7997,-5.7997,0.0,0.0,0.0,0.0,0.0,0.0,0.0,0.0,-2.34,-2.3544,-2.3582,-2.3671,-2.3789,-2.3834,0.0,0.0,-2.4103,-2.417,0.0,0.0,0.0,0.0,-2.8345,-2.9005,-2.9005,-2.9409,-2.9397,-2.894,-3.0986,-3.1988,-3.2045,-3.3238,-3.3807,-3.3752,-3.2559,-3.1788,-3.1268,-2.9274,-2.8429,-2.8356,-2.7548,-2.7236,-2.7236,-2.7236,-2.6704,-2.6025,-2.6447,0.0,0.0,0.0,0.0,0.0,0.0,0.0,-2.9032,-2.9752,-3.1635,-3.4044,-3.6655,-3.9641,-4.2905,-4.6706,-5.009,-5.2824,-5.4055,-5.4925,-5.5595,-5.6011,-5.6681,-5.7188,0.0,0.0,0.0,0.0,0.0,0.0,0.0,0.0,0.0,0.0,0.0,0.0,0.0,0.0,0.0,0.0,0.0,0.0,0.0,0.0,0.0,0.0,-5.7437,-5.7577,-5.7697,-5.7857,-5.795,-5.7997,-5.7997,-5.7997,-5.7997,-5.7997,-5.7997,-5.7997,-5.7997,-5.7997,-5.7997,-5.7997,-5.7997,-5.7997,-5.7997,-5.7997,-5.7997,-5.7997,-5.7997,-5.7997,0.0,0.0,0.0,0.0,0.0,0.0,0.0,0.0,0.0,-2.3313,-2.3383,-2.3476,-2.3623,-2.3664,-2.3753,0.0,0.0,0.0,-2.418,0.0,0.0,0.0,-2.8235,-2.8583,0.0,0.0,0.0,-2.8686,-3.0295,-3.1272,-3.1616,-3.323,-3.3995,-3.394,-3.2467,-3.1745,-3.1439,-2.8881,-2.7798,-2.7732,-2.6924,-2.6602,-2.6631,-2.6759,-2.6631,-2.641,-2.6557,-2.6943,-2.7431,-2.7779,0.0,0.0,0.0,0.0,-2.8176,-2.8701,-3.0032,-3.198,-3.4883,-3.849,-4.2559,-4.7467,-5.0506,-5.2498,-5.3313,-5.4128,-5.4744,-5.487,-5.6011,0.0,0.0,0.0,0.0,0.0,0.0,0.0,0.0,0.0,0.0,0.0,0.0,0.0,0.0,0.0,0.0,0.0,0.0,0.0,0.0,0.0,-5.7188,-5.7188,-5.7313,-5.7437,-5.7559,-5.7697,-5.7815,-5.7927,-5.7927,-5.795,-5.7973,-5.7973,-5.7973,-5.7997,-5.7997,-5.7997,-5.7997,-5.7997,-5.7997,-5.7997,-5.7997,-5.7997,-5.7997,-5.7997,-5.7997,-5.7997,0.0,0.0,0.0,0.0,0.0,0.0,0.0,0.0,0.0,0.0,-2.3119,-2.3205,-2.3336,-2.3504,-2.3642,-2.3724,-2.3907,-2.4036,0.0,0.0,0.0,0.0,-2.6859,-2.6914,0.0,0.0,0.0,-2.7851,-2.9478,-3.0953,-3.2306,-3.3959,-3.4751,-3.4714,-3.3853,-3.3091,-3.2234,-2.9108,-2.7798,-2.7732,-2.6924,-2.6602,-2.6686,-2.7365,-2.677,-2.565,-2.6355,-2.6209,-2.5935,-2.7411,-2.7985,0.0,0.0,0.0,0.0,-2.7214,-2.8599,-3.0839,-3.3342,-3.8787,-4.4411,-4.7177,-4.9673,-5.1665,-5.248,-5.3277,-5.4055,0.0,0.0,0.0,0.0,0.0,0.0,0.0,0.0,0.0,0.0,0.0,0.0,0.0,0.0,0.0,0.0,0.0,0.0,0.0,0.0,0.0,0.0,-5.7188,-5.7188,-5.7188,-5.7313,-5.7406,-5.7431,-5.7577,-5.7649,-5.7649,-5.7649,-5.7721,-5.7815,-5.7815,-5.7886,-5.7997,-5.7997,-5.7997,-5.7997,-5.7997,-5.7997,-5.7997,-5.7997,-5.7997,-5.7997,-5.7997,-5.7997,-5.7997,0.0,0.0,0.0,0.0,0.0,0.0,0.0,0.0,0.0,0.0,0.0,-2.3015,-2.3132,-2.3289,-2.3435,-2.3587,-2.3732,0.0,0.0,0.0,0.0,0.0,0.0,0.0,0.0,0.0,-2.6724,-2.6976,-2.9034,-3.0589,-3.1679,-3.4728,-3.5914,-3.5524,-3.433,-3.3605,-3.3073,-2.9831,-2.8473,-2.8411,-2.7603,-2.7273,-2.7365,-2.8172,-2.775,-2.6788,-2.7145,-2.6759,-2.6182,-2.6909,-2.7177,-2.704,-2.6225,0.0,0.0,0.0,-2.6998,-2.8947,-3.2697,-3.7564,-4.2305,-4.514,-4.7666,-4.9774,-5.0943,-5.1828,-5.2495,-5.2829,0.0,0.0,0.0,0.0,0.0,0.0,0.0,0.0,0.0,0.0,0.0,0.0,0.0,0.0,0.0,0.0,0.0,0.0,0.0,0.0,-5.7188,-5.7188,-5.7188,-5.7188,-5.7257,-5.7313,-5.7388,-5.748,-5.7528,-5.7601,-5.7601,-5.7625,-5.7697,-5.7768,-5.7862,-5.7997,-5.7997,-5.7997,-5.7997,-5.7997,-5.7997,-5.7997,-5.7997,-5.7997,-5.7997,-5.7997,-5.7997,-5.7997,0.0,0.0,0.0,0.0,0.0,0.0,0.0,0.0,0.0,0.0,0.0,-2.2889,-2.2927,0.0,0.0,0.0,-2.3587,0.0,0.0,0.0,0.0,0.0,0.0,0.0,0.0,-2.5988,-2.6028,-2.6104,-2.8324,-2.9942,-3.1089,-3.477,-3.644,-3.6339,-3.5406,-3.466,-3.3917,-3.1115,-2.9684,-2.9262,-2.887,-2.8716,-2.8826,-2.9831,-2.9732,-2.8998,-2.8789,-2.8062,-2.7207,-2.7207,-2.6932,-2.6502,0.0,0.0,0.0,0.0,0.0,-2.7857,-3.2203,-3.6152,-3.977,-4.2996,-4.5602,-4.7787,-4.9307,0.0,-5.0893,0.0,0.0,0.0,0.0,0.0,0.0,0.0,0.0,0.0,0.0,0.0,0.0,0.0,0.0,0.0,0.0,0.0,0.0,0.0,0.0,0.0,-5.7188,-5.7188,-5.7188,-5.7188,-5.7188,-5.7257,-5.7356,-5.7356,-5.7388,-5.7504,-5.7504,-5.7528,-5.7553,-5.7649,-5.7792,-5.795,-5.7997,-5.7997,-5.7997,-5.7997,-5.7997,-5.7997,-5.7997,-5.7997,-5.7997,-5.7997,-5.7997,-5.7997,0.0,0.0,0.0,0.0,0.0,0.0,0.0,0.0,0.0,0.0,0.0,-2.2803,-2.2816,-2.2995,-2.3144,-2.3217,-2.3447,0.0,0.0,0.0,0.0,0.0,0.0,0.0,0.0,-2.4318,-2.4626,-2.5262,-2.6927,-2.8839,-3.1071,-3.3622,-3.566,-3.7179,-3.7917,-3.7025,-3.4839,-3.3133,-3.1518,-3.021,-3.0907,-3.1213,-3.1378,-3.2944,-3.3054,-3.2252,-3.1494,-3.021,-2.8877,0.0,-2.7849,-2.6583,-2.6557,-2.6007,-2.5246,0.0,0.0,0.0,-3.1678,-3.494,-3.8175,-4.1337,-4.3925,-4.613,0.0,0.0,0.0,0.0,0.0,0.0,0.0,0.0,0.0,0.0,0.0,0.0,0.0,0.0,0.0,0.0,0.0,0.0,0.0,0.0,0.0,0.0,0.0,0.0,-5.7188,-5.7188,-5.7188,-5.7188,-5.7188,-5.7188,-5.7213,-5.7213,-5.7213,-5.7213,-5.7213,-5.7307,-5.7412,-5.7431,-5.7559,-5.7815,-5.795,-5.7997,-5.7997,-5.7997,-5.7997,-5.7997,-5.7997,-5.7997,-5.7997,-5.7997,-5.7997,-5.7997,0.0,0.0,0.0,0.0,0.0,0.0,0.0,0.0,0.0,0.0,0.0,0.0,0.0,-2.2842,-2.2957,-2.307,-2.336,0.0,0.0,0.0,0.0,0.0,0.0,0.0,0.0,-2.418,-2.4288,-2.4433,-2.6563,-2.824,-2.9554,-3.3006,-3.5,-3.5717,-3.711,-3.7314,-3.6505,-3.4839,-3.3812,-3.3353,-3.4192,-3.4541,-3.4706,-3.634,-3.645,-3.5697,-3.5418,0.0,0.0,0.0,0.0,-2.7959,-2.6932,-2.6043,-2.5246,-2.4438,-2.5548,-2.7391,-2.9044,-3.2214,-3.5699,-3.8431,-4.1307,-4.3888,-4.546,-4.7153,0.0,0.0,0.0,0.0,0.0,0.0,0.0,0.0,0.0,0.0,0.0,0.0,0.0,0.0,0.0,0.0,0.0,0.0,0.0,0.0,0.0,0.0,-5.7188,-5.7188,-5.7188,-5.7188,-5.7188,-5.7188,-5.7188,-5.7188,-5.7188,-5.7188,-5.7188,-5.7232,-5.7264,-5.7363,-5.7437,-5.7553,-5.7697,-5.7839,-5.7997,-5.7904,-5.7862,-5.7862,-5.7862,-5.7862,-5.7862,-5.7973,-5.7997,-5.7997,0.0,0.0,0.0,-2.4336,0.0,-2.3371,-2.3112,-2.3078,-2.3078,-2.3078,0.0,0.0,0.0,0.0,-2.2838,-2.2995,-2.3205,-2.3372,-2.3458,0.0,0.0,0.0,0.0,0.0,0.0,-2.4103,-2.4094,-2.3976,-2.587,-2.7276,-2.8274,-3.1492,-3.3339,-3.4029,-3.571,-3.653,-3.6615,-3.6083,-3.55,-3.5119,-3.6479,-3.7048,-3.7234,-3.909,-3.9475,-3.9014,-3.9046,0.0,0.0,0.0,0.0,0.0,-2.8308,-2.6704,-2.5283,-2.4768,-2.5548,-2.6822,-2.7915,-3.054,-3.3568,-3.6046,-3.8689,-4.1168,-4.3007,0.0,0.0,0.0,0.0,0.0,0.0,0.0,0.0,0.0,0.0,0.0,0.0,0.0,0.0,0.0,0.0,0.0,0.0,0.0,0.0,0.0,0.0,0.0,-5.7188,-5.7188,-5.7188,-5.7188,-5.7188,-5.7188,-5.7188,-5.7188,-5.7188,-5.7188,-5.7188,-5.7188,-5.7188,-5.7289,-5.7356,-5.7388,-5.7486,-5.7673,-5.7862,-5.7768,-5.7721,-5.7721,-5.7721,-5.7721,-5.7745,-5.7815,-5.7881,-5.7862,-2.5167,-2.5489,-2.5794,-2.5111,-2.5005,-2.4732,-2.3957,-2.3836,-2.3836,-2.3836,0.0,0.0,0.0,0.0,0.0,-2.3047,-2.3042,-2.3092,-2.3228,-2.3271,0.0,0.0,0.0,0.0,-2.3795,-2.3996,-2.4026,-2.3896,-2.4767,-2.5925,-2.7351,-2.8987,-3.0603,-3.2233,-3.3937,-3.4749,-3.4968,-3.6743,-3.6578,-3.532,-3.7631,-3.859,-3.8866,-4.119,-4.2067,-4.2085,-4.2172,-4.1183,0.0,-3.8126,0.0,0.0,-3.073,-2.8018,-2.5466,-2.5429,-2.6007,-2.6969,0.0,0.0,0.0,-3.4344,0.0,0.0,-4.0435,0.0,0.0,0.0,0.0,0.0,0.0,0.0,0.0,0.0,0.0,0.0,0.0,0.0,0.0,0.0,0.0,0.0,0.0,0.0,0.0,0.0,0.0,-5.7134,-5.7134,-5.7134,-5.7134,-5.7134,-5.7134,-5.7134,-5.7134,-5.7152,-5.7152,-5.7152,-5.7188,-5.7188,-5.7188,-5.7188,-5.7264,-5.7388,-5.7388,-5.748,-5.7601,-5.7601,-5.7583,-5.7583,-5.7583,-5.7583,-5.7583,-5.7601,-5.7601,-5.7625,-2.4968,-2.5337,-2.5721,-2.504,-2.4932,-2.4878,-2.4698,-2.4678,-2.4678,0.0,0.0,0.0,-2.466,-2.4545,-2.4479,-2.4521,-2.4072,-2.3811,-2.385,-2.3373,-2.3126,-2.3289,-2.3412,-2.356,-2.3725,-2.3824,-2.3858,-2.3827,-2.4704,-2.531,-2.5697,-2.7308,-2.8342,-2.8924,-3.1133,-3.1868,-3.1724,-3.5789,-3.7506,-3.7705,-3.9453,-4.074,0.0,0.0,0.0,0.0,0.0,-4.374,-4.2741,0.0,-3.9056,-3.6091,0.0,-2.8778,-2.7027,-2.6447,-2.6833,-2.7567,-2.8007,0.0,0.0,0.0,0.0,0.0,0.0,0.0,0.0,0.0,0.0,0.0,0.0,0.0,0.0,0.0,0.0,0.0,0.0,0.0,0.0,0.0,0.0,0.0,0.0,0.0,0.0,0.0,-5.5414,-5.554,-5.554,-5.554,-5.554,-5.554,-5.554,-5.554,-5.554,-5.6066,-5.6319,-5.6337,-5.6917,-5.7188,-5.7188,-5.7188,-5.7213,-5.7257,-5.7257,-5.7282,-5.7313,-5.7431,-5.7455,-5.7455,-5.7455,-5.7455,-5.748,-5.7559,-5.7601,-5.7601,-2.5297,-2.5735,-2.6309,-2.6235,-2.6233,-2.6265,-2.631,-2.6342,-2.6358,0.0,0.0,0.0,-2.6419,-2.6174,-2.5875,-2.5547,-2.5161,-2.4653,-2.4012,-2.3593,-2.3271,-2.3033,-2.3193,-2.3336,-2.3453,-2.3598,-2.3675,-2.3664,-2.4252,-2.4683,-2.5012,-2.5952,-2.6602,-2.7023,-2.8814,-2.9568,-2.9777,-3.3712,-3.6,-3.7201,-3.9648,0.0,0.0,-4.4322,-4.533,0.0,0.0,0.0,-4.5204,-4.4173,-4.1614,0.0,0.0,-3.1241,-3.0106,-2.9324,-2.9439,-2.9879,-3.021,-3.1072,-3.2082,-3.2908,0.0,0.0,0.0,-3.8038,0.0,0.0,0.0,0.0,0.0,0.0,0.0,0.0,0.0,0.0,0.0,0.0,0.0,0.0,0.0,0.0,0.0,0.0,0.0,0.0,-5.4707,-5.4907,-5.4907,-5.4907,-5.4907,-5.4907,-5.4907,-5.4907,-5.4907,-5.5323,-5.554,-5.554,-5.6011,-5.6391,-5.6699,-5.6699,-5.688,-5.7188,-5.7188,-5.7188,-5.7206,-5.7264,-5.7332,-5.7332,-5.7332,-5.7332,-5.7332,-5.7388,-5.7412,-5.7455,0.0,-2.6451,-2.7232,-2.7964,-2.8152,-2.8237,-2.8288,-2.839,-2.8493,0.0,-2.873,-2.8816,-2.8885,-2.8161,-2.7385,-2.6663,-2.6385,-2.5646,-2.4284,-2.3995,-2.3604,-2.2942,-2.3017,-2.3117,-2.3205,-2.3443,-2.3571,-2.3595,-2.3723,-2.4147,-2.4836,-2.4926,-2.5346,-2.6067,-2.7013,-2.79,-2.8833,-3.1283,-3.3354,-3.5264,-3.8882,-4.0902,0.0,0.0,-4.6613,-4.6859,-4.85,-4.8259,-4.7043,-4.6356,-4.3235,0.0,0.0,-3.4688,-3.3931,-3.3203,-3.2936,-3.3028,-3.3862,-3.3476,-3.306,-3.3862,-3.4082,0.0,-3.4986,-3.6303,0.0,0.0,0.0,0.0,0.0,0.0,0.0,0.0,0.0,0.0,0.0,0.0,0.0,0.0,0.0,0.0,0.0,0.0,-5.3476,-5.3566,-5.4237,-5.4635,-5.4635,-5.4635,-5.4635,-5.4635,-5.4635,-5.4635,-5.4635,-5.4725,-5.478,-5.478,-5.487,-5.5233,-5.5866,-5.5957,-5.6373,-5.7062,-5.7152,-5.7188,-5.7188,-5.7188,-5.7188,-5.7188,-5.7188,-5.7188,-5.7188,-5.7188,-5.7188,-5.7232,-2.6522,-2.7114,-2.7707,-2.7964,-2.8508,-2.8935,-2.8989,-2.9589,-3.0054,-3.009,-3.0694,-3.1351,-3.1955,-3.0817,-2.9972,-2.9817,-2.8109,-2.6937,-2.6644,-2.485,-2.3774,-2.369,-2.3154,-2.3172,-2.3802,-2.3976,-2.4091,-2.4128,-2.4277,-2.4153,-2.3812,-2.4402,-2.476,-2.4968,-2.6435,-2.7605,-2.8607,-3.0923,-3.324,-3.5591,-3.8725,0.0,-4.4465,-4.5495,-4.6586,-4.7621,-4.8181,-4.8275,-4.7872,-4.625,-4.3653,-4.0781,0.0,-3.7428,-3.6233,-3.5597,-3.496,-3.4659,-3.5573,-3.5188,-3.4747,-3.5605,0.0,0.0,-3.6009,-3.6303,0.0,0.0,0.0,0.0,0.0,0.0,0.0,0.0,0.0,0.0,0.0,0.0,0.0,0.0,0.0,0.0,0.0,0.0,-5.2027,-5.2679,-5.2878,-5.2969,-5.2969,-5.2969,-5.2969,-5.2969,-5.2969,-5.2969,-5.2969,-5.3603,-5.3929,-5.3947,-5.4599,-5.4979,-5.5142,-5.5721,-5.6084,-5.6265,-5.6917,-5.7188,-5.7188,-5.7188,-5.7188,-5.7188,-5.7188,-5.7188,-5.7188,-5.7188,-5.7188,-5.7188,-2.6691,-2.7283,-2.7943,-2.842,-2.9403,-3.0304,-3.0774,-3.153,-3.2183,-3.2598,-3.3399,-3.4235,-3.5009,-3.414,-3.3197,-3.2474,-3.0972,-2.9455,-2.7937,-2.6402,-2.5227,-2.4479,-2.4099,-2.4064,-2.4444,-2.4143,-2.4019,-2.4059,-2.3844,-2.3599,-2.3318,-2.4086,-2.4465,-2.4561,-2.6105,-2.7293,-2.8307,-3.0538,-3.308,-3.5829,-3.899,0.0,-4.392,-4.551,-4.6685,-4.7589,-4.8173,-4.8342,-4.8006,-4.6392,-4.4502,0.0,0.0,-4.0382,-3.9155,0.0,-3.8419,-3.7953,-3.8449,-3.8034,-3.7551,-3.7991,0.0,0.0,0.0,0.0,-3.5866,0.0,0.0,0.0,0.0,0.0,0.0,0.0,0.0,0.0,0.0,0.0,0.0,0.0,0.0,0.0,0.0,0.0,-5.0873,-5.1267,-5.1285,-5.1466,-5.1864,-5.19,-5.2082,-5.248,-5.2498,-5.2498,-5.2498,-5.2896,-5.3096,-5.3114,-5.3512,-5.3911,-5.4309,-5.4671,-5.5269,-5.6011,-5.6428,-5.6826,-5.7188,-5.7188,-5.7188,-5.7188,-5.7188,-5.7188,-5.7188,-5.7188,-5.7188,-5.7188,-2.6691,-2.7283,-2.8043,-2.8857,-3.0091,-3.1331,-3.2309,-3.3233,-3.4261,-3.5522,-3.6293,-3.7026,-3.7814,-3.7286,-3.6337,-3.5015,-3.3876,-3.2104,-2.9403,-2.8233,-2.7046,-2.5652,-2.5308,-2.5193,-2.5255,-2.456,-2.4124,-2.3969,-2.354,-2.3236,-2.305,-2.3998,-2.4528,-2.4809,-2.643,-2.7707,-2.8815,-3.1023,0.0,-3.6339,0.0,-4.1583,-4.2975,-4.5458,-4.6775,-4.7454,-4.8362,-4.8396,-4.7829,-4.6785,-4.5414,-4.4074,-4.3985,-4.2944,0.0,0.0,0.0,0.0,0.0,0.0,0.0,0.0,0.0,-3.7951,0.0,0.0,0.0,-3.6376,0.0,0.0,0.0,0.0,0.0,0.0,0.0,0.0,0.0,0.0,0.0,0.0,0.0,0.0,0.0,0.0,-4.9637,-4.9637,-4.9764,-5.0144,-5.0796,-5.1122,-5.1593,-5.2245,-5.2426,-5.2498,-5.2498,-5.2498,-5.2498,-5.2498,-5.2498,-5.2842,-5.3476,-5.3639,-5.4454,-5.5794,-5.5939,-5.6446,-5.7188,-5.7188,-5.7188,-5.7188,-5.7188,-5.7188,-5.7188,-5.7188,-5.7188,-5.7188,-2.6691,-2.7283,-2.8043,-2.8857,-2.9685,-3.07,-3.211,-3.36,-3.5611,-3.8504,-3.8907,-3.9232,-4.0058,-3.9426,-3.864,-3.782,-3.5805,-3.3874,-3.2237,0.0,-2.8613,-2.7776,-2.6444,-2.5969,-2.6569,-2.5985,-2.5316,-2.4601,-2.4599,-2.3963,-2.2786,-2.4251,-2.527,-2.5996,-2.8194,-3.0007,-3.1583,-3.3738,-3.5711,0.0,-4.052,-4.254,0.0,-4.5418,-4.6724,-4.7945,-4.8808,-4.8411,-4.7492,0.0,-4.5942,-4.3933,0.0,-4.4219,-4.3152,-4.3548,0.0,0.0,0.0,0.0,0.0,0.0,-4.1348,0.0,0.0,0.0,-3.7235,-3.7345,0.0,0.0,0.0,0.0,0.0,0.0,0.0,0.0,0.0,0.0,0.0,0.0,0.0,0.0,0.0,0.0,0.0,-4.7971,-4.8619,-4.9094,-4.9162,-5.0524,-5.1339,-5.143,-5.2118,-5.2498,-5.2498,-5.2498,-5.2498,-5.2498,-5.2498,-5.2552,-5.2661,-5.3367,-5.4182,-5.507,-5.5721,-5.6446,-5.7188,-5.7188,-5.7188,-5.7188,-5.7188,-5.7188,-5.7188,-5.7188,-5.7188,-5.7188,-2.6691,-2.7283,-2.8043,-2.8857,-2.9956,-3.1241,-3.2713,-3.4989,-3.7339,-3.9525,-4.0228,-4.0822,-4.1563,-4.1827,-4.1443,-4.0273,0.0,-3.774,0.0,0.0,-3.1939,-3.0762,-2.9244,-2.8322,-2.8133,-2.7062,-2.6076,-2.5214,-2.4849,-2.4381,-2.383,-2.4983,-2.5922,-2.6745,-2.9453,-3.1271,-3.2458,0.0,-3.704,0.0,0.0,0.0,0.0,-4.5041,-4.6101,-4.7411,-4.864,-4.8277,-4.7216,0.0,-4.6011,0.0,0.0,0.0,0.0,0.0,0.0,0.0,0.0,0.0,0.0,0.0,0.0,0.0,-4.0581,0.0,-3.7639,0.0,0.0,0.0,0.0,0.0,0.0,0.0,0.0,0.0,0.0,0.0,0.0,0.0,0.0,0.0,0.0,0.0,0.0,0.0,0.0,-4.7228,-4.8149,-4.9293,-5.0343,-5.1267,-5.1629,-5.2027,-5.2498,-5.2498,-5.2498,-5.2498,-5.2498,-5.2498,-5.2498,-5.2842,-5.344,-5.4255,-5.5015,-5.5794,-5.6536,-5.7007,-5.7188,-5.7188,-5.7188,-5.7188,-5.7188,-5.7188,-5.7188,-5.7188,-2.7317,-2.7588,-2.8111,-2.9127,-3.0345,-3.1901,-3.4015,-3.6535,-3.8734,-4.0197,-4.1485,-4.2479,-4.3013,-4.4181,0.0,0.0,-4.272,-4.1435,0.0,0.0,-3.5499,-3.3836,-3.2267,-3.0989,-2.9999,-2.854,-2.7165,-2.5896,-2.542,-2.4961,-2.4603,-2.5633,-2.6516,-2.7368,-3.0587,-3.2545,-3.3598,0.0,-3.8499,-3.9798,-4.123,-4.3047,-4.497,-4.5473,-4.623,-4.7276,-4.8545,-4.8233,-4.7296,-4.7552,-4.6231,0.0,-4.5796,0.0,0.0,0.0,0.0,0.0,-4.5207,0.0,0.0,0.0,0.0,0.0,0.0,0.0,0.0,0.0,0.0,0.0,0.0,0.0,0.0,-3.6653,0.0,0.0,0.0,0.0,0.0,0.0,0.0,0.0,0.0,0.0,0.0,0.0,0.0,0.0,-4.6649,-4.7877,-4.9311,-5.0927,-5.1176,-5.1683,-5.248,-5.2498,-5.2498,-5.2498,-5.2498,-5.2498,-5.2498,-5.2498,-5.2933,-5.3748,-5.4562,-5.5323,-5.6047,-5.6862,-5.7188,-5.7188,-5.7188,-5.7188,-5.7188,-5.7188,-5.7188,-5.7188,-2.8925,-2.8332,-2.828,-2.9785,-3.0683,-3.2425,-3.6135,-3.7997,-3.9478,-4.0984,0.0,0.0,0.0,0.0,0.0,0.0,0.0,-4.4282,-4.1255,0.0,-3.8954,-3.6761,-3.5187,-3.3681,0.0,-3.0751,-2.8907,-2.6657,-2.664,-2.5895,-2.4541,-2.5997,-2.7063,-2.7942,-3.1664,-3.415,-3.5707,-3.8725,-4.0451,-4.1271,-4.2743,-4.4282,-4.5821,0.0,-4.7821,-4.7939,-4.8731,0.0,0.0,-4.8179,-4.6777,0.0,0.0,0.0,0.0,0.0,0.0,0.0,0.0,0.0,0.0,-4.5234,0.0,0.0,0.0,0.0,-4.0047,0.0,0.0,0.0,0.0,0.0,-3.833,-3.8251,-3.6882,0.0,0.0,0.0,0.0,0.0,0.0,0.0,0.0,0.0,0.0,0.0,0.0,0.0,-4.4168,-4.6468,-4.8478,-5.0093,-5.0886,-5.1683,-5.248,-5.2498,-5.2498,-5.2498,-5.2498,-5.2498,-5.2498,-5.2498,-5.2933,-5.3748,-5.4562,-5.5323,-5.6047,-5.6862,-5.7188,-5.7188,-5.7188,-5.7188,-5.7188,-5.7188,-5.7188,-5.7188,-2.9736,-3.0294,-3.0632,-3.0192,-3.0717,-3.2628,-3.6874,-3.8768,-4.0637,0.0,-4.4124,0.0,0.0,-4.7902,-4.8443,0.0,0.0,-4.7039,-4.5026,-4.3267,0.0,0.0,-3.8531,-3.6795,0.0,-3.3778,-3.1918,-2.9668,-2.9194,-2.845,-2.7486,-2.7994,-2.8619,-2.9447,0.0,-3.4962,0.0,0.0,0.0,0.0,0.0,-4.6672,-4.7225,0.0,0.0,-4.799,-4.8748,-4.8545,0.0,-4.8112,-4.735,-4.6357,-4.6811,-4.6704,-4.6343,-4.5933,-4.6014,0.0,0.0,0.0,-4.511,-4.5483,0.0,0.0,0.0,0.0,0.0,0.0,0.0,0.0,0.0,-4.029,-3.8771,-3.8315,-3.6783,-3.5505,0.0,0.0,0.0,0.0,0.0,0.0,0.0,0.0,0.0,0.0,0.0,0.0,0.0,-4.5599,-4.7409,-4.8478,-4.98,-5.0886,-5.1701,-5.2226,-5.2498,-5.2498,-5.2498,-5.2498,-5.2498,-5.2498,-5.2643,-5.2987,-5.4327,-5.5051,-5.5377,-5.6663,-5.7188,-5.7188,-5.7188,-5.7188,-5.7188,-5.7188,-5.7188,-5.7188,-3.1255,-3.2036,-3.2327,-3.1089,-3.1935,-3.41,-3.8075,-3.9918,0.0,0.0,-4.5698,0.0,-4.8511,0.0,-5.0067,0.0,-5.0016,-4.9441,-4.7699,-4.621,0.0,-4.3555,-4.188,0.0,0.0,0.0,-3.4878,-3.2374,-3.1376,-3.0362,-2.9381,-2.9381,-2.9786,-3.0632,0.0,-3.5893,-3.7777,-4.0443,-4.2912,0.0,0.0,-4.7889,0.0,0.0,-4.8308,-4.8359,0.0,-4.8697,-4.8308,-4.8382,-4.792,-4.7322,-4.744,-4.7351,-4.717,-4.6691,-4.6749,-4.6884,-4.6569,-4.6247,0.0,-4.5794,-4.4516,0.0,-4.3394,0.0,0.0,0.0,0.0,0.0,0.0,0.0,-3.9752,-3.9082,-3.7332,-3.5491,0.0,0.0,0.0,0.0,0.0,0.0,0.0,0.0,-3.7212,-3.7738,0.0,0.0,0.0,0.0,-4.6576,-4.7681,-4.9257,-5.0492,-5.1285,-5.21,-5.2498,-5.2498,-5.2498,-5.2498,-5.2498,-5.2498,-5.2498,-5.2589,-5.42,-5.4907,-5.5033,-5.6554,-5.7188,-5.7188,-5.7188,-5.7188,-5.7188,-5.7188,-5.7188,-5.7188,-3.3457,-3.3558,0.0,0.0,-3.4387,0.0,0.0,0.0,-4.3234,0.0,-4.7699,-4.9306,-5.0118,-5.1454,-5.2046,-5.1354,-5.1928,-5.142,-4.9306,-4.9069,0.0,0.0,-4.5128,-4.3673,-4.1474,0.0,0.0,0.0,-3.3156,-3.1667,-3.0226,-3.0176,-3.0531,-3.1326,-3.4247,0.0,-3.9039,-4.1288,-4.3606,-4.5889,-4.7348,-4.7939,-4.8024,-4.8731,-4.9001,-4.9001,-4.9001,-4.9001,-4.9001,-4.9001,-4.8545,-4.7939,-4.7939,-4.7552,-4.7075,-4.7041,-4.7227,-4.742,-4.7386,-4.7565,-4.7476,-4.6281,0.0,0.0,0.0,0.0,-4.382,0.0,0.0,0.0,0.0,0.0,0.0,-4.0491,-3.8381,-3.5762,-3.2799,0.0,0.0,0.0,0.0,0.0,0.0,-3.5946,-3.6904,-3.6941,-3.9079,-4.0745,0.0,0.0,-4.5924,-4.7536,-4.913,-5.0401,-5.1212,-5.2027,-5.2462,-5.2498,-5.2498,-5.2498,-5.2498,-5.2498,-5.2498,-5.2589,-5.4164,-5.487,-5.5033,-5.6518,-5.7152,-5.7188,-5.7188,-5.7188,-5.7188,-5.7188,-5.7188,-5.7188,-3.432,-3.5588,-3.7026,0.0,-3.8108,-3.8937,0.0,0.0,0.0,0.0,-4.8663,-4.9695,-5.1539,-5.208,-5.2469,-5.2875,-5.2536,0.0,0.0,0.0,0.0,-4.8968,-4.7208,-4.5686,-4.457,-4.2506,0.0,-3.7043,0.0,0.0,-3.1735,-3.1173,-3.1021,-3.1292,0.0,-3.574,-3.7557,-4.0307,-4.3436,-4.665,-4.8122,-4.8731,0.0,0.0,-4.9001,-4.9001,-4.9001,-4.9001,-4.9001,-4.9001,-4.8883,-4.8731,-4.8731,-4.8626,-4.8386,-4.7844,-4.7704,-4.7657,-4.7226,-4.7158,-4.717,-4.7055,-4.6115,-4.5285,0.0,0.0,0.0,0.0,0.0,0.0,0.0,0.0,0.0,-4.0414,-3.8381,-3.6455,-3.5062,0.0,0.0,0.0,0.0,0.0,-3.3773,-3.4624,-3.5457,-3.6055,-3.7775,0.0,0.0,0.0,0.0,-4.587,-4.7482,-4.8985,-5.0401,-5.1194,-5.19,-5.2498,-5.2498,-5.2498,-5.2498,-5.2498,-5.2498,-5.2552,-5.3566,-5.4345,-5.4979,-5.5921,-5.6663,-5.7188,-5.7188,-5.7188,-5.7188,-5.7188,-5.7188,-5.7188,-3.6386,0.0,0.0,-4.0874,0.0,0.0,-4.3149,0.0,0.0,-4.9171,-5.0033,0.0,-5.2655,-5.2824,-5.301,-5.3467,-5.3095,0.0,-5.2317,0.0,0.0,-5.0574,-4.9069,-4.7885,-4.7158,-4.4604,0.0,-3.9343,0.0,0.0,-3.2767,-3.1698,-3.136,0.0,0.0,-3.5537,-3.7533,-4.1491,-4.457,-4.6921,-4.8409,0.0,0.0,-4.9001,-4.9001,-4.9001,-4.9001,-4.9001,-4.9001,-4.9001,-4.9001,-4.9001,-4.9001,-4.9001,-4.8934,-4.8511,-4.8392,-4.8308,-4.7958,-4.787,-4.7844,-4.7739,-4.7107,-4.6529,-4.6548,-4.5944,-4.5569,0.0,0.0,0.0,0.0,0.0,0.0,-4.0294,-3.8564,-3.7116,0.0,0.0,0.0,0.0,0.0,0.0,-3.3876,-3.4304,-3.479,-3.5243,-3.7087,0.0,0.0,0.0,0.0,-4.4729,-4.6685,-4.8456,-5.0005,-5.0819,-5.1587,-5.2317,-5.2317,-5.2317,-5.2317,-5.2317,-5.2358,-5.2459,-5.326,-5.4098,-5.4961,-5.5703,-5.6464,-5.7188,-5.7188,-5.7188,-5.7188,-5.7188,-5.7188,-5.7188,-3.9169,0.0,0.0,0.0,0.0,0.0,0.0,-4.7005,0.0,-5.0185,0.0,-5.2604,-5.3416,-5.3501,-5.3501,-5.3501,0.0,-5.3213,-5.2503,-5.2367,-5.2063,-5.1539,-5.0693,-4.9898,-4.9171,-4.6329,-4.3707,0.0,0.0,-3.5076,-3.3508,-3.2036,0.0,0.0,0.0,0.0,0.0,-4.347,-4.6041,-4.6921,-4.8409,-4.9001,-4.9001,-4.9001,-4.9001,-4.9001,-4.9001,-4.9001,-4.9001,-4.9001,-4.9001,-4.9001,-4.9001,-4.9001,-4.9001,-4.9001,-4.9001,-4.9001,-4.9001,-4.9001,-4.888,-4.8357,-4.815,-4.7954,-4.7592,-4.7426,-4.7425,-4.7658,-4.6527,-4.5553,0.0,0.0,0.0,-4.0395,0.0,0.0,0.0,0.0,0.0,0.0,0.0,0.0,0.0,-3.4385,-3.4356,-3.4588,-3.6435,0.0,0.0,0.0,0.0,-4.404,-4.6212,0.0,-4.9825,0.0,-5.1292,-5.2054,-5.2054,-5.2054,-5.2054,-5.2054,-5.2126,-5.2276,-5.2985,-5.3869,-5.4894,-5.5527,-5.6324,-5.7156,-5.7181,-5.7163,-5.7181,-5.7188,-5.7188,-5.7188,-4.1999,0.0,0.0,0.0,0.0,-4.8798,-4.9881,-4.9864,-5.0236,-5.1725,-5.2147,-5.2604,-5.3416,-5.3501,-5.3501,-5.3501,-5.3501,0.0,0.0,0.0,0.0,-5.3078,-5.1758,-5.0659,-4.9915,-4.7597,-4.4993,0.0,-3.9005,-3.64,-3.4269,-3.2801,-3.2175,-3.2344,0.0,0.0,-3.9927,-4.3335,0.0,-4.6921,-4.8409,-4.9001,-4.9001,-4.9001,-4.9001,-4.9001,-4.9001,-4.9001,-4.9001,-4.9001,-4.9001,-4.9001,-4.9001,-4.9001,-4.9001,-4.9001,-4.9001,-4.9001,-4.9001,-4.9001,-4.8968,-4.888,-4.8389,-4.7928,-4.7971,-4.7503,-4.7101,-4.7256,-4.6599,-4.584,-4.5316,0.0,0.0,0.0,0.0,0.0,0.0,0.0,0.0,0.0,0.0,0.0,0.0,0.0,-3.3176,-3.4516,0.0,0.0,0.0,0.0,0.0,0.0,0.0,0.0,0.0,0.0,0.0,-5.1765,-5.1765,-5.1765,-5.1765,-5.1765,-5.1858,-5.1974,-5.2124,-5.3059,-5.4514,-5.464,-5.5559,-5.6873,-5.7003,-5.7054,-5.7054,-5.7163,-5.7188,-5.7188,0.0,0.0,0.0,0.0,0.0,0.0,0.0,-5.2202,0.0,-5.3399,-5.3839,-5.4211,-5.4617,-5.4651,-5.4651,-5.4651,-5.4296,-5.4059,-5.4059,-5.3348,-5.3095,-5.3484,-5.2401,0.0,-5.0693,-4.8511,-4.5889,-4.2878,-3.9918,-3.7297,-3.5047,-3.3558,-3.2865,-3.2949,0.0,-3.7787,0.0,0.0,0.0,-4.7479,-4.8562,-4.9001,-4.9001,-4.9001,-4.9001,-4.9001,-4.9001,-4.9001,-4.9001,-4.9001,-4.9001,-4.9001,-4.9001,-4.9001,-4.9001,-4.9001,-4.9001,-4.9001,-4.9001,-4.9001,-4.9001,-4.9001,-4.8731,-4.8477,-4.8568,-4.828,-4.8056,-4.8129,-4.7228,-4.6056,-4.468,-4.3217,0.0,0.0,0.0,0.0,0.0,0.0,0.0,0.0,0.0,0.0,0.0,0.0,0.0,0.0,0.0,0.0,0.0,0.0,0.0,0.0,0.0,0.0,0.0,0.0,0.0,-5.114,-5.114,-5.1088,-5.1026,-5.1088,-5.1193,-5.1323,-5.1401,-5.2375,-5.4001,-5.4919,-5.5732,-5.6456,-5.6715,-5.6794,-5.6821,-5.7028,-5.7105,-5.7105,0.0,-4.7537,0.0,0.0,-5.0271,0.0,-5.3144,-5.4109,-5.4675,-5.475,-5.5309,-5.5681,-5.5681,-5.5681,-5.5681,-5.5681,-5.5175,-5.482,-5.482,-5.4143,-5.3737,-5.3737,-5.2976,-5.2198,-5.1471,-4.9424,-4.6989,0.0,0.0,-3.8531,-3.6276,-3.481,-3.4218,-3.4506,0.0,0.0,0.0,0.0,-4.6701,-4.7973,-4.8883,-4.9238,-4.9255,-4.9407,-4.9475,-4.9475,-4.9475,-4.9475,-4.9475,-4.9475,-4.9272,-4.9001,-4.9001,-4.9001,-4.9001,-4.9001,-4.9001,-4.9001,-4.9001,-4.9001,-4.9001,-4.9001,-4.9001,-4.9001,-4.9001,-4.9001,-4.9001,-4.9001,-4.7834,-4.6247,-4.4347,-4.3579,0.0,0.0,0.0,0.0,0.0,0.0,0.0,0.0,0.0,0.0,0.0,0.0,0.0,0.0,0.0,0.0,0.0,0.0,0.0,0.0,0.0,-4.6128,-4.8898,0.0,-4.9319,0.0,-5.0446,-5.0408,-5.0285,-5.0408,-5.053,-5.0667,-5.0934,-5.2001,-5.3689,-5.5196,-5.5883,-5.594,-5.6265,-5.642,-5.6474,-5.6794,-5.6925,-5.6933,0.0,0.0,0.0,0.0,0.0,0.0,0.0,-5.543,-5.5673,-5.5364,-5.5525,-5.5681,-5.5681,-5.5681,-5.5681,-5.5681,-5.5649,-5.5615,-5.5615,-5.4905,-5.4482,-5.4482,-5.3788,-5.301,-5.2215,-5.0676,-4.8765,0.0,0.0,-4.0849,-3.865,-3.7185,-3.684,-3.7618,0.0,0.0,0.0,-4.5737,-4.7158,-4.8007,-4.9424,-4.9982,-5.0067,-5.0744,-5.0982,-5.0982,-5.0982,-5.0982,-5.0982,-5.0982,-5.0118,-4.9001,-4.9001,-4.9001,-4.9001,-4.9001,-4.9001,-4.9001,-4.9001,-4.9001,-4.9001,-4.9001,-4.9001,-4.9001,-4.9001,-4.9001,-4.9001,-4.9001,-4.7834,-4.637,-4.4963,-4.4055,-4.3396,0.0,0.0,0.0,0.0,0.0,-3.9336,-3.8622,0.0,0.0,0.0,0.0,0.0,0.0,0.0,0.0,0.0,0.0,0.0,-4.2165,0.0,-4.5717,-4.8356,-4.8242,0.0,-4.9953,-4.9953,-4.9953,-4.9953,-4.9953,-5.0051,-5.0211,-5.0951,-5.2236,-5.3833,-5.4665,-5.5104,-5.5301,-5.5589,-5.5808,-5.6032,-5.6474,-5.6653,-5.6653,0.0,0.0,0.0,0.0,0.0,0.0,0.0,-5.4972,-5.5463,-5.5731,-5.6308,-5.6656,-5.6656,-5.6656,-5.6729,-5.6838,-5.6434,-5.6217,-5.6359,-5.5683,-5.5057,-5.4617,-5.4313,-5.3585,-5.2334,-5.1725,-5.0118,0.0,0.0,0.0,0.0,-3.9486,0.0,0.0,0.0,-4.457,-4.6181,-4.7547,-4.8798,-4.9917,-5.0524,-5.076,-5.0794,-5.1099,-5.1185,-5.1185,-5.1185,-5.1185,-5.1185,-5.1185,-5.0828,-5.0338,-5.0338,-5.0338,-5.0236,-4.9779,-4.9661,-4.956,-4.912,-4.9001,-4.9001,-4.9001,-4.9001,-4.9001,-4.9001,-4.9001,-4.9001,-4.9001,-4.7834,-4.6375,-4.4925,-4.401,-4.3274,0.0,0.0,0.0,0.0,0.0,0.0,0.0,0.0,-3.6302,0.0,0.0,0.0,0.0,0.0,-3.4029,-3.545,0.0,0.0,-4.1934,0.0,-4.5427,-4.7995,-4.7902,-4.8413,-4.9483,-4.9483,-4.9441,-4.935,-4.9424,-4.9829,-5.0442,-5.1214,-5.2155,-5.3249,-5.4132,-5.452,-5.4631,-5.4953,-5.5182,-5.5396,-5.574,-5.594,-5.6098,-5.07,0.0,-5.1084,0.0,-5.1963,-5.2507,-5.3653,-5.4406,-5.5027,-5.5539,-5.6336,-5.6894,-5.7101,-5.7176,-5.7289,-5.7402,-5.7043,-5.6867,-5.7012,-5.6408,-5.5801,-5.526,-5.504,0.0,-5.2993,-5.2756,-5.142,-4.8852,-4.7192,0.0,0.0,-4.2567,0.0,0.0,-4.5461,-4.7073,-4.8612,-4.934,-5.027,-5.1202,-5.1454,-5.1539,-5.1555,-5.1809,-5.1894,-5.1894,-5.1894,-5.1894,-5.1894,-5.1894,-5.1894,-5.1809,-5.132,-5.1185,-5.1116,-5.0574,-5.0422,-5.0253,-4.9526,-4.9323,-4.9272,-4.9052,-4.9001,-4.9001,-4.9001,-4.9001,-4.8883,-4.8443,-4.7513,-4.6329,-4.4886,-4.413,-4.3436,-4.2455,0.0,0.0,0.0,0.0,0.0,0.0,-3.7681,-3.6785,-3.56,0.0,0.0,0.0,0.0,-3.5293,-3.5951,0.0,0.0,0.0,0.0,0.0,0.0,-4.7516,-4.803,-4.9077,-4.9107,-4.9094,-4.9001,-4.9077,-4.9743,-5.0819,-5.1347,-5.2113,-5.305,-5.3709,-5.4011,-5.4059,-5.4365,-5.4603,-5.4821,-5.5091,-5.5284,-5.542,-4.9893,-5.0144,-5.0548,-5.1175,-5.168,-5.2306,-5.3253,-5.397,-5.4465,-5.4701,-5.5295,-5.5957,-5.6641,-5.6872,-5.6987,-5.7025,-5.7348,-5.7571,-5.7571,-5.708,-5.6782,0.0,0.0,-5.5344,-5.4583,-5.3856,-5.2723,-5.1151,0.0,0.0,-4.6735,-4.6718,-4.6718,-4.6836,-4.9035,-5.0033,-5.0118,-5.0879,-5.1168,-5.1268,-5.1995,-5.2283,-5.2367,-5.3179,-5.3467,-5.3467,-5.3467,-5.3467,-5.3467,-5.3467,-5.3467,-5.3213,-5.1691,-5.1185,-5.1185,-5.12,-5.12,-5.1048,-5.0287,-5.0084,-4.9898,-4.9187,-4.9001,-4.9001,-4.9001,-4.9001,-4.8595,-4.7124,-4.6802,-4.6329,-4.4886,-4.4598,-4.409,-4.254,0.0,0.0,0.0,0.0,0.0,0.0,-3.8345,-3.7373,-3.6012,0.0,0.0,0.0,0.0,0.0,0.0,0.0,0.0,-4.2206,-4.2832,0.0,-4.6901,-4.6986,-4.7619,-4.8818,-4.8956,-4.9001,-4.9001,-4.9001,-4.9813,-5.12,-5.1217,-5.208,-5.3484,-5.3501,-5.3584,-5.375,-5.3915,-5.4093,-5.4252,-5.4586,-5.471,-5.4741,-5.077,-5.0862,-5.103,-5.1455,-5.1759,-5.2092,-5.2576,-5.3098,-5.3521,-5.3797,-5.4285,-5.4832,-5.5369,-5.5974,-5.6424,0.0,-5.6834,-5.7101,0.0,-5.7369,-5.7178,-5.6833,-5.6436,-5.5892,-5.5168,-5.427,-5.3413,-5.2573,0.0,0.0,0.0,-4.8798,-4.9035,-4.9086,-5.0304,-5.1133,-5.1623,-5.186,-5.2283,-5.2807,-5.3027,-5.3129,-5.3145,-5.3399,-5.3501,-5.3501,-5.3501,-5.3501,-5.3501,-5.3501,-5.3501,-5.3416,-5.2926,-5.2773,-5.2672,-5.2114,-5.1961,-5.1792,-5.1065,-5.0862,-5.0676,-4.9932,-4.9746,-4.961,-4.912,-4.9001,-4.8731,-4.7767,-4.7141,-4.6498,-4.5534,-4.4925,-4.4107,-4.254,-4.2286,0.0,0.0,0.0,0.0,0.0,-3.8654,-3.814,0.0,-3.6983,0.0,0.0,0.0,0.0,0.0,0.0,0.0,0.0,-4.3278,0.0,-4.6613,-4.717,-4.7807,-4.8595,-4.8658,-4.8721,-4.8863,-4.894,-4.9813,-5.1185,-5.1185,-5.208,-5.3501,-5.3501,-5.3534,-5.3584,-5.3618,-5.3734,-5.3848,-5.3996,-5.4093,-5.4254,-5.1214,-5.1214,-5.1261,-5.1401,-5.1526,-5.1711,-5.1987,-5.2336,-5.2712,-5.3084,-5.3612,-5.4087,-5.4513,-5.518,0.0,-5.6126,-5.6502,-5.6796,-5.7063,-5.7327,-5.7312,-5.6895,-5.6768,-5.6322,-5.5475,0.0,0.0,-5.3268,-5.1882,-5.0608,-4.953,-5.0367,-5.0736,-5.077,-5.1528,-5.2151,-5.264,-5.264,-5.296,-5.3501,-5.3501,-5.3501,-5.3501,-5.3501,-5.3501,-5.3501,-5.3501,-5.3501,-5.3501,-5.3501,-5.3501,-5.3501,-5.3501,-5.3501,-5.3399,-5.2909,-5.2756,-5.2587,-5.1826,-5.1623,-5.1454,-5.0693,-5.0287,-4.9898,-4.9171,-4.894,-4.8706,-4.7933,-4.716,-4.6389,-4.5664,-4.4906,-4.3923,-4.2459,-4.2223,-4.1726,-4.029,0.0,0.0,0.0,0.0,0.0,0.0,-3.7821,0.0,0.0,0.0,0.0,0.0,0.0,0.0,-4.1965,-4.3629,0.0,-4.6301,-4.7102,-4.7826,-4.8388,-4.8452,-4.8595,-4.8801,-4.8894,-4.975,-5.1185,-5.1185,-5.208,-5.3501,-5.3501,-5.3501,-5.3501,-5.3501,-5.3551,-5.3634,-5.3634,-5.3701,-5.3833,-5.1214,-5.1214,0.0,0.0,-5.1214,0.0,-5.1541,-5.1711,-5.2033,-5.2578,-5.3173,-5.3683,-5.4001,-5.4417,-5.4964,-5.5621,0.0,0.0,0.0,-5.6987,-5.7139,-5.6949,-5.6894,-5.648,-5.5643,-5.5539,-5.4812,-5.341,-5.2182,-5.1222,-5.059,-5.1411,-5.1797,-5.1814,-5.2533,-5.2938,-5.311,-5.3144,-5.3264,-5.3433,-5.3467,-5.3467,-5.3467,-5.3501,-5.3501,-5.3501,-5.3501,-5.3501,-5.3501,-5.3501,-5.3501,-5.3501,-5.3501,-5.3501,-5.3467,-5.3518,-5.3501,-5.3298,-5.2554,-5.2351,-5.2165,-5.1423,-5.0661,-4.9883,-4.9207,-4.8897,-4.8568,-4.783,-4.6968,-4.614,-4.539,-4.4683,-4.3736,-4.2303,-4.2078,-4.1593,-4.0265,0.0,0.0,0.0,0.0,0.0,0.0,-3.8245,-3.7858,0.0,0.0,0.0,0.0,0.0,-4.1115,-4.3177,-4.3875,-4.4799,-4.6048,-4.697,-4.7688,-4.8195,-4.8388,-4.8595,-4.8786,-4.8837,-4.9723,-5.1185,-5.1236,-5.2131,-5.3501,-5.3501,-5.3501,-5.3501,-5.3501,-5.3501,-5.3501,-5.3501,-5.3501,-5.3501,0.0,0.0,-5.1214,-5.1214,-5.1214,-5.1214,-5.1261,-5.1354,-5.1494,-5.1818,-5.2124,-5.2562,-5.3201,-5.3552,-5.3958,-5.447,-5.5246,-5.5774,-5.5917,-5.6179,-5.6375,-5.6436,-5.6179,-5.5915,-5.5672,-5.4975,-5.4258,-5.3482,-5.2753,-5.2339,-5.2138,-5.1849,-5.1704,-5.1756,-5.2065,-5.2255,-5.231,-5.2626,-5.2765,-5.2852,-5.3144,-5.3264,-5.3298,-5.3433,-5.3501,-5.3501,-5.3501,-5.3501,-5.3501,-5.3501,-5.3501,-5.3501,-5.3501,-5.3382,-5.3298,-5.3467,-5.3382,-5.323,-5.3028,-5.2875,-5.2588,-5.185,-5.0691,-4.9668,-4.9516,-4.8998,-4.8513,-4.8329,-4.7678,-4.691,-4.6173,-4.5453,-4.4281,-4.2266,-4.1959,-4.1439,-3.9982,-3.9781,0.0,0.0,-4.0238,-4.03,-4.0707,-4.0591,-4.0502,0.0,0.0,0.0,0.0,-4.1881,-4.2409,-4.3477,-4.4726,-4.5808,-4.6673,-4.7468,-4.7916,-4.8066,-4.8212,-4.8388,-4.8612,-4.9295,-5.0212,-5.1219,-5.1809,-5.2604,-5.3501,-5.3501,-5.3501,-5.3501,-5.3501,-5.3501,-5.3501,-5.3501,-5.3501,-5.3501,-5.1214,-5.1214,-5.1214,-5.1214,-5.1214,-5.1214,-5.1214,-5.1214,-5.1308,-5.1572,-5.1757,-5.2124,-5.2607,-5.2935,-5.3201,-5.3421,-5.4354,-5.4982,-5.5106,-5.5279,-5.5401,-5.5442,-5.5213,-5.5065,-5.4982,-5.4448,-5.3846,-5.3093,-5.2572,-5.2336,-5.232,-5.1852,-5.1604,-5.1588,-5.1398,-5.1401,-5.1586,-5.1806,-5.2059,-5.2362,-5.2539,-5.2696,-5.2817,-5.2903,-5.2938,-5.2938,-5.2938,-5.2938,-5.2989,-5.3058,-5.3076,-5.311,-5.3212,-5.3161,-5.3076,-5.3195,-5.3161,-5.3041,-5.3041,-5.2972,-5.2719,-5.1982,-5.1196,-5.0425,-4.9756,-4.9206,-4.8789,-4.8423,-4.7725,-4.696,-4.621,-4.5477,-4.4277,-4.2133,-4.181,-4.1437,-4.0347,-4.0144,0.0,-4.1033,-4.1017,-4.1095,-4.1375,-4.1409,-4.1529,-4.1889,0.0,0.0,-4.3462,-4.3512,-4.3694,-4.4092,-4.5202,-4.6146,-4.6891,-4.7636,-4.8001,-4.8001,-4.8082,-4.8378,-4.8889,-4.9486,-5.0437,-5.1644,-5.2098,-5.2756,-5.3501,-5.3501,-5.3501,-5.3501,-5.3501,-5.3501,-5.3501,-5.3501,-5.3501,-5.3501,-5.1214,-5.1214,-5.1214,-5.1214,-5.1214,-5.1214,-5.1214,-5.1214,-5.1261,-5.1494,-5.1665,-5.1895,-5.217,-5.2397,-5.2532,-5.2577,-5.3493,-5.4098,-5.4184,-5.4338,-5.438,-5.4184,-5.4184,-5.4114,-5.3915,-5.3915,-5.353,-5.2672,-5.2109,-5.1847,-5.1832,-5.1523,-5.1351,-5.1335,-5.081,-5.0751,-5.1083,-5.116,-5.1474,-5.1843,-5.1917,-5.2013,-5.2092,-5.2112,-5.2148,-5.2148,-5.2148,-5.22,-5.2236,-5.2414,-5.2468,-5.252,-5.2712,-5.2747,-5.2712,-5.2764,-5.2764,-5.2764,-5.2834,-5.2834,-5.2683,-5.2048,-5.1814,-5.1396,-5.0159,-4.9542,-4.9094,-4.8462,-4.7667,-4.6841,-4.6096,-4.5351,-4.4235,-4.2297,-4.1893,-4.1599,-4.0986,0.0,-4.1028,-4.1893,-4.183,-4.1839,-4.2054,-4.2071,-4.2336,-4.2965,-4.3015,-4.3545,0.0,-4.4854,-4.4903,-4.5019,-4.5632,-4.6311,-4.7057,-4.7686,-4.8067,-4.8166,-4.8166,-4.863,-4.9476,-4.9807,-5.0726,-5.2102,-5.2386,-5.2875,-5.3501,-5.3501,-5.3501,-5.3501,-5.3501,-5.3501,-5.3501,-5.3501,-5.3501,-5.3501,-5.1214,-5.1214,-5.1214,-5.1214,-5.1214,-5.1214,-5.1214,-5.1214,-5.1214,-5.1261,-5.1308,-5.1401,-5.168,-5.1757,-5.1864,-5.2078,-5.2246,-5.2593,-5.3186,-5.323,-5.3274,-5.323,-5.323,-5.3186,-5.3142,-5.3142,-5.3095,-5.2942,-5.2069,-5.1657,-5.1626,-5.1033,-5.0723,-5.0751,-5.0827,-5.0849,-5.0975,-5.154,-5.1493,-5.1129,-5.1623,-5.1522,-5.1065,-5.122,-5.1385,-5.1549,-5.1549,-5.1659,-5.1786,-5.1822,-5.1858,-5.1858,-5.2076,-5.204,-5.1911,-5.2109,-5.2053,-5.2069,-5.2518,-5.257,-5.2447,-5.2348,-5.1833,-5.1318,-5.1086,-5.0056,-4.9094,-4.8978,-4.8349,-4.7603,-4.6874,-4.6129,-4.5102,-4.3545,-4.2767,-4.2133,-4.1415,0.0,-4.1785,-4.3131,-4.328,-4.3761,-4.5003,-4.5119,-4.5152,-4.5268,-4.5284,-4.5384,-4.5616,-4.5616,-4.5897,-4.6527,-4.6659,-4.7073,-4.7819,-4.7934,-4.8315,-4.8945,-4.8945,-4.9393,-5.0259,-5.1095,-5.1699,-5.2135,-5.2977,-5.3382,-5.3501,-5.3501,-5.3501,-5.3501,-5.3501,-5.3501,-5.3501,-5.3501,-5.3501,-5.3501,-5.1214,-5.1214,-5.1214,-5.1214,-5.1214,-5.1214,-5.1214,-5.1214,-5.1214,-5.1214,-5.1214,-5.1261,-5.1354,-5.1401,-5.1448,-5.1556,-5.1556,-5.168,-5.2033,-5.2306,-5.2457,-5.2457,-5.2457,-5.2457,-5.2457,-5.2306,-5.2261,-5.2261,-5.1804,-5.1607,-5.1607,-5.1071,-5.0825,-5.0795,-5.05,-5.0419,-5.0623,-5.0894,-5.0963,-5.0918,-5.1177,-5.1177,-5.103,-5.1135,-5.12,-5.1296,-5.1296,-5.1335,-5.1391,-5.1126,-5.117,-5.1276,-5.1216,-5.1199,-5.1252,-5.1455,-5.1725,-5.2013,-5.2266,-5.2373,-5.2409,-5.2409,-5.2161,-5.1796,-5.1398,-5.075,-5.0171,-4.9773,-4.911,-4.8365,-4.7636,-4.6891,-4.5781,-4.3896,-4.33,0.0,0.0,-4.2572,-4.3118,-4.4622,-4.4787,-4.5052,-4.5715,-4.5798,-4.5947,-4.6361,-4.6013,-4.6146,-4.6941,-4.6609,-4.6725,-4.7471,-4.7487,-4.7852,-4.8597,-4.8597,-4.8961,-4.9707,-4.9707,-5.0105,-5.0888,-5.1409,-5.1913,-5.24,-5.3061,-5.3348,-5.3348,-5.3467,-5.3501,-5.3501,-5.3501,-5.3501,-5.3501,-5.3501,-5.3501,-5.3501,-5.1214,-5.1214,-5.1214,-5.1214,-5.1214,-5.1214,-5.1214,-5.1214,-5.1214,-5.1214,-5.1214,-5.1214,-5.1214,-5.1214,-5.1214,-5.1214,-5.1214,-5.1214,-5.1214,-5.1617,-5.1803,-5.1803,-5.1895,-5.1941,-5.2002,-5.1741,-5.1587,-5.1587,-5.1541,-5.1494,-5.1479,-5.1182,-5.1046,-5.1016,-5.0472,-5.0334,-5.0483,-5.0587,-5.0686,-5.0823,-5.091,-5.0904,-5.0878,-5.0878,-5.0936,-5.0979,-5.0979,-5.1022,-5.1014,-5.0622,-5.0673,-5.08,-5.0636,-5.0572,-5.0655,-5.0903,-5.1302,-5.1704,-5.1921,-5.2086,-5.2266,-5.2302,-5.2318,-5.2189,-5.1661,-5.1431,-5.1149,-5.0568,-4.9872,-4.9193,-4.863,-4.7918,-4.6808,-4.4922,0.0,0.0,0.0,-4.4095,-4.4605,-4.5897,-4.6046,-4.6113,-4.6278,-4.6311,-4.6543,-4.7106,-4.6626,-4.6808,-4.7934,-4.7454,-4.7487,-4.8233,-4.8266,-4.8531,-4.9094,-4.9276,-4.974,-5.0469,-5.0469,-5.0833,-5.1564,-5.1687,-5.2056,-5.2624,-5.2972,-5.3144,-5.3213,-5.3382,-5.3467,-5.3501,-5.3501,-5.3501,-5.3501,-5.3501,-5.3501,-5.3501,-5.1214,-5.1214,-5.1214,-5.1214,-5.1214,-5.1214,-5.1214,-5.1214,-5.1214,-5.1214,-5.1214,-5.1214,-5.1214,-5.1214,-5.1214,-5.1214,-5.1214,-5.1214,-5.1214,-5.1229,-5.1261,-5.1261,-5.1494,-5.1741,-5.2002,-5.1741,-5.1587,-5.1587,-5.1354,-5.1214,-5.1214,-5.1216,-5.1201,-5.1186,-5.1141,-5.1126,-5.1173,-5.139,-5.1167,-5.0653,-5.0909,-5.0574,-4.9982,-4.9982,-5.0129,-5.0378,-5.0378,-5.0493,-5.062,-5.0617,-5.0602,-5.0629,-5.0824,-5.0459,-5.003,-5.0498,-5.0485,-5.0525,-5.1333,-5.1684,-5.1888,-5.2066,-5.2139,-5.2158,-5.2272,-5.1796,-5.1299,-5.1249,-5.0634,-5.0121,-5.0055,-4.9442,-4.8663,-4.7819,0.0,0.0,-4.5732,-4.5632,-4.593,-4.6725,-4.6825,-4.709,-4.7769,-4.7835,-4.7868,-4.7918,-4.7868,-4.7885,-4.8001,-4.7951,-4.8266,-4.9011,-4.9028,-4.9061,-4.911,-4.979,-5.0485,-5.1232,-5.1232,-5.163,-5.2326,-5.2451,-5.2539,-5.2589,-5.2834,-5.3007,-5.3179,-5.323,-5.3332,-5.3501,-5.3501,-5.3501,-5.3501,-5.3501,-5.3501,-5.3501,-5.1214,-5.1214,-5.1214,-5.1214,-5.1214,-5.1214,-5.1214,-5.1214,-5.1214,-5.1214,-5.1214,-5.1214,-5.1214,-5.1214,-5.1214,-5.1214,-5.1214,-5.1214,-5.1214,-5.1214,-5.1214,-5.1214,-5.1308,-5.1401,-5.1509,-5.1401,-5.1354,-5.1354,-5.1261,-5.1214,-5.1214,-5.1214,-5.1214,-5.1214,-5.1214,-5.1214,-5.1214,-5.1308,-5.1204,-5.0979,-5.1087,-5.0983,-5.0696,-5.0696,-5.0788,-5.0849,-5.0849,-5.0925,-5.0895,-5.0472,-5.047,-5.0573,-5.0339,-5.0207,-5.0196,-5.0507,-5.0305,-5.0088,-5.0411,-5.0845,-5.1247,-5.1647,-5.1737,-5.1758,-5.1961,-5.1908,-5.1782,-5.1782,-5.131,-5.0866,-5.0866,-5.0286,-4.9558,-4.8812,0.0,-4.7487,-4.7206,-4.7156,-4.7438,-4.8183,-4.868,-4.9061,-4.9342,-4.9375,-4.9375,-4.9375,-4.9375,-4.9375,-4.9375,-4.9375,-4.9508,-4.979,-5.022,-5.0452,-5.0452,-5.0734,-5.1231,-5.1995,-5.1995,-5.2144,-5.2409,-5.2445,-5.248,-5.2464,-5.2624,-5.2764,-5.2834,-5.311,-5.3264,-5.3348,-5.3467,-5.3501,-5.3501,-5.3501,-5.3501,-5.3501,-5.1214,-5.1214,-5.1214,-5.1214,-5.1214,-5.1214,-5.1214,-5.1214,-5.1214,-5.1214,-5.1214,-5.1214,-5.1214,-5.1214,-5.1214,-5.1214,-5.1214,-5.1214,-5.1214,-5.1214,-5.1214,-5.1214,-5.1214,-5.1214,-5.1214,-5.1214,-5.1214,-5.1214,-5.1214,-5.1214,-5.1214,-5.1214,-5.1214,-5.1214,-5.1214,-5.1214,-5.1214,-5.1214,-5.1214,-5.1214,-5.1214,-5.1214,-5.1214,-5.1214,-5.1214,-5.1214,-5.1214,-5.1214,-5.1154,-5.0659,-5.0633,-5.0727,-5.0412,-5.0364,-5.0374,-5.0321,-5.0082,-4.9943,-4.9986,-5.0168,-5.0453,-5.0912,-5.1092,-5.1242,-5.145,-5.1704,-5.1921,-5.1921,-5.1726,-5.1558,-5.1558,-5.1196,-5.0651,-4.9906,-4.9359,-4.8961,-4.873,-4.8696,-4.8895,-4.9392,-4.9906,-5.022,-5.022,-5.022,-5.022,-5.022,-5.022,-5.022,-5.022,-5.022,-5.032,-5.0535,-5.1032,-5.1415,-5.1647,-5.1663,-5.1912,-5.2409,-5.2409,-5.2409,-5.2409,-5.2409,-5.2409,-5.2426,-5.2516,-5.257,-5.2624,-5.2903,-5.3041,-5.3127,-5.3348,-5.3433,-5.3416,-5.3467,-5.3501,-5.3501,-5.1229,-5.1214,-5.1214,-5.1214,-5.1214,-5.1214,-5.1214,-5.1214,-5.1214,-5.1214,-5.1214,-5.1214,-5.1214,-5.1214,-5.1214,-5.1214,-5.1214,-5.1214,-5.1214,-5.1214,-5.1214,-5.1214,-5.1214,-5.1214,-5.1214,-5.1214,-5.1214,-5.1214,-5.1214,-5.1214,-5.1214,-5.1214,-5.1214,-5.1214,-5.1214,-5.1214,-5.1214,-5.1214,-5.1214,-5.1214,-5.1214,-5.1214,-5.1214,-5.1214,-5.1214,-5.1214,-5.1214,-5.1214,-5.1214,-5.1214,-5.1214,-5.1214,-5.1214,-5.0904,-5.0472,-4.9809,-4.9747,-4.9968,-5.0218,-4.9787,-4.9382,-4.9819,-5.0198,-5.0547,-5.0761,-5.1151,-5.1499,-5.1499,-5.1811,-5.2102,-5.2102,-5.2283,-5.2177,-5.1431,-5.1315,-5.1032,-5.032,-5.022,-5.022,-5.022,-5.022,-5.0237,-5.0237,-5.0237,-5.0237,-5.0237,-5.0237,-5.0237,-5.0237,-5.0237,-5.0551,-5.1299,-5.1315,-5.168,-5.2373,-5.2409,-5.2409,-5.2409,-5.2409,-5.2409,-5.2409,-5.2409,-5.2409,-5.2409,-5.2409,-5.248,-5.2589,-5.2589,-5.2729,-5.2903,-5.311,-5.3179,-5.3213,-5.3416,-5.3501,-5.3501,-5.1902,-5.1528,-5.1214,-5.1214,-5.1214,-5.1214,-5.1214,-5.1214,-5.1214,-5.1214,-5.1214,-5.1214,-5.1214,-5.1214,-5.1214,-5.1214,-5.1214,-5.1214,-5.1214,-5.1214,-5.1214,-5.1214,-5.1214,-5.1214,-5.1214,-5.1214,-5.1214,-5.1214,-5.1214,-5.1214,-5.1214,-5.1214,-5.1214,-5.1214,-5.1214,-5.1214,-5.1214,-5.1214,-5.1214,-5.1214,-5.1214,-5.1214,-5.1214,-5.1214,-5.1214,-5.1214,-5.1214,-5.1214,-5.1214,-5.1214,-5.1214,-5.1214,-5.1214,-5.1126,-5.0978,-5.0783,-5.0439,-5.0125,-5.0216,-4.9869,-4.957,-4.9843,-4.9628,-4.947,-4.9884,-5.0292,-5.0679,-5.0946,-5.1355,-5.1774,-5.203,-5.2139,-5.2164,-5.2075,-5.1647,-5.1232,-5.0982,-5.0949,-5.0949,-5.0949,-5.1413,-5.1728,-5.1728,-5.1728,-5.1728,-5.1728,-5.1728,-5.1728,-5.1728,-5.1728,-5.1827,-5.2078,-5.2078,-5.2194,-5.2409,-5.2409,-5.2409,-5.2409,-5.2409,-5.2409,-5.2409,-5.2409,-5.2409,-5.2409,-5.2409,-5.2409,-5.248,-5.257,-5.2624,-5.2694,-5.2903,-5.3076,-5.3213,-5.3264,-5.3382,-5.3501,-5.2247,-5.1872,-5.1528,-5.1274,-5.1214,-5.1214,-5.1214,-5.1214,-5.1214,-5.1214,-5.1214,-5.1214,-5.1214,-5.1214,-5.1214,-5.1214,-5.1214,-5.1214,-5.1214,-5.1214,-5.1214,-5.1214,-5.1214,-5.1214,-5.1214,-5.1214,-5.1214,-5.1214,-5.1214,-5.1214,-5.1214,-5.1214,-5.1214,-5.1214,-5.1214,-5.1214,-5.1214,-5.1214,-5.1214,-5.1214,-5.1214,-5.1214,-5.1214,-5.1214,-5.1214,-5.1214,-5.1214,-5.1214,-5.1214,-5.1214,-5.1214,-5.1214,-5.1214,-5.1214,-5.1214,-5.1214,-5.0883,-5.0584,-5.0584,-5.0229,-4.9854,-5.0007,-4.9527,-4.9114,-4.9419,-4.9665,-4.9963,-5.0354,-5.087,-5.1392,-5.1904,-5.2066,-5.2175,-5.2373,-5.2045,-5.1746,-5.1746,-5.1746,-5.1746,-5.1746,-5.2144,-5.2409,-5.2409,-5.2409,-5.2409,-5.2409,-5.2409,-5.2409,-5.2409,-5.2409,-5.2409,-5.2409,-5.2409,-5.2409,-5.2409,-5.2409,-5.2409,-5.2409,-5.2409,-5.2409,-5.2409,-5.2409,-5.2409,-5.2409,-5.2409,-5.2409,-5.2426,-5.248,-5.2535,-5.2535,-5.2694,-5.2868,-5.2972,-5.3144,-5.3264,-5.3382,-5.2411,-5.2232,-5.1992,-5.1334,-5.1214,-5.1214,-5.1214,-5.1214,-5.1214,-5.1214,-5.1214,-5.1214,-5.1214,-5.1214,-5.1214,-5.1214,-5.1214,-5.1214,-5.1214,-5.1214,-5.1214,-5.1214,-5.1214,-5.1214,-5.1214,-5.1214,-5.1214,-5.1214,-5.1214,-5.1214,-5.1214,-5.1214,-5.1214,-5.1214,-5.1214,-5.1214,-5.1214,-5.1214,-5.1214,-5.1214,-5.1214,-5.1214,-5.1214,-5.1214,-5.1214,-5.1214,-5.1214,-5.1214,-5.1214,-5.1214,-5.1214,-5.1214,-5.1214,-5.1214,-5.1214,-5.1214,-5.1214,-5.1214,-5.1214,-5.0734,-5.0285,-5.0285,-4.9808,-4.9377,-4.9359,-4.9314,-4.9409,-4.9851,-5.0363,-5.093,-5.1631,-5.1904,-5.2102,-5.2338,-5.2373,-5.2373,-5.2409,-5.2409,-5.2409,-5.2409,-5.2409,-5.2409,-5.2409,-5.2409,-5.2409,-5.2409,-5.2409,-5.2409,-5.2409,-5.2409,-5.2409,-5.2409,-5.2409,-5.2409,-5.2409,-5.2409,-5.2409,-5.2409,-5.2409,-5.2409,-5.2409,-5.2409,-5.2409,-5.2409,-5.2409,-5.2409,-5.2409,-5.2409,-5.2409,-5.2409,-5.2535,-5.2589,-5.2624,-5.3007,-5.3179,-5.323,-5.3099,-5.2561,-5.1992,-5.1334,-5.1214,-5.1214,-5.1214,-5.1214,-5.1214,-5.1214,-5.1214,-5.1214,-5.1214,-5.1214,-5.1214,-5.1214,-5.1214,-5.1214,-5.1214,-5.1214,-5.1214,-5.1214,-5.1214,-5.1214,-5.1214,-5.1214,-5.1214,-5.1214,-5.1214,-5.1214,-5.1214,-5.1214,-5.1214,-5.1214,-5.1214,-5.1214,-5.1214,-5.1214,-5.1214,-5.1214,-5.1214,-5.1214,-5.1214,-5.1214,-5.1214,-5.1214,-5.1214,-5.1214,-5.1214,-5.1214,-5.1214,-5.1214,-5.1214,-5.1214,-5.1214,-5.1214,-5.1214,-5.1214,-5.1214,-5.1063,-5.0958,-5.0958,-5.0483,-4.9945,-4.9596,-4.9426,-4.9447,-5.0076,-5.0151,-5.0347,-5.1167,-5.1371,-5.1557,-5.2086,-5.2175,-5.2211,-5.239,-5.2409,-5.2409,-5.2409,-5.2409,-5.2409,-5.2409,-5.2409,-5.2409,-5.2409,-5.2409,-5.2409,-5.2409,-5.2409,-5.2409,-5.2409,-5.2409,-5.2409,-5.2409,-5.2409,-5.2409,-5.2409,-5.2409,-5.2409,-5.2409,-5.2409,-5.2409,-5.2409,-5.2409,-5.2409,-5.2409,-5.2409,-5.2409,-5.2409,-5.2445,-5.2499,-5.2589,-5.2694,-5.2938,-5.323,-5.3369,-5.2905,-5.2351,-5.1394,-5.1214,-5.1214,-5.1214,-5.1214,-5.1214,-5.1214,-5.1214,-5.1214,-5.1214,-5.1214,-5.1214,-5.1214,-5.1214,-5.1214,-5.1214,-5.1214,-5.1214,-5.1214,-5.1214,-5.1214,-5.1214,-5.1214,-5.1214,-5.1214,-5.1214,-5.1214,-5.1214,-5.1214,-5.1214,-5.1214,-5.1214,-5.1214,-5.1214,-5.1214,-5.1214,-5.1214,-5.1214,-5.1214,-5.1214,-5.1214,-5.1214,-5.1214,-5.1214,-5.1214,-5.1214,-5.1214,-5.1214,-5.1214,-5.1214,-5.1214,-5.1214,-5.1214,-5.1214,-5.1214,-5.1214,-5.1214,-5.1214,-5.1214,-5.096,-5.0541,-5.0004,-4.9657,-4.9639,-5.0298,-5.0258,-5.0381,-5.1363,-5.1334,-5.1408,-5.1993,-5.2102,-5.2175,-5.2373,-5.2409,-5.2409,-5.2409,-5.2409,-5.2409,-5.2409,-5.2409,-5.2409,-5.2409,-5.2409,-5.2409,-5.2409,-5.2409,-5.2409,-5.2409,-5.2409,-5.2409,-5.2409,-5.2409,-5.2409,-5.2409,-5.2409,-5.2409,-5.2409,-5.2409,-5.2409,-5.2409,-5.2409,-5.2409,-5.2409,-5.2409,-5.2409,-5.2409,-5.2409,-5.2445,-5.2499,-5.257,-5.2834,-5.323,-5.3428,-5.3099,-5.2636,-5.1424,-5.1214,-5.1214,-5.1214,-5.1214,-5.1214,-5.1214,-5.1214,-5.1214,-5.1214,-5.1214,-5.1214,-5.1214,-5.1214,-5.1214,-5.1214,-5.1214,-5.1214,-5.1214,-5.1214,-5.1214,-5.1214,-5.1214,-5.1214,-5.1214,-5.1214,-5.1214,-5.1214,-5.1214,-5.1214,-5.1214,-5.1214,-5.1214,-5.1214,-5.1214,-5.1214,-5.1214,-5.1214,-5.1214,-5.1214,-5.1214,-5.1214,-5.1214,-5.1214,-5.1214,-5.1214,-5.1214,-5.1214,-5.1214,-5.1214,-5.1214,-5.1214,-5.1214,-5.1214,-5.1214,-5.1214,-5.1214,-5.1214,-5.1214,-5.1214,-5.1065,-5.048,-5.008,-4.9942,-5.0544,-5.0495,-5.0657,-5.1654,-5.1582,-5.1583,-5.2064,-5.2211,-5.227,-5.239,-5.2409,-5.2409,-5.2409,-5.2409,-5.2409,-5.2409,-5.2409,-5.2409,-5.2409,-5.2409,-5.2409,-5.2409,-5.2409,-5.2409,-5.2409,-5.2409,-5.2409,-5.2409,-5.2409,-5.2409,-5.2409,-5.2409,-5.2409,-5.2409,-5.2409,-5.2409,-5.2409,-5.2409,-5.2409,-5.2409,-5.2409,-5.2409,-5.2409,-5.2409,-5.2409,-5.2409,-5.257,-5.2799,-5.311,-5.3339,-5.2725,-5.2097,-5.1349,-5.1214,-5.1214,-5.1214,-5.1214,-5.1214,-5.1214,-5.1214,-5.1214,-5.1214,-5.1214,-5.1214,-5.1214,-5.1214,-5.1214,-5.1214,-5.1214,-5.1214,-5.1214,-5.1214,-5.1214,-5.1214,-5.1214,-5.1214,-5.1214,-5.1214,-5.1214,-5.1214,-5.1214,-5.1214,-5.1214,-5.1214,-5.1214,-5.1214,-5.1214,-5.1214,-5.1214,-5.1214,-5.1214,-5.1214,-5.1214,-5.1214,-5.1214,-5.1214,-5.1214,-5.1214,-5.1214,-5.1214,-5.1214,-5.1214,-5.1214,-5.1214,-5.1214,-5.1214,-5.1214,-5.1214,-5.1214,-5.1214,-5.1214,-5.1214,-5.1199,-5.1109,-5.0755,-5.0548,-5.0803,-5.0713,-5.0797,-5.1513,-5.1928,-5.222,-5.24,-5.2604,-5.2651,-5.2437,-5.2409,-5.2409,-5.2409,-5.2409,-5.2409,-5.2409,-5.2409,-5.2409,-5.2409,-5.2409,-5.2409,-5.2409,-5.2409,-5.2409,-5.2409,-5.2409,-5.2409,-5.2409,-5.2409,-5.2409,-5.2409,-5.2409,-5.2409,-5.2409,-5.2409,-5.2409,-5.2409,-5.2409,-5.2409,-5.2409,-5.2409,-5.2409,-5.2409,-5.2409,-5.2409,-5.2409,-5.257,-5.2624,-5.2694,-5.2845,-5.2396,-5.1992,-5.1334,-5.1214,-5.1214,-5.1214,-5.1214,-5.1214,-5.1214,-5.1214,-5.1214,-5.1214,-5.1214,-5.1214,-5.1214,-5.1214,-5.1214,-5.1214,-5.1214,-5.1214,-5.1214,-5.1214,-5.1214,-5.1214,-5.1214,-5.1214,-5.1214,-5.1214,-5.1214,-5.1214,-5.1214,-5.1214,-5.1214,-5.1214,-5.1214,-5.1214,-5.1214,-5.1214,-5.1214,-5.1214,-5.1214,-5.1214,-5.1214,-5.1214,-5.1214,-5.1214,-5.1214,-5.1214,-5.1214,-5.1214,-5.1214,-5.1214,-5.1214,-5.1214,-5.1214,-5.1214,-5.1214,-5.1214,-5.1214,-5.1214,-5.1214,-5.1214,-5.1214,-5.1214,-5.1083,-5.1012,-5.1227,-5.1105,-5.1177,-5.1853,-5.2155,-5.2444,-5.2883,-5.3204,-5.3431,-5.3412,-5.3146,-5.2821,-5.2423,-5.2409,-5.2409,-5.2409,-5.2409,-5.2409,-5.2409,-5.2409,-5.2409,-5.2409,-5.2409,-5.2409,-5.2409,-5.2409,-5.2409,-5.2409,-5.2409,-5.2409,-5.2409,-5.2409,-5.2409,-5.2409,-5.2409,-5.2409,-5.2409,-5.2409,-5.2409,-5.2409,-5.2409,-5.2409,-5.2409,-5.2409,-5.2409,-5.2426,-5.248,-5.2535,-5.2589]},{"header":{"parameterUnit":"m.s-1","parameterCategory":1,"la1":30.6,"la2":28.766,"lo1":-90.7593,"lo2":-88.6598,"dy":0.0162,"dx":0.0183,"nx":116,"ny":114,"refTime":"2024-07-04T06:00:00:Z","depth":0,"parameterNumber":3,"parameterNumberName":"V-component_of_WINDS"},"data":[0.0,0.0,0.0,0.0,0.0,0.0,0.0,0.0,0.0,0.0,0.0,0.0,0.0,0.0,0.0,0.0,0.0,0.0,0.0,0.0,0.0,0.0,0.0,0.0,0.0,0.0,0.0,0.0,0.0,0.0,0.0,0.0,0.0,0.0,0.0,0.0,0.0,0.0,0.0,0.0,0.0,0.0,0.0,0.0,0.0,0.0,0.0,0.0,0.0,0.0,0.0,0.0,0.0,0.0,0.0,0.0,0.0,0.0,0.0,0.0,0.0,0.0,0.0,0.0,0.0,0.0,0.0,0.0,0.0,0.0,0.0,0.0,0.0,0.0,0.0,0.0,0.0,0.0,0.0,0.0,0.0,0.0,0.0,0.0,0.0,0.0,0.0,0.0,0.0,0.0,0.0,0.0,0.0,0.0,0.0,0.0,0.0,0.0,0.0,0.0,0.0,0.0,0.0,0.0,0.0,0.0,0.0,0.0,0.0,0.0,0.0,0.0,0.0,0.0,0.0,0.0,0.0,0.0,0.0,0.0,0.0,0.0,0.0,0.0,0.0,0.0,0.0,0.0,0.0,0.0,0.0,0.0,0.0,0.0,0.0,0.0,0.0,0.0,0.0,0.0,0.0,0.0,0.0,0.0,0.0,0.0,0.0,0.0,0.0,0.0,0.0,0.0,0.0,0.0,0.0,0.0,0.0,0.0,0.0,0.0,0.0,0.0,0.0,0.0,0.0,0.0,0.0,0.0,0.0,0.0,0.0,0.0,0.0,0.0,0.0,0.0,0.0,0.0,0.0,0.0,0.0,0.0,0.0,0.0,0.0,0.0,0.0,0.0,0.0,0.0,0.0,0.0,0.0,0.0,0.0,0.0,0.0,0.0,0.0,0.0,0.0,0.0,0.0,0.0,0.0,0.0,0.0,0.0,0.0,0.0,0.0,0.0,0.0,0.0,0.0,0.0,0.0,0.0,0.0,0.0,0.0,0.0,0.0,0.0,0.0,0.0,0.0,0.0,0.0,0.0,0.0,0.0,0.0,0.0,0.0,0.0,0.0,0.0,0.0,0.0,0.0,0.0,0.0,0.0,0.0,0.0,0.0,0.0,0.0,0.0,0.0,0.0,0.0,0.0,0.0,0.0,0.0,0.0,0.0,0.0,0.0,0.0,0.0,0.0,0.0,0.0,0.0,0.0,0.0,0.0,0.0,0.0,0.0,0.0,0.0,0.0,0.0,0.0,0.0,0.0,0.0,0.0,0.0,0.0,0.0,0.0,0.0,0.0,0.0,0.0,0.0,0.0,0.0,0.0,0.0,0.0,0.0,0.0,0.0,0.0,0.0,0.0,0.0,0.0,0.0,0.0,0.0,0.0,0.0,0.0,0.0,0.0,0.0,0.0,0.0,0.0,0.0,0.0,0.0,0.0,0.0,0.0,0.0,0.0,0.0,0.0,0.0,0.0,0.0,0.0,0.0,0.0,0.0,0.0,0.0,0.0,0.0,0.0,0.0,0.0,0.0,0.0,0.0,0.0,0.0,0.0,0.0,0.0,0.0,0.0,0.0,0.0,0.0,0.0,0.0,0.0,0.0,0.0,0.0,0.0,0.0,0.0,0.0,0.0,0.0,0.0,0.0,0.0,0.0,0.0,0.0,0.0,0.0,0.0,0.0,0.0,0.0,0.0,0.0,0.0,0.0,0.0,0.0,0.0,0.0,0.0,0.0,0.0,0.0,0.0,0.0,0.0,0.0,0.0,0.0,0.0,0.0,0.0,0.0,0.0,0.0,0.0,0.0,0.0,0.0,0.0,0.0,0.0,0.0,0.0,0.0,0.0,0.0,0.0,0.0,0.0,0.0,0.0,0.0,0.0,0.0,0.0,0.0,0.0,0.0,0.0,0.0,0.0,0.0,0.0,0.0,0.0,0.0,0.0,0.0,0.0,0.0,0.0,0.0,0.0,0.0,0.0,0.0,0.0,0.0,0.0,0.0,0.0,0.0,0.0,0.0,0.0,0.0,0.0,0.0,0.0,0.0,0.0,0.0,0.0,0.0,0.0,0.0,0.0,0.0,0.0,0.0,0.0,0.0,0.0,0.0,0.0,0.0,0.0,0.0,0.0,0.0,0.0,0.0,0.0,0.0,0.0,0.0,0.0,0.0,0.0,0.0,0.0,0.0,0.0,0.0,0.0,0.0,0.0,0.0,0.0,0.0,0.0,0.0,0.0,0.0,0.0,0.0,0.0,0.0,0.0,0.0,0.0,0.0,0.0,0.0,0.0,0.0,0.0,0.0,0.0,0.0,0.0,0.0,0.0,0.0,0.0,0.0,0.0,0.0,0.0,0.0,0.0,0.0,0.0,0.0,0.0,0.0,0.0,0.0,0.0,0.0,0.0,0.0,0.0,0.0,0.0,0.0,0.0,0.0,0.0,0.0,0.0,0.0,0.0,0.0,0.0,0.0,0.0,0.0,0.0,0.0,0.0,0.0,0.0,0.0,0.0,0.0,0.0,0.0,0.0,0.0,0.0,0.0,0.0,0.0,0.0,0.0,0.0,0.0,0.0,0.0,0.0,0.0,0.0,0.0,0.0,0.0,0.0,0.0,0.0,0.0,0.0,0.0,0.0,0.0,0.0,0.0,0.0,0.0,0.0,0.0,0.0,0.0,0.0,0.0,0.0,0.0,0.0,0.0,0.0,0.0,0.0,0.0,0.0,0.0,0.0,0.0,0.0,0.0,0.0,0.0,0.0,0.0,0.0,0.0,0.0,0.0,0.0,0.0,0.0,0.0,0.0,0.0,0.0,0.0,0.0,0.0,0.0,0.0,0.0,0.0,0.0,0.0,0.0,0.0,0.0,0.0,0.0,0.0,0.0,0.0,0.0,0.0,0.0,0.0,0.0,0.0,0.0,0.0,0.0,0.0,0.0,0.0,0.0,0.0,0.0,0.0,0.0,0.0,0.0,0.0,0.0,0.0,0.0,0.0,0.0,0.0,0.0,0.0,0.0,0.0,0.0,0.0,0.0,0.0,0.0,0.0,0.0,0.0,0.0,0.0,0.0,0.0,0.0,0.0,0.0,0.0,0.0,0.0,0.0,0.0,0.0,0.0,0.0,0.0,0.0,0.0,0.0,0.0,0.0,0.0,0.0,0.0,0.0,0.0,0.0,0.0,0.0,0.0,0.0,0.0,0.0,0.0,0.0,0.0,0.0,0.0,0.0,0.0,0.0,0.0,0.0,0.0,0.0,0.0,0.0,0.0,0.0,0.0,0.0,0.0,0.0,0.0,0.0,0.0,0.0,0.0,0.0,0.0,0.0,0.0,0.0,0.0,0.0,0.0,0.0,0.0,0.0,0.0,0.0,0.0,0.0,0.0,0.0,0.0,0.0,0.0,0.0,0.0,0.0,0.0,0.0,0.0,0.0,0.0,0.0,0.0,0.0,0.0,0.0,0.0,0.0,0.0,0.0,0.0,0.0,0.0,0.0,0.0,0.0,0.0,0.0,0.0,0.0,0.0,0.0,0.0,0.0,0.0,0.0,0.0,0.0,0.0,0.0,0.0,0.0,0.0,0.0,0.0,0.0,0.0,0.0,0.0,0.0,0.0,0.0,0.0,0.0,0.0,0.0,0.0,0.0,0.0,0.0,0.0,0.0,0.0,0.0,0.0,0.0,0.0,0.0,0.0,0.0,0.0,0.0,0.0,0.0,0.0,0.0,0.0,0.0,0.0,0.0,0.0,0.0,0.0,0.0,0.0,0.0,0.0,0.0,0.0,0.0,0.0,0.0,0.0,0.0,0.0,0.0,0.0,0.0,0.0,0.0,0.0,0.0,0.0,0.0,0.0,0.0,0.0,0.0,0.0,0.0,0.0,0.0,0.0,0.0,0.0,0.0,0.0,0.0,0.0,0.0,0.0,0.0,0.0,0.0,0.0,0.0,0.0,0.0,0.0,0.0,0.0,0.0,0.0,0.0,0.0,0.0,0.0,0.0,0.0,0.0,0.0,0.0,0.0,0.0,0.0,0.0,0.0,0.0,0.0,0.0,0.0,0.0,0.0,0.0,0.0,0.0,0.0,0.0,0.0,0.0,0.0,0.0,0.0,0.0,0.0,0.0,0.0,0.0,0.0,0.0,0.0,0.0,0.0,0.0,0.0,0.0,0.0,0.0,0.0,0.0,0.0,0.0,0.0,0.0,0.0,0.0,0.0,0.0,0.0,0.0,0.0,0.0,0.0,0.0,0.0,0.0,0.0,0.0,0.0,0.0,0.0,0.0,0.0,0.0,0.0,0.0,0.0,0.0,0.0,0.0,0.0,0.0,0.0,0.0,0.0,0.0,0.0,0.0,0.0,0.0,0.0,0.0,0.0,0.0,0.0,0.0,0.0,0.0,0.0,0.0,0.0,0.0,0.0,0.0,0.0,0.0,0.0,0.0,0.0,0.0,0.0,0.0,0.0,0.0,0.0,0.0,0.0,0.0,0.0,0.0,0.0,0.0,0.0,0.0,0.0,0.0,0.0,0.0,0.0,0.0,0.0,0.0,0.0,0.0,0.0,0.0,0.0,0.0,0.0,0.0,0.0,0.0,0.0,0.0,0.0,0.0,0.0,0.0,0.0,0.0,0.0,0.0,0.0,0.0,0.0,0.0,0.0,0.0,0.0,0.0,0.0,0.0,0.0,0.0,0.0,0.0,0.0,0.0,0.0,0.0,0.0,0.0,0.0,0.0,0.0,0.0,0.0,0.0,0.0,0.0,0.0,0.0,0.0,0.0,0.0,0.0,0.0,0.0,0.0,0.0,0.0,0.0,0.0,0.0,0.0,0.0,0.0,0.0,0.0,0.0,0.0,0.0,0.0,0.0,0.0,0.0,0.0,0.0,0.0,0.0,0.0,0.0,0.0,0.0,0.0,0.0,0.0,0.0,0.0,0.0,0.0,0.0,0.0,0.0,0.0,0.0,0.0,0.0,0.0,0.0,0.0,0.0,0.0,0.0,0.0,0.0,0.0,0.0,0.0,0.0,0.0,0.0,0.0,0.0,0.0,0.0,0.0,0.0,0.0,0.0,0.0,0.0,0.0,0.0,0.0,0.0,0.0,0.0,0.0,0.0,0.0,0.0,0.0,0.0,0.0,0.0,0.0,0.0,0.0,0.0,0.0,0.0,0.0,0.0,0.0,0.0,0.0,0.0,0.0,0.0,0.0,0.0,0.0,0.0,0.0,0.0,0.0,0.0,0.0,0.0,0.0,0.0,0.0,0.0,0.0,0.0,0.0,0.0,0.0,0.0,0.0,0.0,0.0,0.0,0.0,0.0,0.0,0.0,0.0,0.0,0.0,0.0,0.0,0.0,0.0,0.0,0.0,0.0,0.0,0.0,0.0,0.0,0.0,0.0,0.0,0.0,0.0,0.0,0.0,0.0,0.0,0.0,0.0,0.0,0.0,0.0,0.0,0.0,0.0,0.0,0.0,0.0,0.0,0.0,0.0,0.0,0.0,0.0,0.0,0.0,0.0,0.0,0.0,0.0,0.0,0.0,0.0,0.0,0.0,0.0,0.0,0.0,0.0,0.0,0.0,0.0,0.0,0.0,0.0,0.0,0.0,0.0,0.0,0.0,0.0,0.0,0.0,0.0,0.0,0.0,0.0,0.0,0.0,0.0,0.0,0.0,0.0,0.0,0.0,0.0,0.0,0.0,0.0,0.0,0.0,0.0,0.0,0.0,0.0,0.0,0.0,0.0,0.0,0.0,0.0,0.0,0.0,0.0,0.0,0.0,0.0,0.0,0.0,0.0,0.0,0.0,0.0,0.0,0.0,0.0,0.0,0.0,0.0,0.0,0.0,0.0,0.0,0.0,0.0,0.0,0.0,0.0,0.0,0.0,0.0,0.0,0.0,0.0,0.0,0.0,0.0,0.0,0.0,0.0,0.0,0.0,0.0,0.0,0.0,0.0,0.0,0.0,0.0,0.0,0.0,0.0,0.0,0.0,0.0,0.0,0.0,0.0,0.0,0.0,0.0,0.0,0.0,0.0,0.0,0.0,0.0,0.0,0.0,0.0,0.0,0.0,0.0,0.0,0.0,0.0,0.0,0.0,0.0,0.0,0.0,0.0,0.0,0.0,0.0,0.0,0.6467,0.0,0.0,0.0,0.0,0.0,0.0,0.0,0.0,0.0,0.0,0.0,0.0,0.0,0.0,0.0,0.0,0.0,0.0,0.0,0.0,0.0,0.0,0.0,0.0,0.7916,0.783,0.7841,0.7374,0.6968,0.6698,0.0,0.0,0.0,0.0,0.0,0.664,0.6789,0.687,0.6892,0.7498,0.8248,0.9117,0.939,0.9196,0.8629,0.0,0.0,0.0,0.0,0.0,0.0,0.0,0.0,0.0,0.0,0.0,0.0,0.0,0.0,0.0,0.0,0.0,0.0,0.0,0.0,0.0,0.0,0.0,0.0,0.0,0.0,0.0,0.0,0.0,0.0,0.0,0.0,0.0,0.0,0.0,0.0,0.0,0.0,0.0,0.0,0.0,0.0,0.0,0.0,0.0,0.0,0.0,0.0,0.0,0.0,0.0,0.0,0.0,0.0,0.0,0.0,0.0,0.0,0.0,0.0,0.0,0.0,0.0,0.0,0.0,0.0,0.0,0.0,0.0,0.0,0.0,0.6929,0.0,0.0,0.0,0.0,0.0,0.0,0.0,0.0,0.0,0.0,0.0,0.0,0.0,0.0,0.0,0.0,0.0,0.0,0.0,0.0,0.0,0.7786,0.8,0.8156,0.8197,0.8158,0.7786,0.7461,0.7209,0.7012,0.0,0.0,0.0,0.7047,0.6759,0.6853,0.6988,0.7096,0.7758,0.8852,1.0333,1.079,1.0496,0.9624,0.9549,0.0,0.0,0.0,0.0,0.0,0.0,0.0,0.0,0.0,0.0,0.0,0.0,0.0,0.0,0.0,0.0,0.0,0.0,0.0,0.0,0.0,0.0,0.0,0.0,0.0,0.0,0.0,0.0,0.0,0.0,0.0,0.0,0.0,0.0,0.0,0.0,0.0,0.0,0.0,0.0,0.0,0.0,0.0,0.0,0.0,0.0,0.0,0.0,0.0,0.0,0.0,0.0,0.0,0.0,0.0,0.0,0.0,0.0,0.0,0.0,0.0,0.0,0.0,0.8431,0.8564,0.8679,0.8703,0.8784,0.8869,0.8228,0.7733,0.7318,0.0,0.0,0.0,0.0,0.0,0.0,0.0,0.0,0.0,0.0,0.0,0.0,0.0,0.0,0.0,0.0,0.0,0.0,0.0,0.0,0.7468,0.771,0.7879,0.7955,0.7929,0.7845,0.7709,0.7538,0.72,0.0,0.0,0.6841,0.6838,0.6956,0.6989,0.7165,0.7527,0.8629,0.9729,1.0839,1.1467,1.1889,1.2079,1.1226,1.0469,0.9805,0.0,0.0,0.0,0.0,0.0,0.0,0.0,0.0,0.0,0.0,0.0,0.0,0.0,0.0,0.0,0.0,0.0,0.0,0.0,0.0,0.0,0.0,0.0,0.0,0.0,0.0,0.0,0.0,0.0,0.0,0.0,0.0,0.0,0.0,0.0,0.0,0.0,0.0,0.0,0.0,0.0,0.67,0.6923,0.0,0.0,0.0,0.0,0.0,0.0,0.0,0.0,0.0,0.0,0.0,0.0,0.0,0.0,0.8642,0.8686,0.891,0.9205,0.9361,0.9442,0.9466,0.9588,0.9656,0.9663,0.9439,0.0,0.8296,0.8153,0.0,0.0,0.0,0.0,0.0,0.0,0.0,0.0,0.0,0.0,0.0,0.0,0.0,0.0,0.0,0.0,0.0,0.0,0.0,0.0,0.0,0.7996,0.8173,0.8345,0.8262,0.8188,0.8213,0.7766,0.7497,0.7497,0.7214,0.7148,0.7383,0.7349,0.7675,0.8401,0.9311,1.0176,1.1103,1.188,1.2537,1.3078,1.2887,1.2184,1.1164,1.0756,0.0,0.0,0.0,0.0,0.0,0.0,0.0,0.0,0.0,0.0,0.0,0.0,0.0,0.0,0.0,0.0,0.0,0.0,0.0,0.0,0.0,0.0,0.0,0.0,0.0,0.0,0.0,0.0,0.0,0.0,0.0,0.0,0.0,0.0,0.0,0.0,0.0,0.0,0.0,0.696,0.7396,0.7529,0.7549,0.759,0.0,0.0,0.0,0.0,0.0,0.0,0.0,0.0,0.0,0.9413,0.9542,0.9698,0.9889,0.989,0.9926,1.0059,1.0036,0.9988,0.9988,1.0049,1.008,1.0076,1.0015,0.9747,0.9327,0.8845,0.8391,0.7967,0.0,0.0,0.0,0.0,0.0,0.7336,0.0,0.0,0.0,0.0,0.0,0.0,0.0,0.0,0.0,0.0,0.0,0.0,0.7943,0.8294,0.8598,0.8868,0.8856,0.8838,0.0,0.8459,0.8178,0.8115,0.7762,0.7695,0.7978,0.8073,0.85,0.9246,0.9869,1.0575,1.1363,1.2242,1.3067,1.3797,1.4293,1.3757,1.2459,1.1927,1.1073,0.0,0.0,0.0,0.0,0.0,0.0,0.0,0.0,0.0,0.0,0.0,0.0,0.0,0.0,0.0,0.0,0.0,0.0,0.0,0.0,0.0,0.0,0.0,0.0,0.0,0.0,0.0,0.0,0.0,0.0,0.0,0.0,0.0,0.0,0.0,0.0,0.0,0.0,0.7554,0.8033,0.826,0.8329,0.841,0.0,0.0,0.0,0.0,0.0,0.0,0.9945,1.018,1.0363,1.0455,1.0597,1.0648,1.0622,1.0612,1.0563,1.0601,1.0465,1.0392,1.0392,1.0392,1.0392,1.0392,1.0351,1.027,1.0051,0.9424,0.9022,0.8689,0.8469,0.8269,0.8085,0.798,0.8031,0.8153,0.0,0.0,0.0,0.0,0.0,0.0,0.0,0.0,0.0,0.0,0.0,0.755,0.8213,0.8678,0.91,0.9436,0.9645,0.9645,0.0,0.0,0.8926,0.8659,0.8396,0.8397,0.8736,0.9244,0.9637,0.9959,1.0436,1.0989,1.1699,1.2609,1.3603,1.4596,1.5308,1.4852,1.3565,1.2978,1.2127,1.1132,0.0,0.0,0.0,0.0,0.0,0.0,0.0,0.0,0.0,0.0,0.0,0.0,0.0,0.0,0.0,0.0,0.0,0.0,0.0,0.0,0.0,0.0,0.0,0.0,0.0,0.0,0.0,0.0,0.0,0.0,0.0,0.0,0.0,0.0,0.0,0.0,0.0,0.0,0.0,0.8982,0.9237,0.0,0.0,0.0,0.0,0.9559,1.0007,1.0513,1.0939,1.1228,1.1288,1.0968,1.0986,1.0834,1.0507,1.0528,1.0541,1.0687,1.0694,1.0697,1.0697,1.0697,1.0697,1.069,1.0544,1.0477,1.0443,1.0061,0.9734,0.9337,0.932,0.9137,0.8824,0.8817,0.8964,0.9142,0.0,0.0,0.0,0.4904,0.5055,0.5219,0.5346,0.5809,0.6288,0.6742,0.717,0.7749,0.0,0.8978,0.9449,1.0079,1.0137,1.0083,0.9982,0.0,0.9231,0.8965,0.8768,0.8928,0.9493,0.9976,1.0375,1.0626,1.112,1.1605,1.218,1.2962,1.387,1.4815,1.5442,1.5618,1.5376,1.4421,1.335,1.2197,1.1455,1.0744,0.0,0.0,0.0,0.0,0.0,0.0,0.0,0.0,0.0,0.0,0.0,0.0,0.0,0.0,0.0,0.0,0.0,0.0,0.0,0.0,0.0,0.0,0.0,0.0,0.0,0.0,0.0,0.0,0.0,0.0,0.0,0.0,0.0,0.0,0.0,0.0,0.0,0.9734,0.9941,0.0,1.0205,1.0213,1.0339,1.0631,1.1053,1.1403,1.1638,1.1886,1.2005,1.2048,1.2055,1.2042,1.1949,1.1556,1.1392,1.1383,1.092,1.0721,1.0721,1.0721,1.0721,1.0717,1.0663,1.0639,1.0629,1.0524,1.0273,0.9951,0.9849,0.9687,0.9583,0.9481,0.9479,0.9445,0.4751,0.4589,0.0,0.4719,0.4924,0.5106,0.5336,0.5834,0.6376,0.6865,0.7353,0.8051,0.9125,0.945,0.9882,1.0652,1.0623,1.0485,1.031,1.0051,0.9745,0.9384,0.9468,0.9881,1.06,1.0836,1.1155,1.1486,1.1701,1.207,1.2565,1.331,1.4142,1.5107,1.57,1.6188,1.6536,1.5769,1.4685,1.341,1.2878,1.2102,1.1166,0.0,0.0,0.0,0.0,0.0,0.0,0.0,0.0,0.0,0.0,0.0,0.0,0.0,0.0,0.0,0.0,0.0,0.0,0.0,0.0,0.0,0.0,0.0,0.0,0.0,0.0,0.0,0.0,0.0,0.0,0.0,0.0,0.0,0.0,0.0,0.9985,1.0465,1.0684,1.0863,1.1041,1.111,1.124,1.1476,1.1837,1.2093,1.2203,1.2385,1.2475,1.2519,1.2523,1.2518,1.2441,1.2045,1.1714,1.1578,1.1115,1.0787,1.0721,1.0721,1.0721,1.0721,1.0721,1.0721,1.0721,1.0721,1.0605,1.0415,1.0259,1.0171,1.0114,1.0012,0.9917,0.9836,0.4452,0.4492,0.4607,0.4672,0.4916,0.5178,0.5449,0.5901,0.6443,0.712,0.7632,0.8433,0.9754,1.0011,1.0373,1.1032,1.1105,1.0882,1.034,1.0533,1.0454,0.9961,1.0503,1.12,1.2017,1.1844,1.1937,1.2414,1.2136,1.23,1.2861,1.357,1.443,1.5439,1.6251,1.67,1.6917,1.6917,1.606,1.4705,1.4103,1.3273,1.2316,0.0,0.0,0.0,0.0,0.0,0.0,0.0,0.0,0.0,0.0,0.0,0.0,0.0,0.0,0.0,0.0,0.0,0.0,0.0,0.0,0.0,0.0,0.0,0.0,0.0,0.0,0.0,0.0,0.0,0.0,0.0,0.0,0.0,0.9133,0.975,1.0461,1.1155,1.1407,1.1593,1.1776,1.1947,1.2048,1.2048,1.2373,1.2637,1.2637,1.2739,1.2638,1.2309,1.2309,1.2177,1.1846,1.1846,1.1648,1.1247,1.1181,1.1049,1.0721,1.0721,1.0721,1.0721,1.0721,1.0721,1.0721,1.0721,1.0721,1.0707,1.0558,1.0415,1.0293,1.0293,1.029,1.0287,0.4452,0.4312,0.4262,0.4329,0.4638,0.4994,0.5306,0.5996,0.6687,0.7275,0.7936,0.8727,0.9778,1.0107,1.0473,1.1063,1.0936,1.0767,1.0587,1.0466,1.0509,1.0743,1.13,1.1819,1.2288,1.2572,1.2729,1.2703,1.2773,1.2984,1.3298,1.3913,1.4723,1.573,1.6346,1.6821,1.7201,1.7201,1.6857,1.6213,1.5304,1.451,1.3805,0.0,0.0,0.0,0.0,0.0,0.0,0.0,0.0,0.0,0.0,0.0,0.0,0.0,0.0,0.0,0.0,0.0,0.0,0.0,0.0,0.0,0.0,0.0,0.0,0.0,0.0,0.0,0.0,0.0,0.0,0.0,0.9249,0.9922,0.9922,1.0599,1.1252,1.1585,1.1898,1.2105,1.2158,1.2316,1.2418,1.2418,1.2633,1.2763,1.2763,1.2808,1.277,1.2638,1.2638,1.2638,1.2507,1.2309,1.2111,1.1978,1.1446,1.1181,1.1049,1.0787,1.0721,1.0721,1.0721,1.0721,1.0721,1.0721,1.0721,1.0717,1.0673,1.0633,1.0599,1.0599,1.0527,1.0419,0.4436,0.4285,0.4228,0.4382,0.4663,0.5027,0.5446,0.6186,0.6858,0.7343,0.8084,0.8884,0.9634,0.9979,1.0298,1.0749,1.0749,1.0641,1.0527,1.0587,1.0906,1.1582,1.2023,1.2463,1.3016,1.3195,1.3252,1.328,1.3128,1.3292,1.3684,1.401,1.4675,1.5635,1.6062,1.6588,1.7153,1.7153,1.7137,1.6989,1.6301,1.5643,1.4984,1.4143,1.3616,1.325,1.2606,1.2193,1.1838,1.1509,0.0,0.0,0.0,0.0,0.0,0.0,0.0,0.0,0.0,0.0,0.0,0.0,0.0,0.0,0.0,0.0,0.0,0.0,0.0,0.0,0.0,0.0,0.0,0.0,1.0006,1.066,1.0873,1.1289,1.174,1.2069,1.2288,1.2446,1.2519,1.2621,1.2678,1.2678,1.2775,1.277,1.277,1.277,1.277,1.277,1.277,1.277,1.277,1.2638,1.2441,1.2309,1.1846,1.1516,1.1181,1.0982,1.085,0.0,1.0721,1.0721,1.0721,1.0721,1.0721,0.0,0.0,0.0,0.0,0.0,1.0663,1.0575,0.4436,0.4356,0.4386,0.461,0.4855,0.518,0.5704,0.6367,0.695,0.7363,0.8137,0.8884,0.9424,0.9721,0.9979,1.0268,1.0514,1.0556,1.0387,1.0918,1.1582,1.2324,1.2668,1.3175,1.3888,1.3696,1.3684,1.3883,1.3443,1.3443,1.3883,1.3913,1.443,1.5391,1.5683,1.6211,1.6925,1.6979,1.7113,1.7257,1.7026,1.655,1.595,1.5258,1.4853,1.4533,1.3879,1.3448,1.3083,1.2727,0.0,0.0,0.0,0.0,0.0,0.0,0.0,0.0,0.0,0.0,0.0,0.0,0.0,0.0,0.0,0.0,0.0,0.0,0.0,0.0,0.0,0.0,0.0,0.0,1.0863,1.1443,1.1813,1.1866,1.2102,1.2507,1.2584,1.2657,1.282,1.277,1.277,1.277,1.277,1.2778,1.2798,0.0,0.0,0.0,0.0,1.2897,1.2897,1.2897,1.2698,1.2433,1.2367,1.2032,1.1367,1.1301,1.1101,1.0835,1.0751,1.0748,1.0744,1.0727,1.0721,1.0721,1.0721,1.0721,1.0721,1.0721,1.0721,0.0,0.4486,0.4387,0.4386,0.4385,0.4762,0.5216,0.5647,0.6327,0.6975,0.7483,0.803,0.8651,0.94,0.9558,0.9781,1.025,1.0284,1.0454,0.0,0.0,1.2246,1.2614,1.3296,1.3749,1.3906,1.4064,1.4058,1.3883,1.3786,1.3786,1.3883,1.4112,1.4544,1.5172,1.5594,1.6015,1.6386,1.6831,1.7026,1.7066,1.7174,1.7011,1.6653,1.5972,1.5526,1.5148,1.4761,1.4294,1.3854,1.3493,1.2887,1.2161,1.1539,0.0,0.0,0.0,0.0,0.0,0.0,0.0,0.0,0.0,0.0,0.0,0.0,0.0,0.0,0.0,0.0,0.0,0.0,0.0,0.0,1.0919,1.15,1.2,1.2361,1.2473,1.245,1.2616,1.2694,1.2795,1.2832,1.277,1.277,1.277,1.277,1.2897,1.3035,1.3043,0.0,1.3262,1.3267,1.3267,1.3267,1.3267,1.3267,1.3198,0.0,0.0,1.2445,1.1898,1.1553,1.1481,1.1022,1.0836,1.0826,1.0772,1.0721,1.0721,1.0721,1.0721,1.0721,1.0721,1.0721,1.0721,0.5004,0.4753,0.464,0.473,0.4941,0.5275,0.5766,0.6446,0.7043,0.745,0.8064,0.8612,0.9022,0.9096,0.9269,0.966,1.0044,0.0,0.0,1.1833,1.2493,1.2898,1.355,1.3966,1.4099,1.4226,1.425,1.4118,1.3979,1.3979,1.4118,1.3968,1.4208,1.4688,1.4825,1.5153,1.5669,1.6062,1.6447,1.6831,1.7059,1.7059,1.6917,1.6527,1.6184,1.5855,1.5414,1.4972,1.4479,1.3836,1.3289,1.2698,1.1655,1.083,1.0091,0.0,0.0,0.0,0.0,0.0,0.0,0.0,0.0,0.0,0.0,0.0,0.0,0.0,0.0,0.9307,1.0082,0.0,1.111,1.1553,1.2004,1.2357,1.254,1.2645,1.2702,1.2702,1.2779,1.277,1.277,1.277,1.277,1.277,1.2917,1.3003,1.3088,1.3181,1.3275,1.3368,1.3372,1.3372,1.3372,1.3372,1.3372,1.3372,1.3231,1.2956,1.2815,1.2402,1.2058,1.171,1.143,1.1149,1.087,1.0782,1.0721,1.0721,1.0721,1.0721,1.0721,1.0721,1.0721,1.0721,0.5757,0.5388,0.5113,0.5217,0.5214,0.5365,0.5926,0.6532,0.7032,0.7349,0.8015,0.8508,0.8586,0.8649,0.8817,0.0,0.0,0.0,0.0,1.1914,1.2632,1.3131,1.3701,1.4081,1.4292,1.4298,1.4298,1.4298,1.407,1.407,1.4202,1.3775,1.3775,1.4154,1.3956,1.4238,1.4908,1.5194,1.5724,1.6393,1.6737,1.6831,1.6842,1.6752,1.6517,1.6191,1.5641,1.5184,1.4691,1.3757,1.3289,1.2798,1.1419,1.0816,1.0389,0.9443,0.9043,0.0,0.0,0.0,0.0,0.0,0.0,0.0,0.0,0.0,0.9196,0.9559,0.9896,1.0347,1.1005,1.1419,1.176,1.2081,1.2406,1.2617,1.2617,1.2743,1.277,1.277,1.277,1.277,1.277,1.277,1.277,1.277,1.2999,1.3108,1.3145,1.3323,1.3437,1.3474,1.3474,1.3474,1.3474,1.3474,1.3474,1.3474,1.3474,1.3335,1.2985,1.2916,1.2566,1.2011,1.1843,1.1451,1.0873,1.0749,1.0748,1.0721,1.0721,1.0721,1.0721,1.0721,1.0721,1.0721,0.6643,0.6376,0.5906,0.5447,0.5423,0.5572,0.5954,0.6359,0.6828,0.733,0.7728,0.813,0.8543,0.8596,0.8819,0.9327,0.0,0.0,1.131,1.2176,1.2904,1.3447,1.3972,1.4268,1.4298,1.4298,1.4298,1.4298,1.425,1.416,1.3931,1.3883,1.3738,1.3588,1.3811,1.395,1.4094,1.4813,1.5296,1.5581,1.6096,1.6292,1.6257,1.6001,1.584,1.5676,1.5092,1.4428,1.375,1.3167,1.26,1.2011,1.1251,1.08,1.0368,0.9594,0.9397,0.9311,0.888,0.8943,0.9264,0.971,0.9721,0.9741,0.0,0.0,1.0139,1.0465,1.0826,1.12,1.161,1.1975,1.228,1.2471,1.2674,1.2804,1.2804,1.2758,1.277,1.277,1.277,1.277,1.277,1.277,1.277,1.277,1.2999,1.3165,1.3331,1.3514,1.3685,1.3839,1.3843,1.3843,1.3843,1.3843,1.3843,1.3843,1.3843,1.3839,1.3768,1.3413,1.3195,1.3045,1.2266,1.1556,1.088,1.086,1.0843,1.0721,1.0721,1.0721,1.0721,1.0721,1.0721,1.0721,0.6727,0.6692,0.651,0.6198,0.5891,0.5793,0.6175,0.6613,0.7017,0.7406,0.7911,0.8298,0.8417,0.8543,0.8697,0.8955,0.9536,1.0272,1.118,1.2015,1.2789,1.3483,1.387,1.4141,1.4292,1.4298,1.4298,1.4298,1.416,1.4027,1.3883,1.3588,1.3298,1.3104,1.3044,1.3093,1.3286,1.3902,1.4478,1.5016,1.5534,1.557,1.5292,1.4865,1.4391,1.4013,1.4148,1.3802,0.0,0.0,1.1912,1.1416,1.0537,1.016,0.9925,0.9351,0.9269,0.9389,0.9431,0.9756,1.0149,1.057,1.0553,1.0556,1.0941,1.0873,1.0733,1.109,1.1366,1.1654,1.202,1.2288,1.2515,0.0,1.2787,1.277,1.277,1.277,1.277,1.277,1.277,1.277,1.277,1.277,1.277,1.277,1.3096,1.3291,1.3368,1.364,1.3827,1.39,1.39,1.39,1.39,1.39,1.39,1.39,1.39,1.39,1.39,1.3757,1.3539,1.3246,1.2373,1.1758,1.134,1.105,1.0793,1.0721,1.0721,1.0721,1.0721,1.0721,1.0721,1.0721,0.6899,0.6976,0.6992,0.6859,0.6477,0.6249,0.6404,0.6771,0.7192,0.7637,0.8153,0.8495,0.8489,0.8565,0.8646,0.8768,0.9368,1.0119,1.0948,1.1757,1.253,1.326,1.3682,1.3996,1.4183,1.4262,1.425,1.4208,1.4022,1.3835,1.369,1.3292,1.2953,1.2667,1.2565,1.2619,1.2861,1.3377,1.4052,1.4729,1.507,1.4963,1.4507,1.3795,1.3044,1.2457,1.292,1.2764,0.0,0.0,1.0951,1.0589,0.979,0.9509,0.9466,0.9173,0.9355,0.9766,1.0202,1.0622,1.1014,1.1435,1.1342,1.1277,1.1662,1.1412,1.1204,1.1512,1.1719,1.1926,1.2182,1.2414,1.2609,1.2739,1.2804,1.277,1.277,1.277,1.277,1.277,1.277,1.277,1.277,1.277,1.279,1.2905,1.3197,1.3392,1.3445,1.3738,1.39,1.39,1.39,1.39,1.39,1.39,1.39,1.39,1.39,1.39,1.39,1.39,1.3686,1.3246,1.2634,1.2138,1.1767,1.1272,1.0985,1.0778,1.0734,1.0721,1.0721,1.0721,1.0721,1.0721,0.7445,0.7419,0.7335,0.7209,0.7174,0.6999,0.6562,0.673,0.7211,0.8073,0.8358,0.8629,0.8959,0.8738,0.8706,0.8982,0.9246,0.9782,1.0665,1.1486,1.2174,1.2705,1.3483,1.3912,1.3918,1.4165,1.416,1.3931,1.3883,1.3642,1.3098,1.3098,1.2856,1.2419,1.2667,1.2813,1.2861,1.357,1.4196,1.4711,1.4718,1.4564,1.4198,1.2993,1.2059,1.1438,1.1333,0.0,0.0,1.0113,0.9619,0.9317,0.9076,0.9006,0.0,0.9228,0.9876,1.0674,1.1312,1.1604,1.1879,1.2245,1.2069,1.1881,1.2266,1.1892,1.1537,1.1732,1.1902,1.2024,1.2036,1.2324,1.2628,1.2637,1.2722,1.277,1.277,1.277,1.277,1.277,1.277,1.277,0.0,1.277,1.2905,1.3072,1.3262,1.3449,1.3558,1.3807,1.39,1.39,1.39,1.39,1.39,1.39,1.39,1.39,1.39,1.39,1.39,1.39,1.3686,1.3325,1.325,1.2798,1.1934,1.1771,1.1344,1.086,1.0778,1.0721,1.0721,1.0721,1.0721,1.0721,0.7281,0.7387,0.7447,0.7405,0.7405,0.7342,0.7189,0.7307,0.7624,0.8141,0.8721,0.0,0.0,0.0,0.0,0.0,0.9313,0.9642,1.0254,1.0979,1.1624,1.2161,1.2777,1.32,1.3381,1.3509,1.3553,1.3461,1.3083,1.2752,1.2431,1.2405,1.2098,1.1677,1.2109,1.237,1.2603,1.3244,1.3891,1.439,1.4525,1.4097,1.3342,1.2555,1.1558,1.0545,0.0,0.0,0.0,0.9455,0.9189,0.9056,0.8873,0.0,0.0,0.9622,1.0364,1.1058,1.1411,1.1859,1.2245,1.2587,1.2404,1.2222,1.2353,1.1909,1.1516,1.1581,1.1638,1.1679,1.1679,1.1967,1.2251,1.2373,1.254,1.2698,1.282,1.277,1.277,1.277,1.277,0.0,0.0,0.0,0.0,1.308,1.3267,1.3449,1.3562,1.3807,1.39,1.39,1.39,1.39,1.39,1.39,1.39,1.39,1.39,1.39,1.39,1.39,1.3829,1.3686,1.3396,1.2948,1.23,1.2039,1.1517,1.0877,1.0826,1.0809,1.0721,1.0721,1.0721,1.0721,0.7384,0.7484,0.7572,0.7572,0.7614,0.0,0.0,0.0,0.0,0.0,0.0,0.0,0.0,0.0,0.0,0.0,0.0,0.937,0.9852,1.0287,1.0747,1.1281,1.1892,1.2307,1.2485,1.2692,1.2779,1.2645,1.2238,1.1973,1.1839,1.1718,1.1501,1.1211,1.1772,1.2167,1.2448,1.331,1.3924,1.4275,1.4389,1.3905,1.2962,1.2183,1.1198,0.0,0.0,0.0,0.9108,0.8924,0.8856,0.8851,0.8906,0.9135,0.0,1.0146,1.0825,1.1482,1.177,1.2304,1.2814,1.2951,1.2776,1.2462,1.246,1.1972,1.1464,1.1338,1.1309,1.1289,1.1224,1.15,1.1801,1.1987,1.2272,1.2536,1.2714,1.2795,1.277,1.277,1.277,1.286,0.0,0.0,0.0,1.3177,1.3303,1.3478,1.3725,1.3843,1.39,1.39,1.39,1.39,1.39,1.39,1.39,1.39,1.39,1.39,1.39,1.39,1.39,1.39,1.3615,1.3267,1.2738,1.2329,1.1803,1.1155,1.0968,1.0789,1.0721,1.0721,1.0721,1.0721,0.7691,0.7691,0.7691,0.0,0.0,0.0,0.0,0.0,0.0,0.0,0.0,0.0,0.0,0.0,0.0,0.0,0.0,0.0,0.9433,0.9446,0.0,1.0092,1.0881,1.1329,1.1329,1.1778,1.1909,1.1659,1.1434,1.13,1.1318,1.1052,1.0945,1.0968,1.1664,1.2131,1.2461,1.3666,1.4274,1.4349,1.4368,1.3904,1.3054,1.194,0.0,0.0,0.0,0.0,0.8328,0.8514,0.8622,0.8744,0.9205,0.9692,0.0,1.0759,1.1373,1.194,1.2316,1.2937,1.3405,1.3419,1.3077,1.2671,1.2546,1.1951,1.1362,1.1025,1.0932,1.0863,1.0696,1.0948,1.1248,1.1451,1.1939,1.2357,1.254,1.2722,1.2774,0.0,0.0,0.0,0.0,0.0,0.0,1.3372,0.0,1.3535,1.3884,1.39,1.39,1.39,1.39,1.39,1.39,1.39,1.39,1.39,1.39,1.39,1.39,1.39,1.39,1.39,1.39,1.3686,1.3242,1.273,1.2219,1.1641,1.1152,1.0867,1.0731,1.0724,1.0721,1.0721,0.0,0.0,0.0,0.0,0.0,0.0,0.0,0.0,0.0,0.0,0.0,0.0,0.0,0.0,0.0,0.0,0.0,0.0,0.8839,0.8876,0.0,0.0,0.0,1.0298,1.0298,1.0612,1.0802,1.0896,1.0369,1.0169,1.0268,1.0065,1.0105,1.0412,1.1086,1.1736,1.2296,1.3252,1.3803,1.4028,0.0,1.3484,1.2869,0.0,0.0,0.0,0.0,0.0,0.8495,0.8285,0.8707,0.9474,1.0091,1.0548,1.0972,1.1444,1.1912,1.2354,1.2989,1.3377,1.3651,1.3811,1.3286,1.2735,1.2546,1.1651,1.0871,1.0781,1.044,1.0188,1.0335,1.0485,0.0,1.122,1.1748,0.0,1.2519,1.2722,0.0,1.3011,0.0,1.31,1.3283,1.3299,0.0,0.0,1.3575,1.3673,1.3892,1.39,1.39,1.39,1.39,1.39,1.39,1.39,1.39,1.39,1.39,1.39,1.39,1.39,1.39,1.39,1.39,1.3686,1.3321,1.3136,1.2596,1.1877,1.1583,1.1224,1.0809,1.0761,1.0721,1.0721,0.0,0.0,0.0,0.0,0.0,0.0,0.0,0.0,0.0,0.0,0.0,0.0,0.0,0.0,0.0,0.0,0.0,0.0,0.0,0.834,0.8282,0.8304,0.8769,0.9059,0.9158,0.9365,0.9567,0.9771,0.0,0.0,0.9499,0.9352,0.9545,1.0006,1.0693,1.1312,1.1964,1.2765,0.0,0.0,0.0,0.0,0.0,0.0,0.0,0.0,0.0,0.0,0.879,0.877,0.9289,1.007,1.0646,1.1012,1.1346,1.1759,0.0,1.2956,1.34,1.3736,1.3911,1.3816,1.3299,1.2691,1.2155,1.1247,1.0513,1.0274,0.992,0.971,0.9689,0.9969,1.0343,0.0,0.0,0.0,1.2402,1.2739,1.2986,0.0,1.3165,0.0,1.3474,1.349,1.3567,0.0,1.3619,1.3754,1.401,1.4022,1.4058,1.4131,1.4062,1.3985,1.39,1.39,1.39,1.39,1.39,1.39,1.39,1.39,1.39,1.39,0.0,1.3757,1.3543,1.3396,1.2944,1.2433,1.1916,1.1484,1.1134,1.0842,1.0721,1.0721,0.0,0.0,0.0,0.0,0.0,0.0,0.0,0.0,0.0,0.9944,1.0003,0.9973,0.9999,0.987,0.0,0.0,0.0,0.0,0.0,0.0,0.7659,0.7669,0.7754,0.7887,0.8073,0.8245,0.8424,0.8649,0.0,0.0,0.0,0.0,0.0,0.0,0.0,0.0,0.0,0.0,0.0,0.0,0.0,0.0,0.0,0.0,0.0,0.0,0.0,0.9421,0.9114,0.9463,0.9948,1.0467,1.0916,1.127,1.1542,1.1919,1.2611,1.3363,1.3587,1.391,1.4078,1.3596,1.3094,1.2445,1.1559,1.0837,1.0128,0.9615,0.9393,0.9257,0.9084,0.9453,0.9916,1.0331,0.0,1.1837,1.2219,1.2726,1.3076,1.3124,1.3295,1.3478,1.366,1.3606,1.375,1.3924,1.3798,1.3851,1.416,1.42,1.427,1.4391,1.4229,1.4062,1.3904,1.39,1.39,1.39,1.39,1.39,1.39,1.39,1.39,1.39,0.0,0.0,1.39,1.3539,1.3314,1.3029,1.2226,1.1722,1.15,1.1006,1.0738,1.0721,0.0,0.0,0.0,0.0,0.0,0.0,0.0,0.0,0.0,0.0,0.0,0.0,0.0,0.0,0.0,0.0,0.0,0.0,0.0,0.0,0.0,0.7077,0.7133,0.7238,0.7456,0.769,0.8004,0.0,0.0,0.0,0.0,0.0,0.0,0.0,0.0,0.0,0.0,0.0,0.0,0.0,0.0,0.0,0.0,0.0,0.0,0.0,0.9525,0.9349,0.9494,0.9554,0.9953,1.048,1.091,1.1349,1.1753,1.2033,1.2458,1.2871,1.3287,1.3434,1.3479,1.3385,1.2625,1.1852,1.133,1.0447,0.0,0.9271,0.893,0.8784,0.8848,0.9068,0.9449,1.0155,1.0834,1.1496,1.2008,1.254,1.299,0.0,1.3486,1.3664,1.3839,1.3855,0.0,0.0,0.0,1.4111,1.4176,1.431,1.4339,1.4225,1.4042,1.3932,1.39,1.39,1.39,1.39,1.39,1.39,1.39,1.39,1.39,1.39,0.0,0.0,1.39,1.3829,1.3599,1.3267,1.2959,1.2373,1.1657,1.1439,1.1097,1.0721,0.0,0.0,0.0,0.0,0.0,0.0,0.0,0.0,0.0,0.0,0.0,0.0,0.0,0.0,0.0,0.0,0.0,0.0,0.0,0.0,0.0,0.0,0.0,0.6862,0.719,0.7224,0.0,0.0,0.0,0.0,0.0,0.0,0.0,0.0,0.0,0.0,0.0,0.0,0.0,0.0,0.0,0.0,0.0,0.0,0.0,0.0,0.0,0.9251,0.9228,0.923,0.9396,0.9697,1.0518,1.1108,1.1543,1.1828,1.2299,1.2807,1.3194,1.3299,1.3277,1.2989,1.235,1.1597,1.0866,0.0,0.0,0.8893,0.8532,0.8333,0.8511,0.8848,0.9271,0.9799,1.0635,1.1378,1.1833,1.2515,1.3072,1.334,1.3612,1.3811,0.0,1.3989,0.0,0.0,0.0,1.4452,1.4452,1.4533,1.4452,1.4188,1.4091,1.3997,1.39,1.39,1.39,1.39,1.39,1.39,1.39,1.39,1.39,1.39,1.39,0.0,1.39,1.39,1.3757,1.3595,1.3216,1.2626,1.1971,1.1614,1.1189,1.0721,0.0,0.0,0.0,0.0,0.0,0.0,0.0,0.0,0.0,0.0,0.0,0.0,0.0,0.0,0.0,0.0,0.0,0.0,0.0,0.0,0.0,0.0,0.0,0.0,0.0,0.0,0.0,0.0,0.0,0.0,0.0,0.0,0.0,0.0,0.0,0.0,0.0,0.0,0.0,0.0,0.0,0.0,0.0,0.0,0.0,0.0,0.0,0.9306,0.8971,0.8818,0.8759,0.889,0.9875,1.0563,1.1034,1.14,1.1979,1.2617,1.2899,1.302,1.3011,1.2517,1.2018,1.1328,1.0363,0.9551,0.8926,0.8532,0.8187,0.8004,0.815,0.8584,0.9056,0.9449,1.0347,1.1151,1.1598,1.2389,1.3023,0.0,1.3628,0.0,1.4092,1.4235,0.0,0.0,0.0,0.0,1.4708,1.4635,1.4469,1.4188,1.414,1.405,1.3904,1.39,1.39,1.39,1.39,1.39,1.39,1.39,1.39,1.39,1.39,0.0,0.0,1.39,1.39,1.3888,1.3467,1.2936,1.2318,1.1854,1.1284,1.0787,0.0,0.0,0.0,0.0,0.0,0.0,0.0,0.0,0.0,0.0,0.0,0.0,0.0,0.0,0.0,0.0,0.0,0.0,0.0,0.0,0.0,0.0,0.0,0.0,0.0,0.0,0.0,0.0,0.0,0.0,0.0,0.0,0.0,0.0,0.0,0.0,0.0,0.0,0.0,0.0,0.0,0.0,0.0,0.0,0.0,0.0,0.0,0.0,0.9198,0.8617,0.8411,0.841,0.8816,0.9575,1.0387,1.069,0.0,0.0,1.1889,1.2061,1.2073,1.1902,1.1322,1.0649,1.0038,0.0,0.8698,0.8174,0.7914,0.7829,0.7845,0.8113,0.8536,0.906,0.977,1.0497,1.1179,1.191,1.2564,1.3059,0.0,0.0,1.4613,0.0,0.0,0.0,0.0,0.0,0.0,1.4404,1.4213,1.418,1.4014,1.3916,1.39,1.39,1.39,1.39,1.39,1.39,1.39,1.39,1.39,1.39,0.0,0.0,0.0,1.39,1.39,1.39,1.3884,1.3388,1.2677,1.2387,1.1778,1.1115,0.0,0.0,0.0,0.0,0.0,0.0,0.0,0.0,0.0,0.0,0.0,0.0,0.0,0.0,0.0,0.0,0.0,0.0,0.0,0.0,0.0,0.0,0.0,0.0,0.0,0.0,0.0,0.0,0.0,0.0,0.0,0.0,0.0,0.0,0.0,0.0,0.0,0.0,0.0,0.0,0.0,0.0,0.0,0.0,0.0,0.0,0.0,0.0,0.0,0.8535,0.8207,0.8073,0.839,0.8824,0.9404,1.0196,1.0676,1.1102,1.15,1.1658,1.1695,1.1626,1.1147,1.0526,0.9876,0.9177,0.8544,0.8105,0.7789,0.7665,0.778,0.8094,0.843,0.8861,0.9624,1.0335,1.0834,1.1618,1.23,1.2722,1.3396,0.0,0.0,0.0,0.0,0.0,0.0,0.0,0.0,1.44,1.4127,1.4014,1.3941,1.39,1.39,1.39,1.39,1.39,1.39,1.39,1.39,1.39,1.39,1.39,0.0,0.0,0.0,1.39,1.39,1.39,1.39,1.347,1.2746,1.2677,1.1992,1.1181,0.0,0.0,0.0,0.0,0.0,0.0,0.0,0.0,0.0,0.0,0.0,0.0,0.0,0.0,0.0,0.0,0.0,0.0,0.0,0.0,0.0,0.0,0.0,0.0,0.0,0.0,0.0,0.0,0.0,0.0,0.0,0.0,0.0,0.0,0.0,0.0,0.0,0.0,0.0,0.0,0.0,0.0,0.0,0.0,0.0,0.0,0.0,0.0,0.0,0.0,0.0,0.7702,0.802,0.8265,0.8584,0.9657,1.0172,1.0562,1.1049,1.122,1.1248,1.1196,1.0873,1.0404,0.9784,0.9133,0.8609,0.8288,0.793,0.7718,0.7776,0.8053,0.8414,0.8686,0.9453,1.02,1.0666,1.1458,1.2209,0.0,0.0,0.0,0.0,0.0,0.0,0.0,0.0,0.0,0.0,1.4524,1.4182,1.3904,1.39,1.39,1.39,1.39,1.39,1.39,1.39,1.39,1.39,1.39,1.39,1.39,0.0,0.0,0.0,1.39,1.39,1.39,1.39,1.3572,1.3027,1.2838,1.2293,1.1574,0.0,0.0,0.0,0.0,0.0,0.0,0.0,0.0,0.0,0.0,0.0,0.0,0.0,0.0,0.0,0.0,0.0,0.0,0.0,0.0,0.0,0.0,0.0,0.0,0.0,0.0,0.0,0.9086,0.0,0.0,0.0,0.0,0.0,0.0,0.0,0.0,0.0,0.0,0.0,0.0,0.0,0.0,0.0,0.0,0.0,0.0,0.0,0.0,0.0,0.0,0.0,0.0,0.0,0.7808,0.802,0.9094,0.9665,0.9973,1.0347,1.057,1.066,1.0435,1.0333,1.0113,0.9776,0.9291,0.8864,0.8721,0.8374,0.803,0.7842,0.8068,0.8355,0.8555,0.9169,0.9924,1.0788,1.1511,1.2303,0.0,0.0,0.0,0.0,0.0,0.0,0.0,0.0,0.0,0.0,1.4906,1.4336,1.39,1.39,1.39,1.39,1.39,1.39,1.39,1.39,1.39,1.39,1.39,1.39,0.0,0.0,0.0,0.0,1.39,1.39,1.39,1.39,1.3794,1.355,1.3019,1.2702,1.2531,0.0,0.0,0.0,0.0,0.0,0.0,0.0,0.0,0.0,0.0,0.0,0.0,0.0,0.0,0.0,0.0,0.0,0.0,0.0,0.0,0.0,0.0,0.0,0.0,0.0,0.0,0.0,1.0184,1.0588,1.1037,0.0,0.0,0.0,0.0,0.0,0.0,0.0,0.0,0.0,0.0,0.0,0.0,0.0,0.0,0.0,0.0,0.0,0.0,0.0,0.0,0.0,0.0,0.0,0.0,0.0,0.8304,0.8869,0.9473,0.9987,1.0219,1.0396,1.0492,1.0391,1.0203,1.0009,0.9642,0.9326,0.9324,0.8992,0.8708,0.8624,0.8707,0.889,0.9234,0.9755,1.0464,1.1406,0.0,0.0,1.4099,1.5729,0.0,0.0,0.0,0.0,0.0,0.0,0.0,0.0,1.5678,1.4826,1.39,1.39,1.39,1.39,1.39,1.39,1.39,1.39,1.39,1.39,1.39,0.0,0.0,0.0,0.0,0.0,1.4546,1.4617,1.4617,1.4617,1.4572,1.4383,1.4049,1.3722,1.3273,0.0,0.0,0.0,0.0,0.0,0.0,0.0,0.0,0.0,0.0,0.0,0.0,0.0,0.0,0.0,0.0,0.0,0.0,0.0,0.0,0.0,0.0,0.0,0.0,0.0,1.0159,1.0578,1.0979,1.1526,1.2039,1.2533,1.2652,0.0,0.0,0.0,0.0,0.0,0.0,0.0,0.0,0.0,0.0,1.1857,0.0,0.0,0.0,0.0,0.0,0.0,0.0,0.0,0.0,0.0,0.0,0.0,0.0,0.8224,0.886,0.9435,0.9641,0.9778,1.0014,1.0013,0.9941,1.0007,0.9838,0.9688,0.9913,0.9776,0.955,0.939,0.9521,0.9672,0.9821,1.0516,1.135,0.0,0.0,0.0,1.606,0.0,0.0,0.0,0.0,0.0,0.0,0.0,0.0,0.0,0.0,1.581,1.4826,1.447,1.4332,1.4332,1.4189,1.4118,1.4118,1.3975,1.39,1.39,1.4043,0.0,0.0,0.0,0.0,0.0,1.547,1.5607,1.5683,1.582,1.5807,1.5658,1.5238,1.4783,1.4307,0.0,0.0,0.0,0.0,0.0,0.0,0.0,0.0,0.0,0.0,0.0,0.0,0.0,0.0,0.0,0.0,0.0,0.0,0.0,0.0,0.0,0.0,0.0,0.0,0.0,1.0808,1.1166,1.1596,1.2253,1.2752,1.3074,1.3675,1.3712,1.3278,0.0,0.0,0.0,0.0,0.0,0.0,1.1196,1.1349,0.0,0.0,0.0,0.0,0.0,0.0,0.0,0.0,0.0,0.0,0.0,0.0,0.0,0.0,0.0,0.0,0.0,0.8883,0.9,0.9213,0.9296,0.9461,0.9872,0.9994,0.0,1.0534,1.069,1.0623,1.0215,1.0533,1.0765,1.0522,1.1451,0.0,0.0,1.4787,0.0,0.0,0.0,0.0,0.0,0.0,0.0,0.0,0.0,0.0,0.0,0.0,1.7147,1.6461,1.5683,1.5261,1.5119,1.4763,1.455,1.455,1.4189,1.3975,1.3971,1.4403,0.0,0.0,0.0,0.0,0.0,1.6588,1.6871,1.6941,1.7288,1.7424,1.7373,1.6588,1.6084,1.5682,0.0,0.0,0.0,0.0,0.0,0.0,0.0,0.0,0.0,0.0,0.0,0.0,0.0,0.0,0.0,0.0,0.0,0.0,0.0,0.0,0.0,0.0,0.0,0.0,0.0,1.1147,1.1682,1.2494,1.301,1.3742,1.4655,1.452,1.4384,1.4245,1.348,0.0,0.0,0.0,0.0,0.0,1.1349,1.1341,0.0,0.0,0.0,0.0,0.8727,0.8191,0.0,0.0,0.0,0.0,0.0,0.0,0.0,0.0,0.7248,0.7523,0.8138,0.0,0.9308,0.9644,0.9734,0.9901,0.0,1.0755,1.1,1.1593,1.1902,1.1964,1.1748,1.2017,1.2362,1.2498,0.0,0.0,1.5511,0.0,0.0,2.038,0.0,0.0,0.0,0.0,0.0,0.0,0.0,0.0,0.0,0.0,1.9245,1.8767,1.8552,1.7645,1.59,1.5541,1.5323,1.5323,1.4901,1.4763,1.4763,1.5181,0.0,0.0,0.0,0.0,1.7364,1.8142,1.8627,1.8832,1.8971,1.8971,1.891,1.8349,1.797,1.7502,0.0,0.0,0.0,0.0,0.0,0.0,0.0,0.0,0.0,0.0,0.0,0.0,0.0,0.0,0.0,0.0,0.0,0.0,0.0,0.0,0.0,0.0,0.0,0.0,0.0,1.1417,1.2067,1.314,1.3577,1.4381,1.5375,1.5019,1.4753,1.456,1.313,0.0,0.0,0.0,0.0,0.0,1.1336,0.0,0.0,0.0,0.0,0.0,0.8092,0.7562,0.0,0.6979,0.6865,0.6869,0.0,0.0,0.0,0.0,0.726,0.7717,0.8245,0.8641,0.9067,0.9782,1.0032,1.0338,1.1204,1.1595,1.1959,1.2642,1.2981,1.316,1.3087,1.35,1.3929,1.4296,1.5004,0.0,0.0,0.0,2.0935,0.0,0.0,0.0,0.0,0.0,0.0,0.0,0.0,0.0,0.0,0.0,2.0439,2.0028,2.0028,1.9192,1.7515,1.7082,1.68,1.6664,1.624,1.6028,1.6098,1.6452,0.0,0.0,0.0,0.0,1.8901,1.968,2.0098,2.03,2.0509,2.0431,2.0275,1.9739,1.9246,1.8691,0.0,0.0,0.0,0.0,0.0,0.0,0.0,0.0,0.0,0.0,0.0,0.0,0.0,0.0,0.0,0.0,0.0,0.0,0.0,0.0,0.0,0.0,0.0,1.0575,1.1444,1.1676,1.2411,1.362,1.4119,1.4813,1.5605,1.5332,1.4898,1.4346,1.2504,0.0,0.0,0.0,0.0,0.0,1.1276,0.0,0.0,0.0,0.0,0.0,0.0,0.0,0.0,0.6474,0.6522,0.6652,0.6652,0.0,0.0,0.0,0.0,0.0,0.8588,0.8697,0.8958,1.0013,1.0483,1.0976,1.1982,1.2492,1.2942,1.3548,1.3983,1.4227,1.4266,1.4856,1.551,0.0,0.0,0.0,2.0254,2.1299,0.0,0.0,0.0,0.0,0.0,0.0,0.0,0.0,0.0,0.0,0.0,0.0,0.0,2.1012,2.1012,2.0521,1.9541,1.8971,1.8552,1.8207,1.7851,1.7635,1.7635,1.8066,1.8417,0.0,0.0,0.0,2.0433,2.1069,2.139,2.1421,2.1771,2.1661,2.1312,2.0778,2.0191,1.9559,0.0,0.0,0.0,0.0,0.0,0.0,0.0,0.0,0.0,0.0,0.0,0.0,0.0,0.0,0.0,0.0,0.0,0.0,0.0,0.0,0.0,0.0,1.0526,1.0885,1.1655,1.2131,1.2924,1.4105,1.4851,1.5371,1.5605,1.5555,1.4866,1.3595,1.2114,1.1598,1.1854,0.0,0.0,1.1873,0.0,0.0,0.0,0.0,0.0,0.0,0.0,0.0,0.0,0.6465,0.6403,0.6461,0.6461,0.0,0.0,0.0,0.0,0.0,0.8509,0.9358,1.0247,1.1202,1.1722,1.2194,1.2994,1.332,1.3588,1.4027,1.4691,1.5157,1.4992,1.6073,1.7078,1.7288,0.0,2.0537,0.0,0.0,0.0,0.0,0.0,0.0,0.0,0.0,0.0,0.0,0.0,0.0,0.0,0.0,0.0,2.2585,2.2585,2.231,2.1822,2.0503,1.9808,1.9738,1.932,1.9181,1.9181,1.9599,1.9808,0.0,0.0,2.1138,2.1559,2.1966,2.2167,2.2215,2.2283,2.2104,2.1819,2.1535,2.1136,2.0598,0.0,0.0,0.0,0.0,0.0,0.0,0.0,0.0,0.0,0.0,0.0,0.0,0.0,0.0,0.0,0.0,0.0,0.0,0.0,0.0,0.0,0.0,1.0827,1.1168,1.1936,1.2458,1.3257,1.4402,1.4943,1.5331,1.5598,1.4993,1.4234,1.3271,1.2161,1.183,1.2084,1.179,1.183,1.2064,0.0,0.0,0.0,0.0,0.0,0.0,0.0,0.0,0.0,0.0,0.6335,0.6387,0.6387,0.0,0.0,0.0,0.0,0.0,0.8799,1.0003,1.1359,1.2572,1.3038,1.3402,1.4406,1.492,1.5248,1.5582,1.6082,1.6461,1.6546,1.7421,1.8477,1.9391,0.0,2.1888,0.0,0.0,0.0,0.0,0.0,0.0,0.0,0.0,0.0,0.0,0.0,0.0,0.0,0.0,0.0,0.0,2.2928,2.2791,2.2654,2.196,2.1408,2.0994,2.0855,2.0717,2.0717,2.0924,2.1132,2.1327,0.0,2.181,2.2137,2.2115,2.2171,2.2184,2.2184,2.2004,2.1782,2.1423,2.1124,2.0721,0.0,0.0,0.0,0.0,0.0,0.0,0.0,0.0,0.0,0.0,0.0,0.0,0.0,0.0,0.0,0.0,0.0,0.0,0.0,0.0,1.072,1.0982,1.1056,1.1472,1.2286,1.2705,1.3498,1.4636,1.4907,1.5149,1.5305,1.4303,1.3574,1.3066,1.2275,1.2067,1.2285,1.2027,1.2033,1.2151,0.0,0.0,0.0,0.0,0.0,0.0,0.0,0.0,0.0,0.0,0.0,0.0,0.0,0.0,0.0,0.6815,0.7358,0.8058,0.902,1.0456,1.1996,1.3567,1.4073,1.4514,1.5728,1.6344,1.6767,1.7062,1.7333,1.7633,1.7882,1.8584,0.0,2.1189,2.2103,0.0,0.0,0.0,0.0,0.0,0.0,0.0,0.0,0.0,0.0,0.0,0.0,0.0,0.0,0.0,0.0,0.0,2.2928,2.2826,2.2759,2.2759,2.2519,2.2042,2.2042,2.2042,2.2035,2.1971,2.2076,2.233,2.2041,2.205,2.2298,2.2078,2.1944,2.1884,2.1884,2.1704,2.1423,2.1196,2.0919,2.0736,0.0,0.0,0.0,0.0,0.0,0.0,0.0,0.0,0.0,0.0,0.0,0.0,0.0,0.0,0.0,0.0,0.0,0.0,0.0,0.0,1.072,1.0982,1.1249,1.174,1.2551,1.2904,1.3625,1.4706,1.5014,1.4992,1.4552,1.3669,1.3112,1.279,1.2181,1.2067,1.2285,1.2027,1.1913,1.1906,1.1557,0.0,0.0,0.0,0.0,0.0,0.0,0.0,0.0,0.0,0.0,0.0,0.0,0.0,0.6453,0.6815,0.7254,0.7868,0.9007,1.0336,1.1851,1.3723,1.4653,1.5406,1.6647,1.7055,1.7337,1.7684,1.8006,1.824,1.8262,1.9286,2.0567,2.1898,2.2396,0.0,0.0,0.0,0.0,0.0,0.0,0.0,0.0,0.0,0.0,0.0,0.0,0.0,0.0,0.0,0.0,0.0,0.0,2.2732,2.2452,2.2452,2.2592,2.2797,2.2797,2.2797,2.2784,2.2511,2.2384,2.2371,2.2078,2.2017,2.2017,2.1991,2.1824,2.1648,2.1648,2.1403,2.1136,2.1116,2.1109,2.1046,0.0,0.0,0.0,0.0,0.0,0.0,0.0,0.0,0.0,0.0,0.0,0.0,0.0,0.0,0.0,0.0,0.0,0.0,0.0,0.0,1.0494,1.0969,1.1096,1.1551,1.2395,1.304,1.38,1.4692,1.4684,1.4564,1.4237,1.3527,1.3046,1.2764,1.2355,1.2204,1.2291,1.2184,1.2037,1.1879,1.1543,1.1114,0.0,0.0,0.0,0.0,0.0,0.0,0.0,0.0,0.6276,0.6339,0.6396,0.6387,0.6506,0.6986,0.7464,0.8112,0.9545,1.0749,1.2071,1.4164,1.5281,1.6158,1.7481,1.8205,1.8694,1.9213,1.9366,1.9572,1.9769,0.0,2.1372,2.2067,0.0,0.0,0.0,0.0,0.0,0.0,0.0,0.0,0.0,0.0,0.0,0.0,0.0,0.0,0.0,0.0,0.0,0.0,0.0,2.2265,2.2151,2.2151,2.2205,2.2318,2.2318,2.2318,2.2311,2.2198,2.2151,2.2131,2.1844,2.1782,2.1769,2.1516,2.1376,2.1276,2.1276,2.1209,2.1109,2.1109,2.1109,2.1109,0.0,0.0,0.0,0.0,0.0,0.0,0.0,0.0,0.0,0.0,0.0,0.0,0.0,0.0,0.0,0.0,0.0,0.0,0.0,0.99,1.0334,1.0835,1.0942,1.1363,1.2144,1.2804,1.3517,1.4345,1.422,1.4,1.3695,1.3253,1.2899,1.2636,1.2392,1.2305,1.2305,1.2305,1.2078,1.171,1.151,1.1095,0.0,0.0,0.0,0.0,0.0,0.0,0.0,0.0,0.6367,0.6443,0.6407,0.6478,0.666,0.7222,0.7681,0.8353,1.0048,1.1227,1.2479,1.4704,1.6011,1.7139,1.849,1.9184,1.9762,2.0413,2.0545,2.0611,2.0837,2.1328,0.0,0.0,0.0,0.0,0.0,0.0,0.0,0.0,0.0,0.0,0.0,0.0,0.0,0.0,0.0,0.0,0.0,0.0,0.0,0.0,0.0,2.2075,2.185,2.185,2.1804,2.171,2.171,2.181,2.1984,2.1891,2.185,2.1837,2.1543,2.141,2.1396,2.1196,2.1109,2.1109,2.1109,2.1109,2.1109,2.1109,2.1109,2.1109,0.0,0.0,0.0,0.0,0.0,0.0,0.0,0.0,0.0,0.0,0.0,0.0,0.0,0.0,0.0,0.0,0.0,0.0,0.0,0.9757,1.0241,1.0573,1.0861,1.1256,1.1886,1.2144,1.2739,1.36,1.36,1.3333,1.2784,1.2784,1.2623,1.2305,1.2305,1.2305,1.2298,1.2298,1.1957,1.1389,1.1389,1.1076,1.0593,0.0,0.0,0.0,0.0,0.0,0.0,0.0,0.6662,0.6574,0.6439,0.6625,0.6988,0.7466,0.7855,0.8531,1.0487,1.1729,1.3063,1.5239,1.6939,1.8311,1.9542,2.0018,2.0373,2.1086,2.1218,2.1218,2.1218,2.1489,0.0,0.0,0.0,0.0,0.0,0.0,0.0,0.0,0.0,0.0,0.0,0.0,0.0,0.0,0.0,0.0,0.0,0.0,0.0,0.0,0.0,0.0,2.1614,2.1614,2.1403,2.1109,2.1109,2.141,2.1964,2.1742,2.1614,2.1594,2.1236,2.1109,2.1109,2.1109,2.1109,2.1109,2.1109,2.1109,2.1109,2.1109,2.1109,2.1109,0.0,0.0,0.0,0.0,0.0,0.0,0.0,0.0,0.0,0.0,0.0,0.0,0.0,0.0,0.0,0.0,0.0,0.0,0.0,0.9377,0.969,1.0227,1.0327,1.0655,1.1243,1.1779,1.2438,1.33,1.33,1.3133,1.2784,1.2784,1.2623,1.2305,1.2305,1.2191,1.2033,1.2033,1.1657,1.1122,1.1122,1.0895,1.0593,0.0,0.0,0.0,0.0,0.0,0.0,0.0,0.0,0.0,0.6573,0.6694,0.7082,0.79,0.8703,0.9723,1.1712,1.2997,1.4249,1.6155,1.7522,1.8636,1.9818,2.0523,2.1101,2.1759,2.2059,2.214,2.1935,2.2147,0.0,0.0,0.0,0.0,0.0,0.0,0.0,0.0,0.0,0.0,0.0,0.0,0.0,0.0,0.0,0.0,0.0,0.0,0.0,0.0,0.0,0.0,2.1243,2.1243,2.1196,2.1109,2.1109,2.1203,2.1363,2.1276,2.1243,2.1236,2.1149,2.1109,2.1109,2.1109,2.1109,2.1109,2.1109,2.1109,2.1109,2.1109,2.1109,2.1109,0.0,0.0,0.0,0.0,0.0,0.0,0.0,0.0,0.0,0.0,0.9035,0.8936,0.0,0.0,0.0,0.0,0.0,0.0,0.0,0.0,0.9573,0.9927,1.0167,1.0514,1.0982,1.1377,1.1844,1.2461,1.2732,1.2692,1.2435,1.2549,1.2472,1.2298,1.2184,1.2067,1.1899,1.1744,1.1423,1.0995,1.0995,1.0854,1.0593,0.0,0.0,0.0,0.0,0.0,0.0,0.0,0.0,0.0,0.7095,0.7187,0.7521,0.8364,0.9285,1.0455,1.2535,1.393,1.5236,1.7079,1.826,1.9333,2.0672,2.1401,2.192,2.2447,2.2586,2.2564,2.2389,2.2506,0.0,0.0,0.0,0.0,0.0,0.0,0.0,0.0,0.0,0.0,0.0,0.0,0.0,0.0,0.0,0.0,0.0,0.0,0.0,0.0,0.0,0.0,2.1299,2.1172,2.1109,2.1109,2.1109,2.1109,2.1109,2.1109,2.1109,2.1109,2.1109,2.1109,2.1109,2.1109,2.1109,2.1109,2.1109,2.1109,2.1109,2.1109,2.1109,2.1109,0.0,0.0,1.0073,1.0246,0.0,0.0,0.0,0.0,0.0,0.9465,0.9335,0.9211,0.0,0.0,0.0,0.8831,0.0,0.0,0.0,0.0,0.9653,0.9715,1.0278,1.0713,1.0949,1.0982,1.1109,1.1349,1.1964,1.2131,1.1913,1.2164,1.2305,1.2285,1.2033,1.1893,1.1839,1.1483,1.1196,1.0949,1.0922,1.0787,1.0553,1.0553,0.0,0.0,0.0,0.0,0.0,0.0,0.0,0.0,0.7861,0.7889,0.819,0.8866,0.9732,1.0915,1.3024,1.46,1.6088,1.7889,1.9125,2.0351,2.1832,2.241,2.2718,2.304,2.2871,2.2667,2.2667,2.2667,0.0,0.0,0.0,0.0,0.0,0.0,0.0,0.0,0.0,0.0,0.0,0.0,0.0,0.0,0.0,0.0,0.0,0.0,0.0,0.0,0.0,0.0,2.1607,2.1299,2.1109,0.0,2.1109,2.1109,2.1109,2.1109,2.1109,2.1109,2.1109,2.1109,2.1109,2.1109,2.1109,2.1109,2.1109,2.1109,2.1109,2.1109,2.1109,2.1109,0.0,0.0,1.0973,1.093,0.0,0.0,0.0,0.0,1.0146,0.9895,0.9751,0.9588,0.9335,0.9211,0.0,0.8962,0.8857,0.0,0.0,0.0,0.9411,0.9702,1.0278,1.062,1.068,1.0875,1.0915,1.078,1.1598,1.1966,1.1913,1.2164,1.2305,1.2285,1.2033,1.1737,1.1483,1.0969,1.0747,1.0667,1.0401,1.0267,1.0214,1.0214,0.9857,0.0,0.0,0.0,0.0,0.0,0.0,0.0,0.7931,0.8168,0.8761,0.936,1.0605,1.2144,1.3817,1.546,1.7015,1.8331,1.9798,2.1123,2.1986,2.241,2.2718,2.304,2.3054,2.3003,2.3003,0.0,0.0,0.0,0.0,0.0,0.0,0.0,0.0,0.0,0.0,0.0,0.0,0.0,0.0,0.0,0.0,0.0,0.0,0.0,0.0,0.0,0.0,2.1922,2.1607,2.1299,2.1109,0.0,2.1109,2.1109,2.1109,2.1109,2.1109,2.1109,2.1109,2.1109,2.1109,2.1109,2.1109,2.1109,2.1109,2.1109,2.1109,2.1109,2.1109,2.1109,0.0,0.0,0.0,0.0,0.0,0.0,0.0,0.0,1.0633,1.036,1.0223,1.0017,0.9732,0.9569,0.0,0.0,0.8982,0.8857,0.0,0.0,0.0,0.0,1.0352,1.0593,1.0593,1.074,1.0772,1.0713,1.1431,1.1761,1.1663,1.2098,1.2305,1.2285,1.185,1.157,1.1342,1.0655,1.0347,1.0321,1.0027,0.9913,0.9913,0.9913,0.9719,0.9472,0.9626,0.0,0.0,0.0,0.0,0.0,0.0,0.0,0.905,0.9559,1.0585,1.193,1.3614,1.5217,1.6901,1.8811,2.0237,2.1342,2.184,2.2191,2.2462,2.263,2.2901,2.3106,0.0,0.0,0.0,0.0,0.0,0.0,0.0,0.0,0.0,0.0,0.0,0.0,0.0,0.0,0.0,0.0,0.0,0.0,0.0,0.0,0.0,0.0,2.248,2.2174,2.1859,2.1488,2.1235,2.1109,2.1109,2.1109,2.1109,2.1109,2.1109,2.1109,2.1109,2.1109,2.1109,2.1109,2.1109,2.1109,2.1109,2.1109,2.1109,2.1109,2.1109,2.1109,0.0,0.0,0.0,0.0,0.0,0.0,0.0,0.0,0.0,1.0871,1.0718,1.0514,1.018,0.9984,0.9718,0.0,0.0,0.0,0.8831,0.0,0.0,0.0,1.0311,1.0439,0.0,0.0,0.0,1.0725,1.1327,1.1614,1.1585,1.2177,1.2415,1.2395,1.1817,1.1515,1.1443,1.0476,1.0083,1.0094,0.98,0.9715,0.9693,0.974,0.9693,0.9613,0.9666,0.9806,0.995,0.9905,0.0,0.0,0.0,0.0,0.9291,0.9568,1.0267,1.1325,1.2999,1.4727,1.6657,1.9118,2.0406,2.1211,2.154,2.1869,2.2118,2.2169,2.263,0.0,0.0,0.0,0.0,0.0,0.0,0.0,0.0,0.0,0.0,0.0,0.0,0.0,0.0,0.0,0.0,0.0,0.0,0.0,0.0,0.0,2.3106,2.3106,2.2793,2.248,2.2167,2.1859,2.1544,2.1299,2.1299,2.1235,2.1172,2.1172,2.1172,2.1109,2.1109,2.1109,2.1109,2.1109,2.1109,2.1109,2.1109,2.1109,2.1109,2.1109,2.1109,2.1109,0.0,0.0,0.0,0.0,0.0,0.0,0.0,0.0,0.0,0.0,1.1276,1.1099,1.082,1.0403,1.0035,0.9736,0.9387,0.9106,0.0,0.0,0.0,0.0,0.9809,0.9829,0.0,0.0,0.0,1.0448,1.1058,1.1688,1.2361,1.2739,1.2906,1.2893,1.2405,1.2044,1.1772,1.0595,1.0083,1.0094,0.98,0.9715,0.9713,0.996,0.971,0.9304,0.9593,0.9539,0.9376,0.9774,0.991,0.0,0.0,0.0,0.0,0.957,1.0338,1.1492,1.2549,1.4986,1.7606,1.9001,2.0069,2.0874,2.1203,2.1525,2.184,0.0,0.0,0.0,0.0,0.0,0.0,0.0,0.0,0.0,0.0,0.0,0.0,0.0,0.0,0.0,0.0,0.0,0.0,0.0,0.0,0.0,0.0,2.3106,2.3106,2.3106,2.2793,2.2613,2.255,2.2174,2.1985,2.1985,2.1985,2.1796,2.1544,2.1544,2.1355,2.1109,2.1109,2.1109,2.1109,2.1109,2.1109,2.1109,2.1109,2.1109,2.1109,2.1109,2.1109,2.1109,0.0,0.0,0.0,0.0,0.0,0.0,0.0,0.0,0.0,0.0,0.0,1.1444,1.1251,1.0922,1.0557,1.0164,0.9769,0.0,0.0,0.0,0.0,0.0,0.0,0.0,0.0,0.0,0.9892,1.022,1.1073,1.1819,1.2518,1.3461,1.3696,1.3238,1.258,1.2231,1.2037,1.0894,1.0399,1.0341,1.0047,0.9927,0.996,1.0254,1.01,0.9717,0.988,0.974,0.9497,0.9728,0.9791,0.9708,0.9319,0.0,0.0,0.0,0.9826,1.0751,1.2266,1.4467,1.6558,1.7781,1.8776,1.9606,2.026,2.0677,2.101,2.1277,0.0,0.0,0.0,0.0,0.0,0.0,0.0,0.0,0.0,0.0,0.0,0.0,0.0,0.0,0.0,0.0,0.0,0.0,0.0,0.0,2.3106,2.3106,2.3106,2.3106,2.2988,2.2793,2.2606,2.2425,2.2299,2.2111,2.2111,2.2048,2.1859,2.167,2.1418,2.1109,2.1109,2.1109,2.1109,2.1109,2.1109,2.1109,2.1109,2.1109,2.1109,2.1109,2.1109,2.1109,0.0,0.0,0.0,0.0,0.0,0.0,0.0,0.0,0.0,0.0,0.0,1.1694,1.1619,0.0,0.0,0.0,1.0164,0.0,0.0,0.0,0.0,0.0,0.0,0.0,0.0,0.9459,0.9634,0.9988,1.0908,1.1757,1.2521,1.3784,1.4125,1.3677,1.3106,1.2701,1.2345,1.1363,1.0841,1.0687,1.0508,1.0416,1.0456,1.0894,1.0822,1.0555,1.0443,1.0214,0.9936,0.9936,0.9836,0.9646,0.0,0.0,0.0,0.0,0.0,1.0208,1.208,1.3787,1.5316,1.6558,1.7562,1.8464,1.9298,0.0,2.0176,0.0,0.0,0.0,0.0,0.0,0.0,0.0,0.0,0.0,0.0,0.0,0.0,0.0,0.0,0.0,0.0,0.0,0.0,0.0,0.0,0.0,2.3106,2.3106,2.3106,2.3106,2.3106,2.2988,2.2738,2.2738,2.2606,2.2362,2.2362,2.2299,2.2237,2.1985,2.1607,2.1235,2.1109,2.1109,2.1109,2.1109,2.1109,2.1109,2.1109,2.1109,2.1109,2.1109,2.1109,2.1109,0.0,0.0,0.0,0.0,0.0,0.0,0.0,0.0,0.0,0.0,0.0,1.1902,1.1877,1.1528,1.1226,1.1074,1.0531,0.0,0.0,0.0,0.0,0.0,0.0,0.0,0.0,0.8851,0.9146,0.9729,1.0404,1.136,1.2514,1.3287,1.3867,1.4272,1.4365,1.3797,1.2723,1.21,1.1511,1.0995,1.1249,1.1322,1.1382,1.1991,1.2031,1.1779,1.1463,1.0995,1.0546,0.0,1.0171,0.9708,0.9666,0.9466,0.9158,0.0,0.0,0.0,1.1923,1.3237,1.4511,1.592,1.6971,1.7823,0.0,0.0,0.0,0.0,0.0,0.0,0.0,0.0,0.0,0.0,0.0,0.0,0.0,0.0,0.0,0.0,0.0,0.0,0.0,0.0,0.0,0.0,0.0,0.0,2.3106,2.3106,2.3106,2.3106,2.3106,2.3106,2.3043,2.3043,2.3043,2.3043,2.3043,2.2863,2.2543,2.255,2.2167,2.1544,2.1235,2.1109,2.1109,2.1109,2.1109,2.1109,2.1109,2.1109,2.1109,2.1109,2.1109,2.1109,0.0,0.0,0.0,0.0,0.0,0.0,0.0,0.0,0.0,0.0,0.0,0.0,0.0,1.1828,1.1603,1.1377,1.0769,0.0,0.0,0.0,0.0,0.0,0.0,0.0,0.0,0.8831,0.899,0.9379,1.0263,1.1124,1.1941,1.3251,1.3787,1.3666,1.4013,1.3858,1.3287,1.2723,1.2348,1.2181,1.2445,1.2572,1.2632,1.3227,1.3267,1.2993,1.2847,0.0,0.0,0.0,0.0,1.0211,0.9836,0.9479,0.9158,0.8865,0.9299,1.0003,1.0715,1.1884,1.3214,1.4273,1.5393,1.6409,1.7167,1.81,0.0,0.0,0.0,0.0,0.0,0.0,0.0,0.0,0.0,0.0,0.0,0.0,0.0,0.0,0.0,0.0,0.0,0.0,0.0,0.0,0.0,0.0,2.3106,2.3106,2.3106,2.3106,2.3106,2.3106,2.3106,2.3106,2.3106,2.3106,2.3106,2.305,2.2918,2.2668,2.248,2.2237,2.1859,2.1481,2.1109,2.1362,2.1418,2.1418,2.1418,2.1418,2.1418,2.1172,2.1109,2.1109,0.0,0.0,0.0,1.2974,0.0,1.2459,1.2321,1.2303,1.2303,1.2303,0.0,0.0,0.0,0.0,1.1794,1.1528,1.1099,1.0744,1.0506,0.0,0.0,0.0,0.0,0.0,0.0,0.8982,0.9008,0.9263,0.9996,1.0744,1.1459,1.2723,1.3259,1.3105,1.3574,1.3613,1.3327,1.3133,1.2965,1.2869,1.3413,1.3622,1.3736,1.4518,1.4661,1.4442,1.4356,0.0,0.0,0.0,0.0,0.0,1.0338,0.9719,0.9171,0.8984,0.9299,0.9796,1.016,1.1116,1.2218,1.312,1.4082,1.5035,1.592,0.0,0.0,0.0,0.0,0.0,0.0,0.0,0.0,0.0,0.0,0.0,0.0,0.0,0.0,0.0,0.0,0.0,0.0,0.0,0.0,0.0,0.0,0.0,2.3106,2.3106,2.3106,2.3106,2.3106,2.3106,2.3106,2.3106,2.3106,2.3106,2.3106,2.3106,2.3106,2.2856,2.2738,2.2606,2.2355,2.1922,2.1418,2.167,2.1796,2.1796,2.1796,2.1796,2.1734,2.1544,2.1425,2.1418,1.3736,1.3839,1.3932,1.3387,1.3296,1.3185,1.2772,1.2707,1.2707,1.2707,0.0,0.0,0.0,0.0,0.0,1.1554,1.152,1.1419,1.1141,1.1006,0.0,0.0,0.0,0.0,0.9614,0.9211,0.9133,0.9413,0.96,1.0179,1.1085,1.1675,1.221,1.2656,1.307,1.3079,1.277,1.3373,1.3313,1.2943,1.407,1.4572,1.4725,1.5812,1.6253,1.626,1.5978,1.55,0.0,1.3971,0.0,0.0,1.1223,1.0163,0.9237,0.9224,0.9466,0.9849,0.0,0.0,0.0,1.2543,0.0,0.0,1.4767,0.0,0.0,0.0,0.0,0.0,0.0,0.0,0.0,0.0,0.0,0.0,0.0,0.0,0.0,0.0,0.0,0.0,0.0,0.0,0.0,0.0,0.0,2.3084,2.3084,2.3084,2.3084,2.3084,2.3084,2.3084,2.3084,2.3091,2.3091,2.3091,2.3106,2.3106,2.3106,2.3106,2.2918,2.2606,2.2606,2.2425,2.2111,2.2111,2.2104,2.2104,2.2104,2.2104,2.2104,2.2111,2.2111,2.2048,1.4055,1.4117,1.4148,1.3561,1.3432,1.3368,1.3167,1.3121,1.3121,0.0,0.0,0.0,1.3112,1.2913,1.2743,1.2663,1.2298,1.2034,1.1956,1.1558,1.1217,1.0922,1.0608,1.0275,0.9888,0.9595,0.9458,0.9536,0.9762,1.0034,1.0382,1.1033,1.1343,1.1357,1.2146,1.2193,1.1743,1.3026,1.379,1.4097,1.4997,1.5894,0.0,0.0,0.0,0.0,0.0,1.7285,1.6621,0.0,1.4554,1.3449,0.0,1.0474,0.9804,0.9626,0.9766,1.0033,1.0194,0.0,0.0,0.0,0.0,0.0,0.0,0.0,0.0,0.0,0.0,0.0,0.0,0.0,0.0,0.0,0.0,0.0,0.0,0.0,0.0,0.0,0.0,0.0,0.0,0.0,0.0,0.0,2.2389,2.244,2.244,2.244,2.244,2.244,2.244,2.244,2.244,2.2652,2.2754,2.2762,2.2996,2.3106,2.3106,2.3106,2.3043,2.2988,2.2988,2.2926,2.2793,2.255,2.2487,2.2487,2.2487,2.2487,2.2425,2.2167,2.2111,2.2111,1.4385,1.4523,1.4659,1.443,1.4392,1.4335,1.4211,1.4191,1.4163,0.0,0.0,0.0,1.4047,1.3844,1.3614,1.3441,1.3168,1.2833,1.25,1.2119,1.1761,1.1452,1.1124,1.082,1.0565,1.0138,0.9958,0.9984,0.9891,0.9972,1.0201,1.0584,1.0748,1.0747,1.1423,1.1535,1.1319,1.2562,1.3415,1.4048,1.5468,0.0,0.0,1.9099,1.9769,0.0,0.0,0.0,1.8666,1.7623,1.6287,0.0,0.0,1.1642,1.1107,1.0745,1.0715,1.0875,1.0995,1.1309,1.1677,1.1977,0.0,0.0,0.0,1.3986,0.0,0.0,0.0,0.0,0.0,0.0,0.0,0.0,0.0,0.0,0.0,0.0,0.0,0.0,0.0,0.0,0.0,0.0,0.0,0.0,2.2103,2.2184,2.2184,2.2184,2.2184,2.2184,2.2184,2.2184,2.2184,2.2352,2.244,2.244,2.263,2.2784,2.2908,2.2908,2.2981,2.3106,2.3106,2.3106,2.3113,2.2918,2.2801,2.2801,2.2801,2.2801,2.2801,2.2606,2.2543,2.2487,0.0,1.5004,1.5368,1.5581,1.5685,1.5652,1.5519,1.5495,1.547,0.0,1.5276,1.5322,1.5359,1.4974,1.4561,1.4214,1.4029,1.3672,1.2946,1.2658,1.2353,1.1975,1.157,1.1369,1.1412,1.0869,1.0587,1.0629,1.0192,1.0095,1.0319,1.0357,1.0466,1.0664,1.0983,1.1237,1.143,1.2244,1.2845,1.3537,1.5808,1.7309,0.0,0.0,2.186,2.2163,2.2295,2.1739,2.0822,1.9856,1.7908,0.0,0.0,1.3402,1.2813,1.2249,1.2069,1.2103,1.2325,1.2184,1.2074,1.2325,1.2405,0.0,1.2777,1.3213,0.0,0.0,0.0,0.0,0.0,0.0,0.0,0.0,0.0,0.0,0.0,0.0,0.0,0.0,0.0,0.0,0.0,0.0,2.1606,2.1642,2.1913,2.2074,2.2074,2.2074,2.2074,2.2074,2.2074,2.2074,2.2074,2.2111,2.2132,2.2132,2.2169,2.2315,2.2571,2.2608,2.2776,2.3054,2.3091,2.3106,2.3106,2.3106,2.3106,2.3106,2.3106,2.3106,2.3106,2.3106,2.3106,2.305,1.5274,1.5615,1.5876,1.5781,1.6088,1.6246,1.6069,1.6233,1.6361,1.6295,1.6449,1.667,1.6991,1.6386,1.5936,1.5854,1.4946,1.4323,1.4167,1.3213,1.2574,1.2398,1.1989,1.187,1.2095,1.1791,1.1555,1.1476,1.116,1.0817,1.0478,1.0737,1.0895,1.0954,1.1597,1.1896,1.2033,1.3126,1.4067,1.4925,1.6688,0.0,2.1149,2.2559,2.3609,2.433,2.3957,2.3545,2.2898,2.1016,1.8924,1.6892,0.0,1.5027,1.4227,1.3487,1.3071,1.2872,1.2991,1.2851,1.269,1.2959,0.0,0.0,1.3106,1.3213,0.0,0.0,0.0,0.0,0.0,0.0,0.0,0.0,0.0,0.0,0.0,0.0,0.0,0.0,0.0,0.0,0.0,0.0,2.102,2.1284,2.1364,2.1401,2.1401,2.1401,2.1401,2.1401,2.1401,2.1401,2.1401,2.1657,2.1789,2.1796,2.2059,2.2213,2.2279,2.2513,2.2659,2.2732,2.2996,2.3106,2.3106,2.3106,2.3106,2.3106,2.3106,2.3106,2.3106,2.3106,2.3106,2.3106,1.541,1.5791,1.6133,1.6243,1.6805,1.7276,1.7278,1.7567,1.7839,1.7977,1.8181,1.8443,1.886,1.8248,1.7651,1.7221,1.6468,1.5661,1.4854,1.4038,1.3378,1.2913,1.2712,1.2694,1.2895,1.2501,1.2272,1.2193,1.1662,1.1225,1.0905,1.12,1.1311,1.129,1.2138,1.2546,1.2677,1.3998,1.525,1.6517,1.7872,0.0,2.1778,2.3439,2.4692,2.557,2.5345,2.4765,2.387,2.219,2.0516,0.0,0.0,1.6934,1.6069,0.0,1.4748,1.4379,1.428,1.3937,1.3667,1.3828,0.0,0.0,0.0,0.0,1.3099,0.0,0.0,0.0,0.0,0.0,0.0,0.0,0.0,0.0,0.0,0.0,0.0,0.0,0.0,0.0,0.0,0.0,2.0489,2.0713,2.072,2.0794,2.0955,2.0969,2.1042,2.1203,2.1211,2.1211,2.1211,2.1372,2.1452,2.1459,2.162,2.1781,2.1942,2.2089,2.233,2.263,2.2798,2.2959,2.3106,2.3106,2.3106,2.3106,2.3106,2.3106,2.3106,2.3106,2.3106,2.3106,1.541,1.5791,1.6232,1.6619,1.7373,1.7998,1.8373,1.8802,1.9286,1.9792,2.0014,2.0261,2.0692,2.0192,1.9524,1.8765,1.8202,1.725,1.5758,1.517,1.4532,1.3784,1.3599,1.3607,1.382,1.33,1.2996,1.2913,1.2221,1.1744,1.1461,1.1835,1.1996,1.2,1.2998,1.3588,1.3899,1.5299,0.0,1.8118,0.0,2.0732,2.2134,2.417,2.5595,2.6507,2.6601,2.58,2.4567,2.3518,2.215,2.0787,1.9814,1.884,0.0,0.0,0.0,0.0,0.0,0.0,0.0,0.0,0.0,1.3766,0.0,0.0,0.0,1.324,0.0,0.0,0.0,0.0,0.0,0.0,0.0,0.0,0.0,0.0,0.0,0.0,0.0,0.0,0.0,0.0,2.0055,2.0055,2.0106,2.0259,2.0523,2.0655,2.0845,2.1108,2.1181,2.1211,2.1211,2.1211,2.1211,2.1211,2.1211,2.135,2.1606,2.1672,2.2001,2.2542,2.2601,2.2806,2.3106,2.3106,2.3106,2.3106,2.3106,2.3106,2.3106,2.3106,2.3106,2.3106,1.541,1.5791,1.6232,1.6619,1.7139,1.7725,1.8446,1.9107,1.9994,2.1343,2.1622,2.1802,2.2205,2.1854,2.1419,2.0964,1.9847,1.8777,1.7823,0.0,1.586,1.5357,1.4658,1.4506,1.4994,1.4478,1.4033,1.3672,1.3391,1.2842,1.202,1.2759,1.3295,1.3677,1.4912,1.5787,1.6397,1.7797,1.8788,0.0,2.1601,2.2917,0.0,2.5305,2.657,2.7542,2.7685,2.6835,2.5585,0.0,2.3409,2.1665,0.0,2.0385,1.9382,1.8373,0.0,0.0,0.0,0.0,0.0,0.0,1.4998,0.0,0.0,0.0,1.3507,1.3547,0.0,0.0,0.0,0.0,0.0,0.0,0.0,0.0,0.0,0.0,0.0,0.0,0.0,0.0,0.0,0.0,0.0,1.9381,1.9705,1.9835,1.9925,2.0413,2.0742,2.0779,2.1057,2.1211,2.1211,2.1211,2.1211,2.1211,2.1211,2.1233,2.1276,2.1562,2.1891,2.225,2.2513,2.2806,2.3106,2.3106,2.3106,2.3106,2.3106,2.3106,2.3106,2.3106,2.3106,2.3106,1.541,1.5791,1.6232,1.6619,1.7295,1.8037,1.8887,2.0099,2.1341,2.2476,2.2702,2.292,2.3396,2.3364,2.309,2.2381,0.0,2.1028,0.0,0.0,1.7796,1.714,1.6294,1.5861,1.5957,1.5233,1.4715,1.4374,1.3988,1.3584,1.3209,1.3706,1.4148,1.4597,1.6117,1.7067,1.7623,0.0,2.0479,0.0,0.0,0.0,0.0,2.5418,2.6282,2.7373,2.7941,2.7314,2.6172,0.0,2.4336,0.0,0.0,0.0,0.0,0.0,0.0,0.0,0.0,0.0,0.0,0.0,0.0,0.0,1.4821,0.0,1.3653,0.0,0.0,0.0,0.0,0.0,0.0,0.0,0.0,0.0,0.0,0.0,0.0,0.0,0.0,0.0,0.0,0.0,0.0,0.0,0.0,1.9081,1.9514,1.9916,2.034,2.0713,2.0859,2.102,2.1211,2.1211,2.1211,2.1211,2.1211,2.1211,2.1211,2.135,2.1591,2.192,2.2228,2.2542,2.2842,2.3032,2.3106,2.3106,2.3106,2.3106,2.3106,2.3106,2.3106,2.3106,1.5771,1.5928,1.6271,1.6816,1.7519,1.8418,1.9639,2.1094,2.2363,2.3266,2.3771,2.4156,2.4522,2.4996,0.0,0.0,2.4047,2.3383,0.0,0.0,2.0033,1.9046,1.8209,1.7533,1.7102,1.623,1.5526,1.4951,1.4565,1.4266,1.4026,1.4466,1.4888,1.5366,1.7173,1.8273,1.8912,0.0,2.1948,2.2746,2.3744,2.4853,2.5898,2.5924,2.6489,2.7295,2.8027,2.7707,2.6827,2.6291,2.5166,0.0,2.3523,0.0,0.0,0.0,0.0,0.0,1.9364,0.0,0.0,0.0,0.0,0.0,0.0,0.0,0.0,0.0,0.0,0.0,0.0,0.0,0.0,1.4438,0.0,0.0,0.0,0.0,0.0,0.0,0.0,0.0,0.0,0.0,0.0,0.0,0.0,0.0,1.8847,1.9404,1.9923,2.0511,2.0676,2.0881,2.1203,2.1211,2.1211,2.1211,2.1211,2.1211,2.1211,2.1211,2.1386,2.1715,2.2045,2.2352,2.2645,2.2974,2.3106,2.3106,2.3106,2.3106,2.3106,2.3106,2.3106,2.3106,1.6658,1.6357,1.6369,1.7239,1.7715,1.8721,2.081,2.1882,2.2793,2.3662,0.0,0.0,0.0,0.0,0.0,0.0,0.0,2.5566,2.3818,0.0,2.249,2.1171,2.0264,1.9397,0.0,1.7754,1.6689,1.5391,1.5342,1.4913,1.4133,1.4972,1.5625,1.6173,1.8281,1.9717,2.0615,2.2301,2.3296,2.3828,2.4678,2.5566,2.6455,0.0,2.7679,2.7748,2.8135,0.0,0.0,2.7051,2.5996,0.0,0.0,0.0,0.0,0.0,0.0,0.0,0.0,0.0,0.0,1.8333,0.0,0.0,0.0,0.0,1.4576,0.0,0.0,0.0,0.0,0.0,1.4761,1.5019,1.4761,0.0,0.0,0.0,0.0,0.0,0.0,0.0,0.0,0.0,0.0,0.0,0.0,0.0,1.7845,1.8774,1.9586,2.0176,2.0559,2.0881,2.1203,2.1211,2.1211,2.1211,2.1211,2.1211,2.1211,2.1211,2.1386,2.1715,2.2045,2.2352,2.2645,2.2974,2.3106,2.3106,2.3106,2.3106,2.3106,2.3106,2.3106,2.3106,1.7168,1.749,1.7686,1.7432,1.7734,1.8838,2.1289,2.2383,2.3403,0.0,2.5411,0.0,0.0,2.7656,2.7969,0.0,0.0,2.7158,2.5996,2.498,0.0,0.0,2.2246,2.119,0.0,1.9502,1.8428,1.7129,1.6855,1.6426,1.5829,1.6122,1.6523,1.7044,0.0,2.0185,0.0,0.0,0.0,0.0,0.0,2.7014,2.7266,0.0,0.0,2.7777,2.8144,2.8027,0.0,2.729,2.6653,2.6028,2.5814,2.5358,2.4836,2.4359,2.3826,0.0,0.0,0.0,2.0737,1.9954,0.0,0.0,0.0,0.0,0.0,0.0,0.0,0.0,0.0,1.6023,1.5665,1.5335,1.4955,1.4571,0.0,0.0,0.0,0.0,0.0,0.0,0.0,0.0,0.0,0.0,0.0,0.0,0.0,1.8423,1.9155,1.9586,2.012,2.0559,2.0889,2.1101,2.1211,2.1211,2.1211,2.1211,2.1211,2.1211,2.1269,2.1408,2.195,2.2242,2.2374,2.2893,2.3106,2.3106,2.3106,2.3106,2.3106,2.3106,2.3106,2.3106,1.8091,1.8496,1.8617,1.7949,1.8437,1.9687,2.1982,2.3047,0.0,0.0,2.6317,0.0,2.8008,0.0,2.8906,0.0,2.8877,2.8545,2.7539,2.668,0.0,2.5146,2.418,0.0,0.0,0.0,2.0137,1.8691,1.8115,1.7529,1.6963,1.6963,1.7197,1.7686,0.0,2.0723,2.1756,2.335,2.4775,0.0,0.0,2.7718,0.0,0.0,2.7891,2.792,0.0,2.8115,2.7891,2.7723,2.7389,2.6979,2.6772,2.645,2.6012,2.5748,2.5317,2.4732,2.4113,2.35,0.0,2.172,2.0581,0.0,1.8587,0.0,0.0,0.0,0.0,0.0,0.0,0.0,1.6568,1.5989,1.5368,1.4656,0.0,0.0,0.0,0.0,0.0,0.0,0.0,0.0,1.4988,1.5199,0.0,0.0,0.0,0.0,1.8818,1.9264,1.9901,2.0336,2.072,2.105,2.1211,2.1211,2.1211,2.1211,2.1211,2.1211,2.1211,2.1247,2.1898,2.2184,2.2235,2.2849,2.3106,2.3106,2.3106,2.3106,2.3106,2.3106,2.3106,2.3106,1.9316,1.9375,0.0,0.0,1.9853,0.0,0.0,0.0,2.4961,0.0,2.7539,2.8467,2.8935,2.9707,3.0049,2.9724,2.998,2.9687,2.8467,2.833,0.0,0.0,2.6055,2.5215,2.3945,0.0,0.0,0.0,1.9095,1.8237,1.7451,1.7422,1.7627,1.8086,1.9822,0.0,2.2539,2.3838,2.5176,2.6494,2.7405,2.7748,2.7796,2.8135,2.8291,2.8291,2.8291,2.8291,2.8291,2.8291,2.8027,2.7748,2.7748,2.7247,2.6702,2.6683,2.6313,2.5881,2.5863,2.5491,2.4781,2.3518,0.0,0.0,0.0,0.0,1.9224,0.0,0.0,0.0,0.0,0.0,0.0,1.6927,1.5947,1.4768,1.3293,0.0,0.0,0.0,0.0,0.0,0.0,1.4523,1.4863,1.4878,1.5789,1.6514,0.0,0.0,1.8555,1.9206,1.985,2.03,2.0691,2.102,2.1196,2.1211,2.1211,2.1211,2.1211,2.1211,2.1211,2.1247,2.1884,2.2169,2.2235,2.2835,2.3091,2.3106,2.3106,2.3106,2.3106,2.3106,2.3106,2.3106,1.9814,2.0547,2.1377,0.0,2.2002,2.248,0.0,0.0,0.0,0.0,2.8096,2.8691,2.9756,3.0068,3.0293,3.0527,3.0332,0.0,0.0,0.0,0.0,2.8271,2.7256,2.6377,2.5732,2.4541,0.0,2.1387,0.0,0.0,1.8276,1.7998,1.791,1.8066,0.0,2.0635,2.1629,2.3271,2.5078,2.6934,2.7783,2.8135,0.0,0.0,2.8291,2.8291,2.8291,2.8291,2.8291,2.8291,2.8223,2.8135,2.8135,2.8004,2.7795,2.7484,2.7334,2.7101,2.6515,2.6275,2.6012,2.5284,2.4391,2.3449,0.0,0.0,0.0,0.0,0.0,0.0,0.0,0.0,0.0,1.7259,1.5898,1.4775,1.421,0.0,0.0,0.0,0.0,0.0,1.3645,1.3989,1.4326,1.4567,1.5262,0.0,0.0,0.0,0.0,1.8533,1.9184,1.9791,2.03,2.0684,2.0969,2.1211,2.1211,2.1211,2.1211,2.1211,2.1211,2.1233,2.1642,2.1957,2.2213,2.2593,2.2893,2.3106,2.3106,2.3106,2.3106,2.3106,2.3106,2.3106,2.1273,0.0,0.0,2.3539,0.0,0.0,2.4912,0.0,0.0,2.8389,2.8887,0.0,3.04,3.0498,3.0605,3.0869,3.0654,0.0,3.0205,0.0,0.0,2.9199,2.833,2.7646,2.7226,2.5752,0.0,2.2715,0.0,0.0,1.887,1.8301,1.8105,0.0,0.0,2.0518,2.167,2.3955,2.5732,2.709,2.7949,0.0,0.0,2.8291,2.8291,2.8291,2.8291,2.8291,2.8291,2.8291,2.8291,2.8291,2.8291,2.8291,2.8252,2.8008,2.7939,2.7891,2.748,2.736,2.7207,2.6598,2.6045,2.5395,2.449,2.379,2.3281,0.0,0.0,0.0,0.0,0.0,0.0,1.7782,1.632,1.5327,0.0,0.0,0.0,0.0,0.0,0.0,1.3859,1.3947,1.41,1.4284,1.4984,0.0,0.0,0.0,0.0,1.8072,1.8862,1.9639,2.0394,2.0726,2.117,2.1603,2.1603,2.1603,2.1603,2.1603,2.1554,2.1462,2.1722,2.1994,2.2206,2.2506,2.2813,2.3106,2.3106,2.3106,2.3106,2.3106,2.3106,2.3106,2.3245,0.0,0.0,0.0,0.0,0.0,0.0,2.7139,0.0,2.8975,0.0,3.0371,3.084,3.0889,3.0889,3.0889,0.0,3.0723,3.0312,3.0234,3.0059,2.9756,2.9268,2.8809,2.8389,2.6748,2.5234,0.0,0.0,2.0302,1.9346,1.8496,0.0,0.0,0.0,0.0,0.0,2.5098,2.6582,2.709,2.7949,2.8291,2.8291,2.8291,2.8291,2.8291,2.8291,2.8291,2.8291,2.8291,2.8291,2.8291,2.8291,2.8291,2.8291,2.8291,2.8291,2.8291,2.8291,2.8291,2.815,2.7569,2.7381,2.7131,2.6177,2.5952,2.575,2.5274,2.4739,2.4157,0.0,0.0,0.0,1.8462,0.0,0.0,0.0,0.0,0.0,0.0,0.0,0.0,0.0,1.4111,1.3924,1.3975,1.4721,0.0,0.0,0.0,0.0,1.7849,1.8729,0.0,2.083,0.0,2.1574,2.223,2.223,2.223,2.223,2.223,2.2059,2.1854,2.2083,2.2244,2.2318,2.2576,2.2899,2.3238,2.3175,2.3168,2.3175,2.3106,2.3106,2.3106,2.5361,0.0,0.0,0.0,0.0,2.8174,2.8799,2.8789,2.9004,2.9863,3.0107,3.0371,3.084,3.0889,3.0889,3.0889,3.0889,0.0,0.0,0.0,0.0,3.0644,2.9883,2.9248,2.8818,2.748,2.5977,0.0,2.2519,2.1016,1.9785,1.889,1.8529,1.8627,0.0,0.0,2.311,2.5019,0.0,2.709,2.7949,2.8291,2.8291,2.8291,2.8291,2.8291,2.8291,2.8291,2.8291,2.8291,2.8291,2.8291,2.8291,2.8291,2.8291,2.8291,2.8291,2.8291,2.8291,2.8291,2.8271,2.815,2.7867,2.7532,2.7141,2.6739,2.6378,2.606,2.5631,2.5149,2.4477,0.0,0.0,0.0,0.0,0.0,0.0,0.0,0.0,0.0,0.0,0.0,0.0,0.0,1.3404,1.3945,0.0,0.0,0.0,0.0,0.0,0.0,0.0,0.0,0.0,0.0,0.0,2.2845,2.2845,2.2845,2.2845,2.2845,2.2683,2.2464,2.2462,2.2659,2.293,2.2983,2.3369,2.3922,2.3611,2.3487,2.3487,2.3168,2.3106,2.3106,0.0,0.0,0.0,0.0,0.0,0.0,0.0,3.0596,0.0,3.083,3.1084,3.1299,3.1533,3.1553,3.1553,3.1553,3.1348,3.1211,3.1211,3.0801,3.0654,3.0879,3.0254,0.0,2.9268,2.8008,2.6494,2.4756,2.3047,2.1533,2.0234,1.9375,1.8975,1.9023,0.0,2.1816,0.0,0.0,0.0,2.7412,2.8037,2.8291,2.8291,2.8291,2.8291,2.8291,2.8291,2.8291,2.8291,2.8291,2.8291,2.8291,2.8291,2.8291,2.8291,2.8291,2.8291,2.8291,2.8291,2.8291,2.8291,2.8291,2.8135,2.7988,2.7829,2.7664,2.7466,2.7299,2.6789,2.5925,2.4703,2.31,0.0,0.0,0.0,0.0,0.0,0.0,0.0,0.0,0.0,0.0,0.0,0.0,0.0,0.0,0.0,0.0,0.0,0.0,0.0,0.0,0.0,0.0,0.0,0.0,0.0,2.4119,2.4119,2.4231,2.4406,2.4231,2.4008,2.3728,2.356,2.3731,2.4114,2.4308,2.4595,2.4841,2.4293,2.4108,2.4046,2.3549,2.3362,2.3362,0.0,3.0724,0.0,0.0,3.1337,0.0,3.2408,3.2512,3.2286,3.1849,3.2013,3.2229,3.2229,3.2229,3.2229,3.2229,3.1855,3.165,3.165,3.126,3.1025,3.1025,3.0586,3.0137,2.9717,2.8535,2.7129,0.0,0.0,2.2246,2.0997,2.0098,1.9756,1.9922,0.0,0.0,0.0,0.0,2.6963,2.7767,2.8223,2.8428,2.8437,2.8525,2.8564,2.8564,2.8564,2.8564,2.8564,2.8564,2.8447,2.8291,2.8291,2.8291,2.8291,2.8291,2.8291,2.8291,2.8291,2.8291,2.8291,2.8291,2.8291,2.8291,2.8291,2.8291,2.8291,2.8291,2.7617,2.6499,2.4899,2.3908,0.0,0.0,0.0,0.0,0.0,0.0,0.0,0.0,0.0,0.0,0.0,0.0,0.0,0.0,0.0,0.0,0.0,0.0,0.0,0.0,0.0,2.0477,2.2737,0.0,2.3988,0.0,2.5496,2.5615,2.5898,2.5615,2.5331,2.5055,2.4911,2.5082,2.5537,2.5959,2.6059,2.5937,2.5272,2.4972,2.4849,2.4108,2.3798,2.3728,0.0,0.0,0.0,0.0,0.0,0.0,0.0,3.4469,3.37,3.2693,3.2381,3.2229,3.2229,3.2229,3.2229,3.2229,3.2129,3.2109,3.2109,3.1699,3.1455,3.1455,3.1055,3.0605,3.0146,2.9258,2.8154,0.0,0.0,2.3584,2.2314,2.1414,2.1269,2.1719,0.0,0.0,0.0,2.6406,2.7226,2.7787,2.8535,2.8857,2.8906,2.9297,2.9509,2.9509,2.9509,2.9509,2.9509,2.9509,2.8935,2.8291,2.8291,2.8291,2.8291,2.8291,2.8291,2.8291,2.8291,2.8291,2.8291,2.8291,2.8291,2.8291,2.8291,2.8291,2.8291,2.8291,2.7617,2.6637,2.5439,2.4862,2.4241,0.0,0.0,0.0,0.0,0.0,2.0915,2.0428,0.0,0.0,0.0,0.0,0.0,0.0,0.0,0.0,0.0,0.0,0.0,1.8718,0.0,2.1379,2.3912,2.4184,0.0,2.6491,2.6491,2.6491,2.6491,2.6491,2.6263,2.5999,2.6312,2.6759,2.7282,2.7628,2.7624,2.7272,2.6589,2.6172,2.5831,2.4849,2.4487,2.4487,0.0,0.0,0.0,0.0,0.0,0.0,0.0,3.5699,3.5079,3.4909,3.4084,3.354,3.354,3.354,3.3416,3.323,3.2994,3.2785,3.2539,3.2148,3.1787,3.1533,3.1357,3.0937,3.0215,2.9863,2.8935,0.0,0.0,0.0,0.0,2.274,0.0,0.0,0.0,2.5732,2.673,2.7451,2.8174,2.8892,2.917,2.9307,2.9326,2.9502,2.9626,2.9626,2.9626,2.9626,2.9626,2.9626,2.9346,2.9062,2.9062,2.9062,2.9004,2.874,2.8672,2.8613,2.8359,2.8291,2.8291,2.8291,2.8291,2.8291,2.8291,2.8291,2.8291,2.8291,2.7617,2.6707,2.5742,2.5217,2.4733,0.0,0.0,0.0,0.0,0.0,0.0,0.0,0.0,1.9506,0.0,0.0,0.0,0.0,0.0,1.4357,1.4957,0.0,0.0,1.9276,0.0,2.2034,2.4587,2.4936,2.581,2.7359,2.7359,2.7476,2.7638,2.7466,2.7337,2.7316,2.7735,2.8171,2.8612,2.8783,2.876,2.8591,2.7924,2.7513,2.7168,2.6363,2.5937,2.5639,3.9256,0.0,3.9109,0.0,3.8363,3.8149,3.8094,3.7218,3.6681,3.6935,3.589,3.5036,3.4735,3.461,3.4423,3.4235,3.3769,3.3414,3.3165,3.2649,3.2217,3.1904,3.1777,0.0,3.0596,3.0459,2.9687,2.8276,2.7246,0.0,0.0,2.4514,0.0,0.0,2.6181,2.7178,2.8066,2.8486,2.9023,2.9636,2.9707,2.9756,2.9766,2.9912,2.9961,2.9961,2.9961,2.9961,2.9961,2.9961,2.9961,2.9912,2.9704,2.9626,2.9512,2.9199,2.9111,2.9014,2.8594,2.8476,2.8447,2.832,2.8291,2.8291,2.8291,2.8291,2.8223,2.7969,2.7432,2.6748,2.5849,2.5478,2.5078,2.4512,0.0,0.0,0.0,0.0,0.0,0.0,2.1373,2.0495,1.9079,0.0,0.0,0.0,0.0,1.576,1.5819,0.0,0.0,0.0,0.0,0.0,0.0,2.5665,2.6555,2.8121,2.8067,2.813,2.8291,2.8121,2.8215,2.8533,2.8829,2.926,2.9785,2.9848,2.9785,2.9658,2.9135,2.8728,2.831,2.7693,2.7263,2.703,4.0493,4.0245,4.0208,4.0707,4.0286,3.9955,4.0129,3.9391,3.867,3.8302,3.7473,3.6513,3.5479,3.5108,3.4922,3.4859,3.4288,3.3912,3.3912,3.3204,3.2783,0.0,0.0,3.1953,3.1514,3.1094,3.0439,2.9607,0.0,0.0,2.6982,2.6973,2.6973,2.7041,2.831,2.8887,2.8935,2.9375,2.9616,2.96,3.0019,3.0185,3.0234,3.0703,3.0869,3.0869,3.0869,3.0869,3.0869,3.0869,3.0869,3.0723,2.9844,2.9626,2.9626,2.956,2.956,2.9473,2.9033,2.8916,2.8809,2.8398,2.8291,2.8291,2.8291,2.8291,2.8057,2.7207,2.7021,2.6748,2.5849,2.5684,2.5391,2.456,0.0,0.0,0.0,0.0,0.0,0.0,2.2139,2.1361,2.0116,0.0,0.0,0.0,0.0,0.0,0.0,0.0,0.0,2.1621,2.2535,0.0,2.6535,2.6583,2.7286,2.8684,2.8408,2.8291,2.8291,2.8291,2.876,2.956,2.957,3.0068,3.0879,3.0889,3.0704,3.0333,3.0039,2.9677,2.9303,2.8719,2.848,2.8421,4.2225,4.2114,4.2066,4.1947,4.1634,4.1343,4.117,4.0559,3.9966,3.9627,3.899,3.8216,3.7435,3.6524,3.586,0.0,3.517,3.4735,0.0,3.3793,3.3345,3.2812,3.2913,3.2759,3.2334,3.2127,3.162,3.0813,0.0,0.0,0.0,2.8174,2.831,2.834,2.9043,2.9521,2.9805,2.9941,3.0185,3.0488,3.0615,3.0674,3.0684,3.083,3.0889,3.0889,3.0889,3.0889,3.0889,3.0889,3.0889,3.084,3.0557,3.0469,3.041,3.0088,3.0,2.9902,2.9482,2.9365,2.9258,2.8828,2.8721,2.8643,2.8359,2.8291,2.8135,2.7578,2.7217,2.6846,2.6289,2.5937,2.5401,2.456,2.4414,0.0,0.0,0.0,0.0,0.0,2.2656,2.2298,0.0,2.1138,0.0,0.0,0.0,0.0,0.0,0.0,0.0,0.0,2.4051,0.0,2.7116,2.744,2.809,2.8983,2.8877,2.8771,2.8568,2.8398,2.876,2.9626,2.9626,3.0068,3.0889,3.0889,3.083,3.0704,3.0645,3.0401,3.0079,2.9853,2.9677,2.9381,4.2974,4.2974,4.2918,4.275,4.2569,4.2344,4.2004,4.1537,4.1091,4.0641,3.9943,3.9297,3.8704,3.7747,0.0,3.6361,3.5737,3.5232,3.4797,3.436,3.3928,3.3597,3.3773,3.3758,3.3498,0.0,0.0,3.2165,3.1097,3.0184,2.9321,2.9594,2.9737,2.9757,3.0201,3.049,3.0622,3.0622,3.0731,3.0889,3.0889,3.0889,3.0889,3.0889,3.0889,3.0889,3.0889,3.0889,3.0889,3.0889,3.0889,3.0889,3.0889,3.0889,3.083,3.0547,3.0459,3.0361,2.9922,2.9805,2.9707,2.9268,2.9033,2.8809,2.8389,2.8398,2.8333,2.7953,2.7572,2.7189,2.6764,2.632,2.5679,2.47,2.4562,2.4212,2.3262,0.0,0.0,0.0,0.0,0.0,0.0,2.2223,0.0,0.0,0.0,0.0,0.0,0.0,0.0,2.4228,2.5253,0.0,2.7683,2.8093,2.8595,2.929,2.9185,2.8983,2.8674,2.8514,2.8868,2.9626,2.9626,3.0068,3.0889,3.0889,3.0889,3.0889,3.0889,3.0762,3.0577,3.0577,3.046,3.0225,4.2974,4.2974,0.0,0.0,4.2974,0.0,4.2581,4.2344,4.1948,4.1357,4.0525,3.9814,3.9414,3.8905,3.813,3.7165,0.0,0.0,0.0,3.4922,3.4673,3.4984,3.5036,3.5036,3.4939,3.4958,3.45,3.3537,3.237,3.162,3.123,3.1274,3.1277,3.1287,3.1721,3.173,3.1441,3.1383,3.1218,3.1005,3.0947,3.0947,3.0947,3.0889,3.0889,3.0889,3.0889,3.0889,3.0889,3.0889,3.0889,3.0889,3.0889,3.0889,3.0947,3.0898,3.0889,3.0849,3.0419,3.0301,3.0194,2.9839,2.9323,2.8873,2.8481,2.8587,2.8608,2.8244,2.8013,2.7723,2.734,2.6848,2.6149,2.5043,2.4848,2.4439,2.3306,0.0,0.0,0.0,0.0,0.0,0.0,2.281,2.2468,0.0,0.0,0.0,0.0,0.0,2.4098,2.556,2.6297,2.7185,2.8288,2.8502,2.8938,2.9606,2.929,2.8983,2.8737,2.8767,2.907,2.9626,2.9655,3.0098,3.0889,3.0889,3.0889,3.0889,3.0889,3.0889,3.0889,3.0889,3.0889,3.0889,0.0,0.0,4.2974,4.2974,4.2974,4.2974,4.2918,4.2806,4.2638,4.2243,4.1834,4.1251,4.0455,3.9989,3.9473,3.8764,3.7616,3.6828,3.6574,3.6135,3.5828,3.5695,3.6135,3.6399,3.6414,3.6301,3.5827,3.4981,3.4095,3.3585,3.3536,3.3191,3.3018,3.2972,3.2851,3.2732,3.2607,3.217,3.194,3.1835,3.1383,3.1218,3.116,3.1005,3.0889,3.0889,3.0889,3.0889,3.0889,3.0889,3.0889,3.0889,3.0889,3.1054,3.116,3.0947,3.1054,3.1199,3.108,3.1224,3.1287,3.0847,3.0158,2.9549,2.9459,2.9223,2.9006,2.8896,2.8577,2.8186,2.7744,2.7311,2.6607,2.5334,2.5087,2.4776,2.3787,2.3667,0.0,0.0,2.4537,2.4696,2.519,2.5118,2.5002,0.0,0.0,0.0,0.0,2.5854,2.6115,2.6839,2.7678,2.8416,2.9023,2.9446,2.9724,2.9889,2.9617,2.929,2.8993,2.9182,2.9356,2.9646,2.9912,3.0371,3.0889,3.0889,3.0889,3.0889,3.0889,3.0889,3.0889,3.0889,3.0889,3.0889,4.2974,4.2974,4.2974,4.2974,4.2974,4.2974,4.2974,4.2974,4.2862,4.2513,4.2287,4.1834,4.1194,4.0803,4.0455,4.0165,3.886,3.7965,3.7785,3.7462,3.7281,3.722,3.7594,3.7845,3.7965,3.7948,3.7616,3.709,3.6301,3.5885,3.5874,3.5139,3.4807,3.4797,3.4343,3.4022,3.3741,3.3402,3.3006,3.2561,3.2275,3.2055,3.1893,3.1787,3.173,3.173,3.173,3.173,3.1682,3.1566,3.1498,3.1441,3.1344,3.1392,3.1498,3.1334,3.1392,3.1556,3.1556,3.1672,3.1677,3.1234,3.0761,3.0299,2.9896,2.9712,2.9533,2.9384,2.9103,2.8707,2.8248,2.78,2.7066,2.563,2.5371,2.5083,2.4243,2.424,0.0,2.5145,2.532,2.5492,2.5854,2.5875,2.6013,2.6175,0.0,0.0,2.7158,2.7189,2.7303,2.7552,2.8245,2.8835,2.9301,2.9766,2.9994,2.9994,2.9827,2.9719,2.9594,2.9587,2.9784,3.0118,3.0154,3.0459,3.0889,3.0889,3.0889,3.0889,3.0889,3.0889,3.0889,3.0889,3.0889,3.0889,4.2974,4.2974,4.2974,4.2974,4.2974,4.2974,4.2974,4.2974,4.2918,4.2638,4.24,4.2118,4.1777,4.1492,4.132,4.1263,4.0036,3.9215,3.9097,3.8848,3.8789,3.9097,3.9097,3.9226,3.9532,3.9532,3.943,3.9243,3.8559,3.819,3.8179,3.7177,3.6713,3.6701,3.6159,3.5702,3.5191,3.5079,3.4475,3.3668,3.3554,3.3296,3.3027,3.296,3.2903,3.2903,3.2903,3.2856,3.2799,3.2514,3.2389,3.2342,3.2065,3.2008,3.2065,3.2018,3.2018,3.2018,3.1903,3.1903,3.1812,3.1428,3.1287,3.1035,3.0287,3.0211,3.0158,2.9843,2.9569,2.927,2.8804,2.8338,2.7507,2.611,2.5798,2.5492,2.481,0.0,2.5265,2.5798,2.6011,2.6144,2.6279,2.6289,2.6455,2.6848,2.6879,2.721,0.0,2.8028,2.8059,2.8131,2.8514,2.8938,2.9404,2.9798,3.0036,3.0098,3.0098,3.0166,3.0319,3.0075,3.0254,3.069,3.0397,3.0527,3.0889,3.0889,3.0889,3.0889,3.0889,3.0889,3.0889,3.0889,3.0889,3.0889,4.2974,4.2974,4.2974,4.2974,4.2974,4.2974,4.2974,4.2974,4.2974,4.2918,4.2862,4.275,4.2413,4.2287,4.2187,4.1984,4.1745,4.1275,4.0443,4.0385,4.0327,4.0385,4.0385,4.0443,4.0501,4.0501,4.0466,4.0441,4.0135,3.9997,3.9973,3.9336,3.9098,3.903,3.8737,3.8579,3.8413,3.7618,3.6984,3.6386,3.5646,3.4998,3.4525,3.4224,3.4011,3.3797,3.3797,3.3628,3.347,3.3413,3.3356,3.3356,3.3016,3.3073,3.331,3.3037,3.3161,3.3172,3.242,3.2373,3.2534,3.2473,3.2153,3.1834,3.169,3.1127,3.0603,3.0531,3.0212,2.9746,2.929,2.8825,2.8183,2.721,2.6724,2.6264,2.5754,0.0,2.6047,2.6951,2.7044,2.7345,2.8121,2.8193,2.8214,2.8286,2.8297,2.8359,2.8504,2.8504,2.868,2.9073,2.9156,2.9415,2.988,2.9953,3.0191,3.0584,3.0584,3.064,3.0799,3.0853,3.0834,3.071,3.0741,3.082,3.0889,3.0889,3.0889,3.0889,3.0889,3.0889,3.0889,3.0889,3.0889,3.0889,4.2974,4.2974,4.2974,4.2974,4.2974,4.2974,4.2974,4.2974,4.2974,4.2974,4.2974,4.2918,4.2806,4.275,4.2694,4.2594,4.2594,4.2413,4.1948,4.1606,4.1447,4.1447,4.1447,4.1447,4.1447,4.1606,4.1663,4.1663,4.1577,4.1511,4.1511,4.0806,4.0519,4.0494,4.008,3.9837,3.964,3.9229,3.8753,3.8196,3.7783,3.7353,3.6991,3.6812,3.6689,3.6589,3.6589,3.6533,3.6319,3.5882,3.558,3.5324,3.4545,3.4291,3.4246,3.3976,3.3671,3.3296,3.2898,3.2727,3.2669,3.2669,3.2514,3.2287,3.2039,3.1712,3.135,3.1102,3.0688,3.0222,2.9766,2.9301,2.8607,2.7496,2.7123,0.0,0.0,2.6667,2.7009,2.7883,2.7986,2.8152,2.8566,2.8618,2.8711,2.897,2.8752,2.8835,2.9332,2.9125,2.9197,2.9663,2.9673,2.9901,3.0367,3.0367,3.0594,3.106,3.106,3.1233,3.1491,3.1426,3.1424,3.1563,3.1255,3.1112,3.1112,3.0947,3.0889,3.0889,3.0889,3.0889,3.0889,3.0889,3.0889,3.0889,4.2974,4.2974,4.2974,4.2974,4.2974,4.2974,4.2974,4.2974,4.2974,4.2974,4.2974,4.2974,4.2974,4.2974,4.2974,4.2974,4.2974,4.2974,4.2974,4.255,4.2324,4.2324,4.2211,4.2155,4.211,4.2369,4.2525,4.2525,4.2581,4.2638,4.2625,4.2004,4.1707,4.1682,4.1237,4.0942,4.0789,4.0691,4.0317,3.9797,3.9686,3.9503,3.9217,3.9217,3.9173,3.9118,3.9118,3.9062,3.888,3.8233,3.7839,3.7504,3.6537,3.5989,3.5634,3.5313,3.4522,3.3738,3.3477,3.3182,3.2898,3.2841,3.2851,3.269,3.2282,3.206,3.1884,3.1598,3.1164,3.0739,3.0387,2.9942,2.9249,2.8139,0.0,0.0,0.0,2.762,2.7872,2.868,2.8773,2.8814,2.8918,2.8938,2.9083,2.9435,2.9135,2.9249,2.9953,2.9653,2.9673,3.0139,3.016,3.0325,3.0677,3.0791,3.1081,3.1536,3.1536,3.1764,3.2142,3.1907,3.1978,3.2248,3.1672,3.1383,3.1267,3.1054,3.0947,3.0889,3.0889,3.0889,3.0889,3.0889,3.0889,3.0889,4.2974,4.2974,4.2974,4.2974,4.2974,4.2974,4.2974,4.2974,4.2974,4.2974,4.2974,4.2974,4.2974,4.2974,4.2974,4.2974,4.2974,4.2974,4.2974,4.2986,4.2918,4.2918,4.2638,4.2369,4.211,4.2369,4.2525,4.2525,4.2806,4.2974,4.2974,4.288,4.2868,4.2855,4.2818,4.2805,4.2749,4.2457,4.1991,4.1478,4.1225,4.0863,4.0384,4.0384,4.0233,3.9983,3.9983,3.9806,3.9549,3.9458,3.9446,3.9378,3.8999,3.8544,3.8044,3.7452,3.6512,3.5378,3.43,3.3805,3.3455,3.325,3.3136,3.3069,3.2742,3.2287,3.1977,3.1946,3.164,3.1319,3.1278,3.0895,3.0408,2.988,0.0,0.0,2.8576,2.8514,2.87,2.9197,2.9259,2.9425,2.9849,2.9891,2.9911,2.9942,2.9911,2.9922,2.9994,2.9963,3.016,3.0626,3.0636,3.0657,3.0688,3.1112,3.1547,3.1936,3.1936,3.2184,3.2618,3.2379,3.2275,3.2305,3.1903,3.1614,3.1325,3.1276,3.1102,3.0889,3.0889,3.0889,3.0889,3.0889,3.0889,3.0889,4.2974,4.2974,4.2974,4.2974,4.2974,4.2974,4.2974,4.2974,4.2974,4.2974,4.2974,4.2974,4.2974,4.2974,4.2974,4.2974,4.2974,4.2974,4.2974,4.2974,4.2974,4.2974,4.2862,4.275,4.265,4.275,4.2806,4.2806,4.2918,4.2974,4.2974,4.2974,4.2974,4.2974,4.2974,4.2974,4.2974,4.2862,4.2681,4.2493,4.2394,4.2214,4.207,4.207,4.1959,4.1916,4.1916,4.1793,4.1676,4.1329,4.1053,4.0771,4.0221,3.9758,3.9394,3.8931,3.8166,3.7317,3.6879,3.5602,3.4323,3.3861,3.3759,3.3692,3.3342,3.2989,3.2751,3.2751,3.2218,3.1785,3.1785,3.1422,3.0967,3.0501,0.0,2.9673,2.9497,2.9466,2.9642,3.0108,3.0419,3.0657,3.0833,3.0853,3.0853,3.0853,3.0853,3.0853,3.0853,3.0853,3.0936,3.1112,3.1381,3.1526,3.1526,3.1702,3.2012,3.2411,3.2411,3.2504,3.2669,3.2612,3.2555,3.2545,3.2248,3.2018,3.1903,3.1441,3.1218,3.1112,3.0947,3.0889,3.0889,3.0889,3.0889,3.0889,4.2974,4.2974,4.2974,4.2974,4.2974,4.2974,4.2974,4.2974,4.2974,4.2974,4.2974,4.2974,4.2974,4.2974,4.2974,4.2974,4.2974,4.2974,4.2974,4.2974,4.2974,4.2974,4.2974,4.2974,4.2974,4.2974,4.2974,4.2974,4.2974,4.2974,4.2974,4.2974,4.2974,4.2974,4.2974,4.2974,4.2974,4.2974,4.2974,4.2974,4.2974,4.2974,4.2974,4.2974,4.2974,4.2974,4.2974,4.2974,4.2924,4.2602,4.2298,4.2002,4.1464,4.0967,4.052,4.0117,3.957,3.902,3.8965,3.7633,3.5988,3.4991,3.4624,3.4401,3.4054,3.3738,3.3477,3.3477,3.2874,3.2373,3.2373,3.2068,3.165,3.1184,3.0843,3.0594,3.045,3.0429,3.0553,3.0864,3.1184,3.1381,3.1381,3.1381,3.1381,3.1381,3.1381,3.1381,3.1381,3.1381,3.1443,3.1578,3.1888,3.205,3.2194,3.2204,3.2359,3.2669,3.2669,3.2669,3.2669,3.2669,3.2669,3.268,3.2498,3.2373,3.2248,3.1787,3.1556,3.145,3.1112,3.1005,3.0995,3.0947,3.0889,3.0889,4.2986,4.2974,4.2974,4.2974,4.2974,4.2974,4.2974,4.2974,4.2974,4.2974,4.2974,4.2974,4.2974,4.2974,4.2974,4.2974,4.2974,4.2974,4.2974,4.2974,4.2974,4.2974,4.2974,4.2974,4.2974,4.2974,4.2974,4.2974,4.2974,4.2974,4.2974,4.2974,4.2974,4.2974,4.2974,4.2974,4.2974,4.2974,4.2974,4.2974,4.2974,4.2974,4.2974,4.2974,4.2974,4.2974,4.2974,4.2974,4.2974,4.2974,4.2974,4.2974,4.2974,4.2431,4.1606,4.1059,4.0735,4.0463,4.0215,3.9691,3.8755,3.6696,3.5806,3.5312,3.4969,3.4502,3.4086,3.4086,3.3646,3.3193,3.3193,3.2908,3.2525,3.206,3.1988,3.1888,3.1443,3.1381,3.1381,3.1381,3.1381,3.1391,3.1391,3.1391,3.1391,3.1391,3.1391,3.1391,3.1391,3.1391,3.1588,3.1977,3.1988,3.2215,3.2727,3.2669,3.2669,3.2669,3.2669,3.2669,3.2669,3.2669,3.2669,3.2669,3.2669,3.2555,3.2305,3.2305,3.2076,3.1787,3.1441,3.1325,3.1267,3.0995,3.0889,3.0889,4.3551,4.3237,4.2974,4.2974,4.2974,4.2974,4.2974,4.2974,4.2974,4.2974,4.2974,4.2974,4.2974,4.2974,4.2974,4.2974,4.2974,4.2974,4.2974,4.2974,4.2974,4.2974,4.2974,4.2974,4.2974,4.2974,4.2974,4.2974,4.2974,4.2974,4.2974,4.2974,4.2974,4.2974,4.2974,4.2974,4.2974,4.2974,4.2974,4.2974,4.2974,4.2974,4.2974,4.2974,4.2974,4.2974,4.2974,4.2974,4.2974,4.2974,4.2974,4.2974,4.2974,4.2805,4.2586,4.2424,4.2043,4.1688,4.1579,4.1017,3.9962,3.816,3.7312,3.6773,3.6243,3.5708,3.5157,3.4769,3.4233,3.3703,3.3306,3.3136,3.2913,3.254,3.2194,3.1936,3.1857,3.1836,3.1836,3.1836,3.2126,3.2323,3.2323,3.2323,3.2323,3.2323,3.2323,3.2323,3.2323,3.2323,3.2385,3.2463,3.2463,3.2535,3.2669,3.2669,3.2669,3.2669,3.2669,3.2669,3.2669,3.2669,3.2669,3.2669,3.2669,3.2669,3.2555,3.2373,3.2248,3.2133,3.1787,3.1498,3.1267,3.1218,3.1054,3.0889,4.384,4.3526,4.3237,4.3024,4.2974,4.2974,4.2974,4.2974,4.2974,4.2974,4.2974,4.2974,4.2974,4.2974,4.2974,4.2974,4.2974,4.2974,4.2974,4.2974,4.2974,4.2974,4.2974,4.2974,4.2974,4.2974,4.2974,4.2974,4.2974,4.2974,4.2974,4.2974,4.2974,4.2974,4.2974,4.2974,4.2974,4.2974,4.2974,4.2974,4.2974,4.2974,4.2974,4.2974,4.2974,4.2974,4.2974,4.2974,4.2974,4.2974,4.2974,4.2974,4.2974,4.2974,4.2974,4.2974,4.2791,4.2539,4.2539,4.196,4.1188,4.0135,3.9044,3.8114,3.775,3.7002,3.6134,3.5587,3.488,3.4177,3.3466,3.325,3.3079,3.2727,3.2442,3.2256,3.2256,3.2256,3.2256,3.2256,3.2504,3.2669,3.2669,3.2669,3.2669,3.2669,3.2669,3.2669,3.2669,3.2669,3.2669,3.2669,3.2669,3.2669,3.2669,3.2669,3.2669,3.2669,3.2669,3.2669,3.2669,3.2669,3.2669,3.2669,3.2669,3.2669,3.268,3.2555,3.243,3.243,3.2133,3.1845,3.1672,3.1383,3.1218,3.1054,4.3978,4.3827,4.3627,4.3074,4.2974,4.2974,4.2974,4.2974,4.2974,4.2974,4.2974,4.2974,4.2974,4.2974,4.2974,4.2974,4.2974,4.2974,4.2974,4.2974,4.2974,4.2974,4.2974,4.2974,4.2974,4.2974,4.2974,4.2974,4.2974,4.2974,4.2974,4.2974,4.2974,4.2974,4.2974,4.2974,4.2974,4.2974,4.2974,4.2974,4.2974,4.2974,4.2974,4.2974,4.2974,4.2974,4.2974,4.2974,4.2974,4.2974,4.2974,4.2974,4.2974,4.2974,4.2974,4.2974,4.2974,4.2974,4.2974,4.2665,4.2288,4.2288,4.0876,3.9453,3.935,3.8269,3.7148,3.6553,3.5676,3.4758,3.3851,3.3466,3.3193,3.2784,3.2727,3.2727,3.2669,3.2669,3.2669,3.2669,3.2669,3.2669,3.2669,3.2669,3.2669,3.2669,3.2669,3.2669,3.2669,3.2669,3.2669,3.2669,3.2669,3.2669,3.2669,3.2669,3.2669,3.2669,3.2669,3.2669,3.2669,3.2669,3.2669,3.2669,3.2669,3.2669,3.2669,3.2669,3.2669,3.2669,3.243,3.2305,3.2248,3.1614,3.1325,3.1276,4.4556,4.4104,4.3627,4.3074,4.2974,4.2974,4.2974,4.2974,4.2974,4.2974,4.2974,4.2974,4.2974,4.2974,4.2974,4.2974,4.2974,4.2974,4.2974,4.2974,4.2974,4.2974,4.2974,4.2974,4.2974,4.2974,4.2974,4.2974,4.2974,4.2974,4.2974,4.2974,4.2974,4.2974,4.2974,4.2974,4.2974,4.2974,4.2974,4.2974,4.2974,4.2974,4.2974,4.2974,4.2974,4.2974,4.2974,4.2974,4.2974,4.2974,4.2974,4.2974,4.2974,4.2974,4.2974,4.2974,4.2974,4.2974,4.2974,4.2942,4.2854,4.2854,4.2173,4.1355,4.0703,3.958,3.8545,3.7821,3.6772,3.5664,3.4513,3.4244,3.3963,3.3182,3.3079,3.3022,3.2737,3.2669,3.2669,3.2669,3.2669,3.2669,3.2669,3.2669,3.2669,3.2669,3.2669,3.2669,3.2669,3.2669,3.2669,3.2669,3.2669,3.2669,3.2669,3.2669,3.2669,3.2669,3.2669,3.2669,3.2669,3.2669,3.2669,3.2669,3.2669,3.2669,3.2669,3.2669,3.2669,3.2669,3.2612,3.2487,3.2305,3.2133,3.173,3.1276,4.4782,4.4392,4.3928,4.3124,4.2974,4.2974,4.2974,4.2974,4.2974,4.2974,4.2974,4.2974,4.2974,4.2974,4.2974,4.2974,4.2974,4.2974,4.2974,4.2974,4.2974,4.2974,4.2974,4.2974,4.2974,4.2974,4.2974,4.2974,4.2974,4.2974,4.2974,4.2974,4.2974,4.2974,4.2974,4.2974,4.2974,4.2974,4.2974,4.2974,4.2974,4.2974,4.2974,4.2974,4.2974,4.2974,4.2974,4.2974,4.2974,4.2974,4.2974,4.2974,4.2974,4.2974,4.2974,4.2974,4.2974,4.2974,4.2974,4.2974,4.2974,4.2974,4.276,4.2409,4.168,4.0752,3.9751,3.8945,3.7872,3.6688,3.5301,3.4789,3.4188,3.3363,3.3193,3.3079,3.2727,3.2669,3.2669,3.2669,3.2669,3.2669,3.2669,3.2669,3.2669,3.2669,3.2669,3.2669,3.2669,3.2669,3.2669,3.2669,3.2669,3.2669,3.2669,3.2669,3.2669,3.2669,3.2669,3.2669,3.2669,3.2669,3.2669,3.2669,3.2669,3.2669,3.2669,3.2669,3.2669,3.2669,3.2669,3.2612,3.2487,3.2373,3.1903,3.1276,4.4832,4.4556,4.4166,4.315,4.2974,4.2974,4.2974,4.2974,4.2974,4.2974,4.2974,4.2974,4.2974,4.2974,4.2974,4.2974,4.2974,4.2974,4.2974,4.2974,4.2974,4.2974,4.2974,4.2974,4.2974,4.2974,4.2974,4.2974,4.2974,4.2974,4.2974,4.2974,4.2974,4.2974,4.2974,4.2974,4.2974,4.2974,4.2974,4.2974,4.2974,4.2974,4.2974,4.2974,4.2974,4.2974,4.2974,4.2974,4.2974,4.2974,4.2974,4.2974,4.2974,4.2974,4.2974,4.2974,4.2974,4.2974,4.2974,4.2974,4.2974,4.2974,4.2974,4.2848,4.2451,4.1651,4.0804,4.0025,3.901,3.7828,3.6421,3.5534,3.463,3.365,3.3422,3.322,3.2737,3.2669,3.2669,3.2669,3.2669,3.2669,3.2669,3.2669,3.2669,3.2669,3.2669,3.2669,3.2669,3.2669,3.2669,3.2669,3.2669,3.2669,3.2669,3.2669,3.2669,3.2669,3.2669,3.2669,3.2669,3.2669,3.2669,3.2669,3.2669,3.2669,3.2669,3.2669,3.2669,3.2669,3.2669,3.2669,3.2669,3.2373,3.196,3.1441,4.4756,4.4242,4.3714,4.3087,4.2974,4.2974,4.2974,4.2974,4.2974,4.2974,4.2974,4.2974,4.2974,4.2974,4.2974,4.2974,4.2974,4.2974,4.2974,4.2974,4.2974,4.2974,4.2974,4.2974,4.2974,4.2974,4.2974,4.2974,4.2974,4.2974,4.2974,4.2974,4.2974,4.2974,4.2974,4.2974,4.2974,4.2974,4.2974,4.2974,4.2974,4.2974,4.2974,4.2974,4.2974,4.2974,4.2974,4.2974,4.2974,4.2974,4.2974,4.2974,4.2974,4.2974,4.2974,4.2974,4.2974,4.2974,4.2974,4.2974,4.2974,4.2974,4.2974,4.2961,4.2886,4.2213,4.1483,4.1139,4.0158,3.9066,3.8117,3.7383,3.6396,3.4848,3.4325,3.3785,3.2846,3.2669,3.2669,3.2669,3.2669,3.2669,3.2669,3.2669,3.2669,3.2669,3.2669,3.2669,3.2669,3.2669,3.2669,3.2669,3.2669,3.2669,3.2669,3.2669,3.2669,3.2669,3.2669,3.2669,3.2669,3.2669,3.2669,3.2669,3.2669,3.2669,3.2669,3.2669,3.2669,3.2669,3.2669,3.2669,3.2669,3.2373,3.2248,3.2133,4.4342,4.3966,4.3627,4.3074,4.2974,4.2974,4.2974,4.2974,4.2974,4.2974,4.2974,4.2974,4.2974,4.2974,4.2974,4.2974,4.2974,4.2974,4.2974,4.2974,4.2974,4.2974,4.2974,4.2974,4.2974,4.2974,4.2974,4.2974,4.2974,4.2974,4.2974,4.2974,4.2974,4.2974,4.2974,4.2974,4.2974,4.2974,4.2974,4.2974,4.2974,4.2974,4.2974,4.2974,4.2974,4.2974,4.2974,4.2974,4.2974,4.2974,4.2974,4.2974,4.2974,4.2974,4.2974,4.2974,4.2974,4.2974,4.2974,4.2974,4.2974,4.2974,4.2974,4.2974,4.2974,4.2674,4.2332,4.2041,4.1107,4.0074,3.9163,3.8067,3.6893,3.567,3.5048,3.445,3.3863,3.337,3.3006,3.2758,3.2669,3.2669,3.2669,3.2669,3.2669,3.2669,3.2669,3.2669,3.2669,3.2669,3.2669,3.2669,3.2669,3.2669,3.2669,3.2669,3.2669,3.2669,3.2669,3.2669,3.2669,3.2669,3.2669,3.2669,3.2669,3.2669,3.2669,3.2669,3.2669,3.2669,3.2669,3.2669,3.268,3.2555,3.243,3.2305]}]]